[[{"header":{"parameterUnit":"m.s-1","parameterCategory":1,"la1":30.6,"la2":28.766,"lo1":-90.7593,"lo2":-88.6598,"dy":0.0162,"dx":0.0183,"nx":116,"ny":114,"refTime":"2024-04-02T18:00:00:Z","depth":0,"parameterNumber":2,"parameterNumberName":"U-component_of_WINDS"},"data":[0.0,0.0,0.0,0.0,0.0,0.0,0.0,0.0,0.0,0.0,0.0,0.0,0.0,0.0,0.0,0.0,0.0,0.0,0.0,0.0,0.0,0.0,0.0,0.0,0.0,0.0,0.0,0.0,0.0,0.0,0.0,0.0,0.0,0.0,0.0,0.0,0.0,0.0,0.0,0.0,0.0,0.0,0.0,0.0,0.0,0.0,0.0,0.0,0.0,0.0,0.0,0.0,0.0,0.0,0.0,0.0,0.0,0.0,0.0,0.0,0.0,0.0,0.0,0.0,0.0,0.0,0.0,0.0,0.0,0.0,0.0,0.0,0.0,0.0,0.0,0.0,0.0,0.0,0.0,0.0,0.0,0.0,0.0,0.0,0.0,0.0,0.0,0.0,0.0,0.0,0.0,0.0,0.0,0.0,0.0,0.0,0.0,0.0,0.0,0.0,0.0,0.0,0.0,0.0,0.0,0.0,0.0,0.0,0.0,0.0,0.0,0.0,0.0,0.0,0.0,0.0,0.0,0.0,0.0,0.0,0.0,0.0,0.0,0.0,0.0,0.0,0.0,0.0,0.0,0.0,0.0,0.0,0.0,0.0,0.0,0.0,0.0,0.0,0.0,0.0,0.0,0.0,0.0,0.0,0.0,0.0,0.0,0.0,0.0,0.0,0.0,0.0,0.0,0.0,0.0,0.0,0.0,0.0,0.0,0.0,0.0,0.0,0.0,0.0,0.0,0.0,0.0,0.0,0.0,0.0,0.0,0.0,0.0,0.0,0.0,0.0,0.0,0.0,0.0,0.0,0.0,0.0,0.0,0.0,0.0,0.0,0.0,0.0,0.0,0.0,0.0,0.0,0.0,0.0,0.0,0.0,0.0,0.0,0.0,0.0,0.0,0.0,0.0,0.0,0.0,0.0,0.0,0.0,0.0,0.0,0.0,0.0,0.0,0.0,0.0,0.0,0.0,0.0,0.0,0.0,0.0,0.0,0.0,0.0,0.0,0.0,0.0,0.0,0.0,0.0,0.0,0.0,0.0,0.0,0.0,0.0,0.0,0.0,0.0,0.0,0.0,0.0,0.0,0.0,0.0,0.0,0.0,0.0,0.0,0.0,0.0,0.0,0.0,0.0,0.0,0.0,0.0,0.0,0.0,0.0,0.0,0.0,0.0,0.0,0.0,0.0,0.0,0.0,0.0,0.0,0.0,0.0,0.0,0.0,0.0,0.0,0.0,0.0,0.0,0.0,0.0,0.0,0.0,0.0,0.0,0.0,0.0,0.0,0.0,0.0,0.0,0.0,0.0,0.0,0.0,0.0,0.0,0.0,0.0,0.0,0.0,0.0,0.0,0.0,0.0,0.0,0.0,0.0,0.0,0.0,0.0,0.0,0.0,0.0,0.0,0.0,0.0,0.0,0.0,0.0,0.0,0.0,0.0,0.0,0.0,0.0,0.0,0.0,0.0,0.0,0.0,0.0,0.0,0.0,0.0,0.0,0.0,0.0,0.0,0.0,0.0,0.0,0.0,0.0,0.0,0.0,0.0,0.0,0.0,0.0,0.0,0.0,0.0,0.0,0.0,0.0,0.0,0.0,0.0,0.0,0.0,0.0,0.0,0.0,0.0,0.0,0.0,0.0,0.0,0.0,0.0,0.0,0.0,0.0,0.0,0.0,0.0,0.0,0.0,0.0,0.0,0.0,0.0,0.0,0.0,0.0,0.0,0.0,0.0,0.0,0.0,0.0,0.0,0.0,0.0,0.0,0.0,0.0,0.0,0.0,0.0,0.0,0.0,0.0,0.0,0.0,0.0,0.0,0.0,0.0,0.0,0.0,0.0,0.0,0.0,0.0,0.0,0.0,0.0,0.0,0.0,0.0,0.0,0.0,0.0,0.0,0.0,0.0,0.0,0.0,0.0,0.0,0.0,0.0,0.0,0.0,0.0,0.0,0.0,0.0,0.0,0.0,0.0,0.0,0.0,0.0,0.0,0.0,0.0,0.0,0.0,0.0,0.0,0.0,0.0,0.0,0.0,0.0,0.0,0.0,0.0,0.0,0.0,0.0,0.0,0.0,0.0,0.0,0.0,0.0,0.0,0.0,0.0,0.0,0.0,0.0,0.0,0.0,0.0,0.0,0.0,0.0,0.0,0.0,0.0,0.0,0.0,0.0,0.0,0.0,0.0,0.0,0.0,0.0,0.0,0.0,0.0,0.0,0.0,0.0,0.0,0.0,0.0,0.0,0.0,0.0,0.0,0.0,0.0,0.0,0.0,0.0,0.0,0.0,0.0,0.0,0.0,0.0,0.0,0.0,0.0,0.0,0.0,0.0,0.0,0.0,0.0,0.0,0.0,0.0,0.0,0.0,0.0,0.0,0.0,0.0,0.0,0.0,0.0,0.0,0.0,0.0,0.0,0.0,0.0,0.0,0.0,0.0,0.0,0.0,0.0,0.0,0.0,0.0,0.0,0.0,0.0,0.0,0.0,0.0,0.0,0.0,0.0,0.0,0.0,0.0,0.0,0.0,0.0,0.0,0.0,0.0,0.0,0.0,0.0,0.0,0.0,0.0,0.0,0.0,0.0,0.0,0.0,0.0,0.0,0.0,0.0,0.0,0.0,0.0,0.0,0.0,0.0,0.0,0.0,0.0,0.0,0.0,0.0,0.0,0.0,0.0,0.0,0.0,0.0,0.0,0.0,0.0,0.0,0.0,0.0,0.0,0.0,0.0,0.0,0.0,0.0,0.0,0.0,0.0,0.0,0.0,0.0,0.0,0.0,0.0,0.0,0.0,0.0,0.0,0.0,0.0,0.0,0.0,0.0,0.0,0.0,0.0,0.0,0.0,0.0,0.0,0.0,0.0,0.0,0.0,0.0,0.0,0.0,0.0,0.0,0.0,0.0,0.0,0.0,0.0,0.0,0.0,0.0,0.0,0.0,0.0,0.0,0.0,0.0,0.0,0.0,0.0,0.0,0.0,0.0,0.0,0.0,0.0,0.0,0.0,0.0,0.0,0.0,0.0,0.0,0.0,0.0,0.0,0.0,0.0,0.0,0.0,0.0,0.0,0.0,0.0,0.0,0.0,0.0,0.0,0.0,0.0,0.0,0.0,0.0,0.0,0.0,0.0,0.0,0.0,0.0,0.0,0.0,0.0,0.0,0.0,0.0,0.0,0.0,0.0,0.0,0.0,0.0,0.0,0.0,0.0,0.0,0.0,0.0,0.0,0.0,0.0,0.0,0.0,0.0,0.0,0.0,0.0,0.0,0.0,0.0,0.0,0.0,0.0,0.0,0.0,0.0,0.0,0.0,0.0,0.0,0.0,0.0,0.0,0.0,0.0,0.0,0.0,0.0,0.0,0.0,0.0,0.0,0.0,0.0,0.0,0.0,0.0,0.0,0.0,0.0,0.0,0.0,0.0,0.0,0.0,0.0,0.0,0.0,0.0,0.0,0.0,0.0,0.0,0.0,0.0,0.0,0.0,0.0,0.0,0.0,0.0,0.0,0.0,0.0,0.0,0.0,0.0,0.0,0.0,0.0,0.0,0.0,0.0,0.0,0.0,0.0,0.0,0.0,0.0,0.0,0.0,0.0,0.0,0.0,0.0,0.0,0.0,0.0,0.0,0.0,0.0,0.0,0.0,0.0,0.0,0.0,0.0,0.0,0.0,0.0,0.0,0.0,0.0,0.0,0.0,0.0,0.0,0.0,0.0,0.0,0.0,0.0,0.0,0.0,0.0,0.0,0.0,0.0,0.0,0.0,0.0,0.0,0.0,0.0,0.0,0.0,0.0,0.0,0.0,0.0,0.0,0.0,0.0,0.0,0.0,0.0,0.0,0.0,0.0,0.0,0.0,0.0,0.0,0.0,0.0,0.0,0.0,0.0,0.0,0.0,0.0,0.0,0.0,0.0,0.0,0.0,0.0,0.0,0.0,0.0,0.0,0.0,0.0,0.0,0.0,0.0,0.0,0.0,0.0,0.0,0.0,0.0,0.0,0.0,0.0,0.0,0.0,0.0,0.0,0.0,0.0,0.0,0.0,0.0,0.0,0.0,0.0,0.0,0.0,0.0,0.0,0.0,0.0,0.0,0.0,0.0,0.0,0.0,0.0,0.0,0.0,0.0,0.0,0.0,0.0,0.0,0.0,0.0,0.0,0.0,0.0,0.0,0.0,0.0,0.0,0.0,0.0,0.0,0.0,0.0,0.0,0.0,0.0,0.0,0.0,0.0,0.0,0.0,0.0,0.0,0.0,0.0,0.0,0.0,0.0,0.0,0.0,0.0,0.0,0.0,0.0,0.0,0.0,0.0,0.0,0.0,0.0,0.0,0.0,0.0,0.0,0.0,0.0,0.0,0.0,0.0,0.0,0.0,0.0,0.0,0.0,0.0,0.0,0.0,0.0,0.0,0.0,0.0,0.0,0.0,0.0,0.0,0.0,0.0,0.0,0.0,0.0,0.0,0.0,0.0,0.0,0.0,0.0,0.0,0.0,0.0,0.0,0.0,0.0,0.0,0.0,0.0,0.0,0.0,0.0,0.0,0.0,0.0,0.0,0.0,0.0,0.0,0.0,0.0,0.0,0.0,0.0,0.0,0.0,0.0,0.0,0.0,0.0,0.0,0.0,0.0,0.0,0.0,0.0,0.0,0.0,0.0,0.0,0.0,0.0,0.0,0.0,0.0,0.0,0.0,0.0,0.0,0.0,0.0,0.0,0.0,0.0,0.0,0.0,0.0,0.0,0.0,0.0,0.0,0.0,0.0,0.0,0.0,0.0,0.0,0.0,0.0,0.0,0.0,0.0,0.0,0.0,0.0,0.0,0.0,0.0,0.0,0.0,0.0,0.0,0.0,0.0,0.0,0.0,0.0,0.0,0.0,0.0,0.0,0.0,0.0,0.0,0.0,0.0,0.0,0.0,0.0,0.0,0.0,0.0,0.0,0.0,0.0,0.0,0.0,0.0,0.0,0.0,0.0,0.0,0.0,0.0,0.0,0.0,0.0,0.0,0.0,0.0,0.0,0.0,0.0,0.0,0.0,0.0,0.0,0.0,0.0,0.0,0.0,0.0,0.0,0.0,0.0,0.0,0.0,0.0,0.0,0.0,0.0,0.0,0.0,0.0,0.0,0.0,0.0,0.0,0.0,0.0,0.0,0.0,0.0,0.0,0.0,0.0,0.0,0.0,0.0,0.0,0.0,0.0,0.0,0.0,0.0,0.0,0.0,0.0,0.0,0.0,0.0,0.0,0.0,0.0,0.0,0.0,0.0,0.0,0.0,0.0,0.0,0.0,0.0,0.0,0.0,0.0,0.0,0.0,0.0,0.0,0.0,0.0,0.0,0.0,0.0,0.0,0.0,0.0,0.0,0.0,0.0,0.0,0.0,0.0,0.0,0.0,0.0,0.0,0.0,0.0,0.0,0.0,0.0,0.0,0.0,0.0,0.0,0.0,0.0,0.0,0.0,0.0,0.0,0.0,0.0,0.0,0.0,0.0,0.0,0.0,0.0,0.0,0.0,0.0,0.0,0.0,0.0,0.0,0.0,0.0,0.0,0.0,0.0,0.0,0.0,0.0,0.0,0.0,0.0,0.0,0.0,0.0,0.0,0.0,0.0,0.0,0.0,0.0,0.0,0.0,0.0,0.0,0.0,0.0,0.0,0.0,0.0,0.0,0.0,0.0,0.0,0.0,0.0,0.0,0.0,0.0,0.0,0.0,0.0,0.0,0.0,0.0,0.0,0.0,0.0,0.0,0.0,0.0,0.0,0.0,0.0,0.0,0.0,0.0,0.0,0.0,0.0,0.0,0.0,0.0,0.0,0.0,0.0,0.0,0.0,0.0,0.0,0.0,0.0,0.0,0.0,0.0,0.0,0.0,0.0,0.0,0.0,0.0,0.0,0.0,0.0,0.0,0.0,0.0,0.0,0.0,0.0,0.0,0.0,0.0,0.0,0.0,0.0,0.0,0.0,0.0,0.0,0.0,0.0,0.0,0.0,0.0,0.0,0.0,0.0,0.0,0.0,0.0,0.0,0.0,0.0,0.0,0.0,0.0,0.0,0.0,0.0,0.0,0.0,0.0,0.0,0.0,0.0,0.0,0.0,0.0,0.0,0.0,0.0,0.0,2.4832,0.0,0.0,0.0,0.0,0.0,0.0,0.0,0.0,0.0,0.0,0.0,0.0,0.0,0.0,0.0,0.0,0.0,0.0,0.0,0.0,0.0,0.0,0.0,0.0,3.1015,3.0935,3.0831,3.0733,3.0692,3.0609,0.0,0.0,0.0,0.0,0.0,3.0156,3.0156,2.9793,2.9088,2.9468,2.9264,2.8475,2.8875,2.9418,3.0058,0.0,0.0,0.0,0.0,0.0,0.0,0.0,0.0,0.0,0.0,0.0,0.0,0.0,0.0,0.0,0.0,0.0,0.0,0.0,0.0,0.0,0.0,0.0,0.0,0.0,0.0,0.0,0.0,0.0,0.0,0.0,0.0,0.0,0.0,0.0,0.0,0.0,0.0,0.0,0.0,0.0,0.0,0.0,0.0,0.0,0.0,0.0,0.0,0.0,0.0,0.0,0.0,0.0,0.0,0.0,0.0,0.0,0.0,0.0,0.0,0.0,0.0,0.0,0.0,0.0,0.0,0.0,0.0,0.0,0.0,0.0,2.4438,0.0,0.0,0.0,0.0,0.0,0.0,0.0,0.0,0.0,0.0,0.0,0.0,0.0,0.0,0.0,0.0,0.0,0.0,0.0,0.0,0.0,3.1016,3.1038,3.1015,3.0975,3.0912,3.0831,3.0733,3.0692,3.0609,3.051,3.0526,3.0526,3.03,2.981,2.9793,2.9332,2.8352,2.8255,2.8027,2.7625,2.7625,2.821,0.0,2.9894,0.0,0.0,0.0,0.0,0.0,0.0,0.0,0.0,0.0,0.0,0.0,0.0,0.0,0.0,0.0,0.0,0.0,0.0,0.0,0.0,0.0,0.0,0.0,0.0,0.0,0.0,0.0,0.0,0.0,0.0,0.0,0.0,0.0,0.0,0.0,0.0,0.0,0.0,0.0,0.0,0.0,0.0,0.0,0.0,0.0,0.0,0.0,0.0,0.0,0.0,0.0,0.0,0.0,0.0,0.0,0.0,0.0,0.0,0.0,0.0,0.0,0.0,0.0,2.1566,2.1043,1.9895,1.9895,1.9602,1.9219,2.2157,2.3686,2.4034,0.0,0.0,0.0,0.0,0.0,0.0,0.0,0.0,0.0,0.0,0.0,0.0,0.0,0.0,0.0,0.0,0.0,0.0,0.0,0.0,3.0497,3.1123,3.119,3.1112,3.0975,3.0975,3.0895,3.0692,3.0692,3.0609,3.0526,3.0526,3.03,2.981,2.9793,2.9377,2.8463,2.8057,2.7825,2.779,2.7625,0.0,2.791,2.8547,2.9107,0.0,0.0,0.0,0.0,0.0,0.0,0.0,0.0,0.0,0.0,0.0,0.0,0.0,0.0,0.0,0.0,0.0,0.0,0.0,0.0,0.0,0.0,0.0,0.0,0.0,0.0,0.0,0.0,0.0,0.0,0.0,0.0,0.0,0.0,0.0,0.0,0.0,0.0,0.0,0.0,0.0,0.0,2.5587,2.5524,0.0,0.0,0.0,0.0,0.0,0.0,0.0,0.0,0.0,0.0,0.0,0.0,0.0,2.1218,2.1151,2.1855,2.1838,2.0966,2.1728,2.1685,2.0834,2.0834,2.1009,2.1373,2.103,0.0,2.0492,2.0244,0.0,0.0,0.0,0.0,0.0,0.0,0.0,0.0,0.0,0.0,0.0,0.0,0.0,0.0,0.0,0.0,0.0,0.0,0.0,0.0,0.0,3.1113,3.1389,3.1134,3.1235,3.1048,3.0291,3.0139,2.9852,2.9413,2.9357,2.9157,2.8786,2.9108,2.9066,2.8591,2.8122,2.7905,2.7905,0.0,0.0,0.0,2.783,2.8071,2.7919,0.0,0.0,0.0,0.0,0.0,0.0,0.0,0.0,0.0,0.0,0.0,0.0,0.0,0.0,0.0,0.0,0.0,0.0,0.0,0.0,0.0,0.0,0.0,0.0,0.0,0.0,0.0,0.0,0.0,0.0,0.0,0.0,0.0,0.0,0.0,0.0,0.0,0.0,0.0,0.0,2.534,2.5166,2.4671,2.418,2.3505,0.0,0.0,0.0,0.0,0.0,0.0,0.0,0.0,0.0,2.0904,2.0928,2.0693,2.0139,2.03,2.019,1.9839,2.0244,2.0004,1.9304,1.9304,1.9201,1.901,1.8621,1.8358,1.8271,1.9339,1.964,1.9323,0.0,0.0,0.0,0.0,1.9507,1.9507,0.0,0.0,0.0,0.0,0.0,0.0,0.0,0.0,0.0,0.0,0.0,0.0,3.0345,3.1086,3.1449,3.123,3.1389,3.1049,2.9977,2.975,2.9315,2.8543,2.845,2.8192,2.7747,2.8359,2.8796,2.8998,2.8698,2.8571,0.0,0.0,0.0,0.0,0.0,0.0,0.0,0.0,0.0,0.0,0.0,0.0,0.0,0.0,0.0,0.0,0.0,0.0,0.0,0.0,0.0,0.0,0.0,0.0,0.0,0.0,0.0,0.0,0.0,0.0,0.0,0.0,0.0,0.0,0.0,0.0,0.0,0.0,0.0,0.0,0.0,0.0,0.0,0.0,0.0,0.0,0.0,2.4816,2.4818,2.3979,2.3654,2.317,0.0,0.0,0.0,0.0,0.0,0.0,2.1116,2.1059,2.1098,2.1177,2.1032,2.0615,1.9988,1.9737,1.9425,1.9219,1.9107,1.8714,1.8033,1.8033,1.7764,1.7211,1.7101,1.7055,1.7153,1.8616,1.8901,1.8462,1.8692,1.8713,1.8602,1.8816,1.8883,1.8941,0.0,0.0,0.0,0.0,0.0,0.0,0.0,0.0,0.0,0.0,0.0,2.9583,3.0987,3.1213,3.123,3.119,3.123,3.0852,2.9955,2.9844,2.941,2.8543,2.845,2.7963,2.7078,2.7705,2.8611,2.9829,0.0,0.0,0.0,0.0,0.0,0.0,0.0,0.0,0.0,0.0,0.0,0.0,0.0,0.0,0.0,0.0,0.0,0.0,0.0,0.0,0.0,0.0,0.0,0.0,0.0,0.0,0.0,0.0,0.0,0.0,0.0,0.0,0.0,0.0,0.0,0.0,0.0,0.0,0.0,0.0,0.0,0.0,0.0,0.0,0.0,0.0,0.0,0.0,0.0,0.0,0.0,2.3579,2.3306,0.0,0.0,0.0,0.0,2.0322,2.1015,2.1124,2.0338,2.0267,2.0277,2.0298,2.072,2.0937,2.0947,2.1,2.0686,1.985,1.9438,1.8835,1.8064,1.8064,1.8064,1.8036,1.7642,1.7468,1.7468,1.7558,1.7398,1.7051,1.7834,1.7889,1.7673,1.8383,1.8603,1.8685,0.0,0.0,0.0,0.0,0.0,0.0,0.0,2.686,2.6894,2.7435,2.8366,2.9178,2.9719,3.081,3.1411,3.123,3.1389,3.0899,2.9394,2.9215,2.8565,2.7286,2.72,2.7342,2.7721,2.8257,2.8996,3.0021,0.0,0.0,0.0,0.0,0.0,0.0,0.0,0.0,0.0,0.0,0.0,0.0,0.0,0.0,0.0,0.0,0.0,0.0,0.0,0.0,0.0,0.0,0.0,0.0,0.0,0.0,0.0,0.0,0.0,0.0,0.0,0.0,0.0,0.0,0.0,0.0,0.0,0.0,0.0,0.0,0.0,0.0,0.0,0.0,0.0,0.0,0.0,0.0,0.0,0.0,0.0,2.349,2.3091,0.0,2.2298,2.2128,2.1776,2.1069,2.1322,2.1188,2.0379,2.0308,2.0094,1.9673,1.9563,1.9288,1.8783,1.8524,1.8024,1.7288,1.7144,1.6651,1.5858,1.5858,1.5858,1.5858,1.5715,1.5656,1.5673,1.5926,1.6393,1.6936,1.7229,1.7248,1.7119,1.7399,1.7539,1.7511,0.0,0.0,0.0,0.0,2.6691,2.6691,2.6691,2.6691,2.6877,2.7402,2.8349,2.9214,2.9668,3.0793,3.1487,3.1389,3.1322,3.0673,2.9242,2.8812,2.7992,2.6605,2.6597,2.7171,2.8329,2.8642,2.9312,0.0,0.0,0.0,0.0,0.0,0.0,0.0,0.0,0.0,0.0,0.0,0.0,0.0,0.0,0.0,2.4327,0.0,0.0,0.0,0.0,0.0,0.0,0.0,0.0,0.0,0.0,0.0,0.0,0.0,0.0,0.0,0.0,0.0,0.0,0.0,0.0,0.0,0.0,0.0,0.0,0.0,0.0,0.0,0.0,0.0,0.0,0.0,0.0,0.0,0.0,0.0,2.3879,2.3248,2.3025,2.2834,2.2476,2.207,2.1553,2.0941,2.0822,2.04,1.9673,1.9611,1.9311,1.8516,1.8253,1.7751,1.6949,1.6508,1.6093,1.5593,1.5459,1.5108,1.4601,1.4601,1.4601,1.4601,1.4601,1.4601,1.4625,1.4863,1.5402,1.6211,1.6697,1.7008,1.7101,1.7101,1.7101,1.7092,0.0,0.0,0.0,2.6691,2.6691,2.6691,2.6691,2.6691,2.7232,2.8738,2.8958,2.957,3.1026,3.1213,3.1351,3.166,3.0971,3.0213,2.9523,2.8663,2.7725,2.6673,2.6833,2.7507,2.879,2.892,0.0,0.0,0.0,0.0,0.0,0.0,0.0,0.0,0.0,0.0,0.0,0.0,0.0,0.0,0.0,0.0,2.4909,0.0,0.0,0.0,0.0,0.0,0.0,0.0,0.0,0.0,0.0,0.0,0.0,0.0,0.0,0.0,0.0,0.0,0.0,0.0,0.0,0.0,0.0,0.0,0.0,0.0,0.0,0.0,0.0,0.0,0.0,0.0,0.0,0.0,2.3452,2.3766,2.3712,2.2819,2.3112,2.2979,2.1996,2.1675,2.1043,1.9689,1.9433,1.8956,1.81,1.81,1.7719,1.7018,1.6942,1.6556,1.5771,1.5375,1.5208,1.5125,1.4776,1.453,1.453,1.453,1.453,1.453,1.453,1.453,1.453,1.453,1.453,1.4745,1.6345,1.7155,1.7477,1.7477,1.7468,1.7403,0.0,0.0,2.6691,2.6691,2.6691,2.6691,2.6691,2.6691,2.7046,2.801,2.8636,2.9459,3.0636,3.1256,3.147,3.1272,3.0837,3.0024,2.873,2.8186,2.7792,2.7467,2.7494,2.8052,2.9204,0.0,0.0,0.0,0.0,0.0,0.0,0.0,0.0,0.0,0.0,0.0,0.0,0.0,0.0,0.0,0.0,0.0,2.4949,0.0,0.0,0.0,0.0,0.0,0.0,0.0,0.0,0.0,0.0,0.0,0.0,0.0,0.0,0.0,0.0,0.0,0.0,0.0,0.0,0.0,0.0,0.0,0.0,0.0,0.0,0.0,0.0,0.0,0.0,0.0,0.0,2.3034,2.3391,2.3514,2.349,2.3234,2.2674,2.2147,2.1742,2.1349,2.061,1.9483,1.9315,1.8831,1.7751,1.7669,1.7162,1.616,1.6143,1.5774,1.4968,1.48,1.4462,1.396,1.3863,1.3528,1.2952,1.2952,1.2952,1.2952,1.2952,1.2952,1.2952,1.2952,1.331,1.3985,1.5555,1.6225,1.6342,1.6854,1.689,1.6624,0.0,2.6691,2.6691,2.6691,2.6691,2.6691,2.6691,2.6691,2.7148,2.8339,2.8629,2.9368,3.1098,3.1081,3.1028,3.1306,3.0429,2.9499,2.8612,2.8083,2.7789,2.7789,2.8361,2.9009,0.0,0.0,0.0,0.0,0.0,0.0,0.0,0.0,0.0,0.0,0.0,0.0,0.0,0.0,0.0,0.0,0.0,0.0,2.5654,2.5084,2.4681,2.4392,2.3829,2.3604,2.3453,2.3121,0.0,0.0,0.0,0.0,0.0,0.0,0.0,0.0,0.0,0.0,0.0,0.0,0.0,0.0,0.0,0.0,0.0,0.0,0.0,0.0,0.0,0.0,0.0,0.0,2.2247,2.243,2.2743,2.2947,2.3089,2.3112,2.233,2.1643,2.1369,2.0492,1.9679,1.8842,1.8508,1.7977,1.7266,1.7248,1.6785,1.5842,1.5471,1.4895,1.4178,1.381,1.3455,1.3025,1.3025,1.2732,1.2305,1.2305,1.2305,0.0,1.2305,1.2305,1.2305,1.2305,1.2517,0.0,0.0,0.0,0.0,0.0,1.6257,1.6056,0.0,2.6691,2.6691,2.6691,2.6691,2.6691,2.6691,2.6691,2.7318,2.911,2.8747,2.9261,3.1825,3.0808,3.0339,3.1296,2.9814,2.8794,2.8798,2.8218,2.7927,2.8026,2.9465,0.0,0.0,0.0,0.0,0.0,0.0,0.0,0.0,0.0,0.0,0.0,0.0,0.0,0.0,0.0,0.0,0.0,0.0,0.0,2.6621,2.6112,2.5922,2.5817,2.5345,2.4633,2.3865,2.374,0.0,0.0,0.0,0.0,0.0,0.0,0.0,0.0,0.0,0.0,0.0,0.0,0.0,0.0,0.0,0.0,0.0,0.0,0.0,0.0,0.0,0.0,0.0,0.0,2.1222,2.1827,2.1912,2.2262,2.2556,2.2603,2.1911,2.121,2.0706,1.9438,1.8389,1.793,1.7304,1.6908,1.6908,0.0,0.0,0.0,0.0,1.4386,1.36,1.2813,1.2445,1.2445,1.2372,1.2305,1.2305,1.2372,1.2445,1.2445,1.2519,1.2519,1.2445,1.2412,1.2157,1.1888,1.2649,1.3823,1.5179,1.5492,1.5597,1.5625,0.0,2.6691,2.6691,2.6691,2.6691,2.6691,2.6691,2.6691,2.7131,2.8354,2.842,2.896,3.0667,3.0556,3.0332,3.0152,2.9378,2.8624,2.8049,0.0,2.863,0.0,0.0,0.0,0.0,0.0,0.0,0.0,0.0,0.0,0.0,0.0,0.0,0.0,0.0,0.0,0.0,0.0,0.0,0.0,0.0,0.0,2.6661,2.6556,2.6218,2.5842,2.5675,2.5856,2.5936,2.5103,2.5026,2.5062,2.374,0.0,0.0,0.0,0.0,0.0,0.0,0.0,0.0,0.0,0.0,0.0,0.0,0.0,0.0,0.0,0.0,0.0,0.0,0.0,0.0,2.0934,2.1215,2.147,2.1858,2.1636,2.162,2.2007,2.1096,2.0138,1.9446,1.863,1.7861,1.7176,1.6968,1.6908,1.6908,1.6908,1.6551,1.5833,1.5613,1.5188,1.4386,1.3673,1.3244,1.3244,0.0,0.0,1.2298,1.2952,1.3244,1.3317,1.389,1.3818,1.3222,1.2963,1.2326,1.1579,1.2387,1.3538,1.481,1.4863,1.504,1.5212,0.0,2.6691,2.6691,2.6691,2.6691,2.6691,2.6691,2.6691,2.708,2.8197,2.8149,2.864,3.0309,2.993,2.9602,2.9789,2.9372,2.8886,0.0,0.0,0.0,0.0,0.0,0.0,0.0,0.0,0.0,0.0,0.0,0.0,0.0,0.0,0.0,0.0,0.0,0.0,0.0,0.0,0.0,0.0,0.0,0.0,2.7728,2.7288,2.6922,2.6674,2.6674,2.6674,2.6621,2.6078,2.5846,2.5743,2.4925,2.4493,2.4077,0.0,0.0,0.0,0.0,0.0,0.0,0.0,0.0,0.0,0.0,0.0,0.0,0.0,0.0,2.0404,2.0367,0.0,2.0217,2.071,2.0791,2.0963,2.1468,2.1319,2.1261,2.1514,2.0391,1.9375,1.9044,1.8037,1.7304,1.6908,1.6908,1.6908,1.6908,1.6908,1.676,1.6333,1.5974,1.5613,1.518,1.4466,1.4034,1.4034,1.3673,1.3455,1.3448,1.389,1.4034,1.4106,1.4458,1.4292,1.3767,1.3424,1.2984,1.2557,1.2785,1.3249,1.3938,1.4406,1.4665,1.4808,0.0,2.6758,2.6725,2.6791,2.6758,2.6725,2.6791,2.6791,2.7161,2.8152,2.7919,2.8306,2.9944,2.917,2.8771,2.9403,2.9449,0.0,0.0,0.0,0.0,0.0,0.0,0.0,0.0,0.0,0.0,0.0,0.0,0.0,0.0,0.0,0.0,0.0,0.0,0.0,0.0,0.0,0.0,0.0,0.0,0.0,2.8903,2.8036,2.7552,2.7353,2.7236,2.6896,2.6491,2.6373,2.6112,2.5785,2.5563,2.5249,2.4875,2.4246,2.3659,0.0,0.0,0.0,0.0,0.0,0.0,0.0,0.0,0.0,2.1221,2.1221,2.1152,2.0894,2.0481,2.0412,2.0412,2.0412,2.0492,2.0699,2.1164,2.1221,2.1158,2.1031,1.9835,1.8977,1.8844,1.7638,1.6908,1.6908,1.6908,1.6908,1.6908,1.6908,1.6908,1.6908,1.6333,1.5974,1.5974,1.5259,1.4816,1.4816,1.4673,1.4601,1.4601,1.468,1.4719,1.4719,1.4719,1.4558,1.4207,1.3795,1.3584,1.3611,1.3381,1.3236,1.3251,1.403,1.4387,1.4515,0.0,2.6891,2.6791,2.7085,2.6891,2.6791,2.7085,2.7149,2.731,2.7717,2.7724,2.7986,2.8719,2.8434,2.8192,2.8282,2.9179,0.0,0.0,0.0,0.0,0.0,0.0,0.0,0.0,0.0,0.0,0.0,0.0,0.0,0.0,0.0,0.0,0.0,0.0,0.0,0.0,0.0,0.0,0.0,0.0,0.0,2.9771,2.8697,2.7696,2.67,2.619,2.5968,2.5837,2.5328,2.5458,2.5641,2.4635,2.4609,2.4797,2.3812,0.0,2.2543,2.2063,2.2002,0.0,2.2543,2.2237,2.1877,0.0,0.0,2.1221,2.1221,2.0802,2.0481,2.0423,2.0412,2.0412,2.0412,2.0791,2.1164,2.1221,2.1221,2.0955,2.0302,1.9507,1.8777,1.8172,1.7373,1.6908,1.6908,1.6908,1.6908,1.6908,1.6908,1.6908,1.6908,1.6839,1.6769,1.6769,1.6044,1.5692,1.5692,1.4966,1.4601,1.4593,1.4997,1.5138,1.5138,1.5138,1.5172,1.5095,1.4055,1.3584,1.3611,1.3894,1.3933,1.3765,1.3648,1.401,1.4515,0.0,0.0,2.7382,2.7678,2.7303,2.7053,2.7181,2.7369,2.7461,2.743,2.7725,2.8037,2.8299,2.8352,2.8396,2.8396,0.0,0.0,0.0,0.0,0.0,0.0,0.0,0.0,0.0,0.0,0.0,0.0,0.0,0.0,0.0,0.0,0.0,0.0,0.0,0.0,0.0,0.0,0.0,0.0,0.0,0.0,3.0003,2.8943,2.7607,2.6311,2.5748,2.545,0.0,0.0,2.5132,2.5249,2.4766,2.4557,2.4301,2.3528,2.3103,0.0,2.3157,0.0,0.0,0.0,2.2652,2.2259,2.1963,2.1568,2.1314,2.1548,2.1204,2.094,2.1238,2.1043,2.0848,0.0,2.102,2.1221,2.1221,2.1221,2.0955,2.0161,1.9802,1.9208,1.8104,1.7304,1.6908,1.6908,1.6908,1.6908,1.6908,1.6908,1.6908,1.6908,1.6908,1.7107,1.7579,1.7217,1.707,1.707,1.6706,1.6251,1.5566,1.5769,1.5833,1.5806,1.5352,1.5467,1.6021,1.5278,1.5369,1.598,1.5804,1.5917,1.5966,1.4851,1.4457,1.4515,0.0,0.0,0.0,2.8047,2.7736,2.7444,2.7444,2.7636,2.7725,2.7487,2.7823,2.8102,2.8102,2.8396,2.8587,2.8587,0.0,0.0,0.0,0.0,0.0,0.0,0.0,0.0,0.0,0.0,0.0,0.0,0.0,0.0,0.0,0.0,0.0,0.0,0.0,0.0,0.0,0.0,0.0,0.0,0.0,0.0,3.0357,2.8946,2.753,2.6269,2.5377,2.4829,0.0,0.0,2.4184,2.4275,2.406,2.3851,2.3563,2.3119,2.2981,2.3075,2.3515,0.0,0.0,2.322,2.2973,2.2457,2.1993,2.1614,2.1452,2.164,2.1422,2.1273,2.1652,2.141,0.0,2.1221,2.1221,2.1221,2.1221,2.1221,2.0944,2.0213,2.0117,1.9617,1.8365,1.7617,1.7181,1.7181,1.7181,1.7181,1.7181,1.7357,1.7486,1.7489,1.7489,1.7735,1.824,1.8307,1.8307,1.8307,1.8307,1.788,1.7121,1.7006,1.6949,1.6854,1.6237,1.6461,1.7214,1.6822,1.7133,1.7823,1.7347,1.7305,1.7399,1.6101,1.5371,1.5001,0.0,0.0,0.0,0.0,2.8084,2.8057,2.8057,2.8075,2.8075,2.8057,2.8102,2.8102,2.8102,2.8396,2.8587,0.0,0.0,0.0,0.0,3.1745,0.0,0.0,0.0,0.0,0.0,0.0,0.0,0.0,0.0,0.0,0.0,0.0,0.0,0.0,0.0,0.0,0.0,0.0,0.0,0.0,0.0,0.0,3.1113,2.8743,2.7524,2.6836,2.5003,0.0,0.0,0.0,2.1982,2.2402,2.1786,2.2008,0.0,2.2439,2.2472,0.0,0.0,0.0,2.2713,2.3283,2.3017,2.2482,2.2025,2.1889,2.1765,2.1308,2.1244,2.1233,2.1244,2.1244,2.1221,2.1221,2.1221,2.1221,2.1221,2.1221,2.0951,2.0195,2.0109,1.9802,0.0,1.835,1.7985,1.7985,1.7985,1.7985,1.7985,1.8557,1.8942,1.8961,1.8951,1.8967,1.8977,1.8977,1.8977,1.8977,1.8977,1.9034,1.9201,1.8795,1.8521,1.833,1.8309,1.8557,1.8895,1.8485,1.8363,1.8331,1.7833,1.7469,1.7095,1.6935,1.6567,1.6193,0.0,0.0,0.0,0.0,0.0,2.8422,2.8422,2.8422,2.8352,2.8129,2.8281,0.0,0.0,0.0,0.0,0.0,0.0,0.0,0.0,3.0948,0.0,0.0,0.0,0.0,0.0,0.0,0.0,0.0,0.0,0.0,0.0,0.0,0.0,0.0,0.0,0.0,0.0,0.0,0.0,0.0,0.0,0.0,3.1083,2.9213,2.7718,2.6296,0.0,0.0,0.0,0.0,0.0,0.0,2.1564,0.0,0.0,2.2269,2.2122,2.2117,0.0,0.0,2.3147,2.3733,2.3462,2.3105,2.2896,2.2627,2.2407,2.2594,2.2139,2.1745,2.2121,2.1886,2.1686,2.1689,2.1686,2.153,2.1198,2.1123,2.0962,2.0767,2.0669,0.0,0.0,0.0,0.0,1.8626,1.8646,1.8675,1.8687,1.8873,1.9014,1.9027,1.9017,1.9246,1.9704,1.9704,1.9704,1.9694,1.8984,1.8633,1.8687,1.8291,1.8302,1.8564,1.8333,1.8658,1.9371,1.8559,1.8671,1.9155,1.8333,1.8111,1.8269,1.7811,1.759,1.7379,0.0,0.0,0.0,0.0,0.0,0.0,0.0,0.0,0.0,0.0,0.0,0.0,0.0,0.0,0.0,0.0,0.0,0.0,0.0,0.0,0.0,0.0,0.0,0.0,0.0,0.0,0.0,0.0,0.0,0.0,0.0,0.0,0.0,0.0,0.0,0.0,0.0,0.0,0.0,0.0,0.0,0.0,2.9801,2.8292,2.6884,0.0,0.0,0.0,0.0,0.0,0.0,0.0,0.0,2.2083,2.2167,2.2591,2.2391,2.2361,0.0,2.3668,2.3605,2.3974,2.3885,2.3611,2.3467,2.3132,2.291,2.3071,2.2615,2.2221,2.2381,2.2265,2.2073,2.1961,2.2063,2.2051,2.1666,2.1429,2.1315,2.1342,2.1271,0.0,0.0,0.0,0.0,1.9967,1.9744,1.9762,1.9889,2.0031,2.0085,2.0302,2.0298,2.049,2.0978,2.0996,2.0921,2.0816,2.0369,2.0064,1.9876,1.9812,1.9845,2.0013,1.9823,1.9851,2.0086,1.9666,1.9727,2.0041,1.9183,1.8931,1.9121,1.8959,1.867,1.817,0.0,0.0,0.0,0.0,0.0,0.0,0.0,0.0,0.0,0.0,0.0,0.0,0.0,0.0,0.0,0.0,0.0,0.0,0.0,0.0,0.0,0.0,0.0,0.0,0.0,0.0,0.0,0.0,0.0,0.0,0.0,0.0,0.0,0.0,0.0,0.0,0.0,0.0,0.0,0.0,0.0,0.0,2.7711,2.6213,0.0,0.0,0.0,0.0,0.0,0.0,0.0,0.0,0.0,0.0,2.3251,2.3278,2.3299,2.328,2.3306,2.3738,2.4112,2.4112,2.4112,2.3995,2.3522,2.3463,2.3271,2.2786,2.2665,2.2518,0.0,0.0,2.2493,2.2067,2.2372,2.2653,2.257,2.2147,2.1849,0.0,0.0,0.0,0.0,0.0,0.0,2.1757,0.0,2.1089,2.1626,2.1863,2.2135,2.2555,2.2579,2.258,2.2591,2.2592,2.2494,2.2247,2.2919,2.3015,2.2604,2.3075,2.2967,2.2433,2.2543,2.2019,2.114,2.1581,2.144,2.0925,2.0361,1.9922,1.9591,2.0098,1.9685,1.8762,0.0,0.0,0.0,0.0,0.0,0.0,0.0,0.0,0.0,0.0,0.0,0.0,0.0,0.0,0.0,0.0,0.0,0.0,0.0,0.0,0.0,0.0,0.0,0.0,0.0,0.0,0.0,0.0,0.0,0.0,0.0,0.0,0.0,0.0,0.0,0.0,0.0,0.0,0.0,0.0,0.0,0.0,2.8579,0.0,0.0,0.0,0.0,0.0,0.0,0.0,0.0,0.0,0.0,0.0,2.3951,2.4545,0.0,2.4557,2.4527,2.4657,2.4677,2.4229,2.4112,2.4054,2.3936,2.3936,2.3878,2.3734,2.3416,2.315,0.0,0.0,0.0,2.303,2.313,0.0,2.2658,2.2464,0.0,0.0,0.0,2.2565,2.3431,2.3251,0.0,0.0,2.2658,2.2189,2.2369,2.2384,2.2476,2.2586,2.2605,2.2586,2.258,2.2603,2.2554,2.2506,2.2688,2.2713,2.2592,2.2713,2.2775,2.2751,2.2812,2.2687,2.233,2.1708,2.1514,2.1485,2.0146,1.9809,2.0098,2.0274,2.0133,1.9939,0.0,0.0,0.0,0.0,0.0,0.0,0.0,0.0,0.0,0.0,0.0,0.0,0.0,0.0,0.0,0.0,0.0,0.0,0.0,0.0,0.0,0.0,0.0,0.0,0.0,0.0,0.0,0.0,0.0,0.0,0.0,0.0,0.0,0.0,0.0,0.0,0.0,0.0,0.0,0.0,0.0,0.0,0.0,0.0,0.0,0.0,0.0,0.0,0.0,0.0,0.0,2.5967,2.6191,2.5988,2.5692,2.5882,0.0,2.5348,2.5329,2.537,2.5258,2.4935,2.4664,2.4505,2.4505,2.4287,2.4028,2.3735,2.3708,0.0,0.0,0.0,0.0,0.0,0.0,0.0,2.3282,2.3211,2.323,0.0,2.3447,0.0,2.4424,2.4432,2.4458,0.0,2.3696,2.3018,2.3231,2.3081,2.3076,2.3282,2.3282,2.3267,2.3292,2.3242,2.3179,2.3056,2.328,2.3368,2.3273,2.3361,2.3374,2.3273,0.0,2.2786,2.2268,2.166,2.1386,2.1281,2.0345,2.0064,2.0195,2.0658,2.0542,2.0323,0.0,0.0,0.0,0.0,0.0,0.0,0.0,0.0,0.0,0.0,2.8659,0.0,0.0,0.0,0.0,0.0,0.0,0.0,0.0,0.0,0.0,0.0,0.0,0.0,0.0,0.0,0.0,0.0,0.0,0.0,0.0,0.0,0.0,0.0,0.0,0.0,0.0,0.0,0.0,0.0,0.0,0.0,0.0,0.0,0.0,0.0,0.0,0.0,0.0,0.0,2.8967,2.8632,2.8915,2.8569,2.7948,2.7336,2.6678,2.6094,2.5946,2.5906,2.5906,2.5837,2.5439,2.5102,2.5102,2.4687,2.4151,2.3625,0.0,0.0,2.2992,0.0,2.3289,2.3488,0.0,2.3515,2.4125,2.4262,2.434,2.4341,2.4771,2.5091,2.5091,2.5524,2.5832,2.5832,2.4523,2.3909,2.4308,2.393,2.3917,2.4334,2.4334,2.4334,2.4334,2.4334,2.4151,2.3917,2.4432,2.4577,2.4307,2.4589,2.4394,2.3923,0.0,0.0,2.1914,2.1766,2.1485,2.1144,2.0908,2.059,2.0425,2.1199,2.094,2.0425,0.0,0.0,0.0,0.0,0.0,0.0,0.0,0.0,0.0,0.0,2.9011,2.8587,0.0,0.0,0.0,0.0,0.0,0.0,0.0,0.0,0.0,0.0,0.0,0.0,0.0,0.0,0.0,0.0,0.0,0.0,0.0,0.0,0.0,0.0,0.0,0.0,0.0,0.0,0.0,0.0,0.0,0.0,0.0,0.0,0.0,0.0,0.0,0.0,0.0,0.0,2.9959,2.999,3.0149,3.0022,2.9673,2.8682,2.8143,2.7685,2.6759,2.6563,2.6404,2.5906,2.5758,2.566,2.566,2.5581,0.0,0.0,0.0,2.4779,2.4582,2.382,0.0,2.3906,0.0,0.0,0.0,0.0,2.5488,0.0,0.0,0.0,0.0,0.0,0.0,0.0,0.0,2.5418,2.5526,2.5437,2.5423,2.5522,2.5522,2.5522,2.5522,2.5522,2.545,2.5423,2.5536,2.5563,2.5504,2.5567,2.5244,2.4694,2.4718,0.0,2.3566,2.3115,2.3158,2.3367,2.1917,2.1603,2.1968,2.1628,2.1407,2.142,0.0,0.0,0.0,0.0,0.0,0.0,0.0,2.9228,2.9518,3.0314,3.0079,2.9699,2.9264,2.8866,2.8826,0.0,0.0,0.0,0.0,0.0,0.0,0.0,0.0,0.0,0.0,0.0,0.0,0.0,0.0,0.0,0.0,0.0,0.0,0.0,0.0,0.0,0.0,0.0,0.0,0.0,0.0,0.0,0.0,0.0,0.0,0.0,0.0,0.0,0.0,0.0,3.1043,3.1181,3.1051,3.0926,3.0604,2.9515,2.8967,2.8666,2.8143,2.7981,2.7834,2.7259,2.6886,2.6606,2.6304,0.0,0.0,0.0,0.0,2.5356,2.507,0.0,0.0,0.0,0.0,0.0,0.0,0.0,0.0,0.0,0.0,0.0,0.0,0.0,0.0,0.0,0.0,2.6711,2.5821,2.5781,2.5781,2.5781,2.5781,2.5781,2.5781,2.5781,2.5781,2.5781,2.5781,2.5781,2.5781,2.5781,2.5661,2.5343,2.5078,0.0,2.445,2.3541,2.3366,2.3514,2.2259,2.2023,2.2297,2.1914,2.1821,2.1872,0.0,0.0,0.0,0.0,0.0,0.0,2.9663,2.9816,3.0133,3.1129,3.1093,3.0749,3.0115,2.9337,2.9178,0.0,0.0,0.0,0.0,0.0,0.0,0.0,0.0,0.0,0.0,0.0,0.0,0.0,0.0,0.0,0.0,0.0,0.0,0.0,0.0,0.0,0.0,0.0,0.0,0.0,0.0,0.0,0.0,0.0,0.0,0.0,0.0,0.0,0.0,0.0,3.1765,3.1848,3.1648,3.1534,3.1244,3.0097,2.9566,2.9327,2.9273,2.9182,2.9045,2.8591,2.8155,2.772,2.717,2.6648,0.0,0.0,0.0,0.0,0.0,0.0,0.0,0.0,0.0,0.0,0.0,0.0,0.0,0.0,0.0,0.0,0.0,0.0,0.0,0.0,0.0,0.0,2.6562,2.6423,2.6344,2.6344,2.6235,2.6205,2.6205,2.6205,2.6205,2.6205,2.6205,2.6205,2.6205,2.6205,2.6117,2.5965,2.5553,0.0,0.0,2.3955,2.3497,2.3492,2.2616,2.2366,2.2406,2.2206,2.2101,2.2097,0.0,0.0,0.0,0.0,0.0,0.0,2.9663,2.9816,3.0333,3.189,3.1437,3.0966,3.0894,3.0152,2.9743,0.0,0.0,0.0,0.0,0.0,0.0,0.0,0.0,0.0,0.0,0.0,0.0,0.0,0.0,0.0,0.0,0.0,0.0,0.0,0.0,0.0,0.0,0.0,0.0,0.0,0.0,0.0,0.0,0.0,0.0,0.0,0.0,0.0,0.0,0.0,0.0,3.1636,3.1745,3.1891,3.1783,3.0582,0.0,0.0,2.9451,2.9278,2.9187,2.914,2.9053,2.89,2.8283,0.0,0.0,0.0,2.6973,2.6621,0.0,0.0,0.0,0.0,0.0,0.0,0.0,0.0,0.0,0.0,0.0,0.0,0.0,0.0,0.0,0.0,0.0,0.0,2.8778,2.8314,2.8047,2.8047,2.7655,2.7419,2.7419,2.7419,2.7419,2.7419,2.7419,2.7419,2.7419,2.7419,2.7083,2.6535,2.6539,0.0,0.0,2.4961,2.4738,2.4643,2.3388,2.2929,2.2848,2.2301,2.2101,2.2155,0.0,0.0,0.0,0.0,0.0,0.0,2.9663,3.0206,3.0912,3.2053,3.2343,3.2071,3.1093,3.0695,3.0314,2.9826,0.0,0.0,0.0,0.0,0.0,0.0,0.0,0.0,0.0,0.0,0.0,0.0,0.0,0.0,0.0,0.0,0.0,0.0,0.0,0.0,0.0,0.0,0.0,0.0,0.0,0.0,0.0,0.0,0.0,0.0,0.0,0.0,0.0,0.0,0.0,0.0,3.1476,3.1453,0.0,0.0,3.0651,3.0518,3.0351,3.0281,3.0147,2.9772,2.9665,2.9416,2.8398,0.0,0.0,2.7996,2.8011,2.8151,2.8151,0.0,0.0,0.0,0.0,0.0,0.0,0.0,0.0,0.0,0.0,0.0,0.0,0.0,0.0,0.0,0.0,0.0,2.991,2.9175,2.8795,2.8758,2.8617,2.8505,2.8505,2.8505,2.8364,2.8017,2.8017,2.7876,2.7625,2.7625,2.7434,2.7199,2.7211,0.0,0.0,2.5734,2.5369,2.5269,2.3906,2.3416,2.3493,2.3576,2.3604,2.3665,0.0,0.0,0.0,0.0,0.0,2.8956,2.9989,3.0423,3.1021,3.2053,3.2488,3.2162,3.0785,3.064,3.0314,2.9518,3.017,0.0,0.0,0.0,0.0,0.0,0.0,0.0,0.0,0.0,0.0,3.3259,0.0,0.0,0.0,0.0,0.0,0.0,0.0,0.0,0.0,0.0,0.0,0.0,0.0,0.0,0.0,0.0,0.0,0.0,0.0,0.0,0.0,0.0,0.0,0.0,0.0,0.0,0.0,0.0,3.1036,3.0938,3.1059,3.1036,3.0773,3.0118,3.0103,2.9921,0.0,0.0,0.0,2.8478,2.8744,2.9074,2.9074,2.9074,0.0,0.0,0.0,0.0,0.0,0.0,0.0,0.0,0.0,0.0,0.0,0.0,0.0,0.0,0.0,0.0,0.0,3.0087,2.9708,2.9296,2.9185,2.9091,2.9091,2.9327,2.9213,2.8836,2.8867,2.8695,2.8388,2.8369,2.8244,2.8057,0.0,0.0,0.0,2.6351,2.5804,2.5591,2.4567,2.4267,2.4403,2.479,2.4912,2.4901,0.0,0.0,0.0,0.0,0.0,0.0,3.0731,3.0314,3.0369,3.1981,3.151,3.0713,2.9906,2.9789,2.9481,2.8677,2.9355,0.0,0.0,0.0,0.0,0.0,0.0,0.0,0.0,0.0,3.218,3.2411,3.2929,3.3099,0.0,0.0,0.0,0.0,0.0,0.0,0.0,0.0,0.0,0.0,0.0,0.0,0.0,0.0,0.0,0.0,0.0,0.0,0.0,0.0,0.0,0.0,0.0,0.0,0.0,0.0,3.1194,3.1002,3.1484,3.1291,3.0828,2.9981,3.0342,3.0499,0.0,0.0,0.0,2.9182,2.9098,2.9074,2.9074,2.9074,2.9074,2.9058,2.8874,0.0,0.0,0.0,0.0,0.0,0.0,0.0,0.0,0.0,0.0,0.0,0.0,0.0,0.0,3.1175,3.1033,2.9856,2.9344,2.9081,2.9081,2.9798,3.0168,3.0165,3.0196,3.0158,3.0174,3.0192,2.9782,0.0,0.0,0.0,0.0,2.6773,2.6194,2.56,2.56,2.5585,2.56,2.5615,2.5608,2.5604,0.0,0.0,0.0,0.0,0.0,0.0,2.9282,2.9608,2.997,3.0477,3.0803,3.0677,2.988,2.9816,2.9481,2.8659,2.9337,0.0,0.0,0.0,0.0,0.0,0.0,0.0,0.0,0.0,3.158,3.218,3.2871,3.3099,3.2916,3.2916,0.0,0.0,0.0,0.0,0.0,0.0,0.0,0.0,0.0,0.0,0.0,0.0,0.0,0.0,0.0,0.0,0.0,0.0,0.0,0.0,0.0,0.0,0.0,3.196,0.0,0.0,3.1433,3.1528,3.1559,3.0967,3.0984,3.0903,2.9943,0.0,0.0,0.0,2.9721,3.007,3.007,3.007,2.9907,2.9401,2.9222,0.0,0.0,0.0,0.0,0.0,0.0,0.0,0.0,0.0,0.0,0.0,0.0,0.0,0.0,3.1347,3.1209,3.0311,3.0609,3.0576,3.0071,3.0278,3.0228,2.9916,3.0438,3.0505,3.0176,3.0178,0.0,0.0,0.0,0.0,0.0,2.7317,2.6745,2.6481,2.5723,2.5894,2.6647,2.6718,2.6758,2.6756,0.0,0.0,0.0,0.0,0.0,0.0,2.9011,2.9228,2.9463,2.9753,2.997,2.9898,2.9391,2.9355,2.9156,2.8623,2.9021,0.0,0.0,0.0,0.0,0.0,0.0,0.0,3.1191,3.0638,3.0764,3.1624,3.2301,3.2737,3.2916,3.2916,3.2916,3.2916,0.0,0.0,0.0,0.0,0.0,0.0,0.0,0.0,3.2539,0.0,0.0,0.0,0.0,0.0,0.0,0.0,0.0,0.0,0.0,0.0,0.0,0.0,3.2406,3.2178,0.0,3.1871,3.1842,3.1255,3.1319,0.0,0.0,0.0,0.0,0.0,0.0,3.0551,3.0716,3.0593,3.0402,3.0082,3.0055,0.0,0.0,0.0,0.0,0.0,0.0,0.0,0.0,0.0,0.0,0.0,0.0,0.0,0.0,3.1766,3.1665,3.0747,3.1299,3.1266,3.0526,3.0767,3.0764,3.0477,3.1213,3.128,3.0733,3.1292,0.0,0.0,0.0,0.0,0.0,2.8516,2.7901,2.7371,2.6903,2.718,2.7857,2.7968,2.8,2.8,0.0,0.0,0.0,0.0,0.0,0.0,0.0,2.9083,2.8884,2.9608,2.9065,2.8587,2.8587,2.8587,2.8587,2.8587,2.8572,0.0,0.0,0.0,0.0,0.0,0.0,0.0,2.9674,2.95,2.983,3.0792,3.1416,3.2099,3.2916,3.2916,3.2916,3.2916,3.2916,3.2916,0.0,0.0,0.0,0.0,0.0,3.2916,0.0,0.0,0.0,0.0,0.0,0.0,0.0,0.0,0.0,0.0,0.0,0.0,0.0,0.0,0.0,0.0,0.0,3.2278,3.1865,3.1094,3.1411,3.1704,0.0,0.0,0.0,0.0,0.0,3.0699,3.1083,3.0861,3.0733,3.1151,3.1196,0.0,0.0,0.0,0.0,0.0,0.0,0.0,0.0,0.0,0.0,0.0,0.0,0.0,0.0,3.2414,3.2303,3.1181,3.151,3.1308,3.0526,3.1175,3.1532,3.1632,3.2353,3.2397,3.1775,3.3176,0.0,0.0,0.0,0.0,0.0,3.0126,2.9386,2.8307,2.8865,2.9166,2.9291,2.9182,2.9166,2.9166,0.0,0.0,0.0,0.0,0.0,0.0,0.0,0.0,0.0,0.0,2.8739,2.8587,2.8587,2.8587,2.8587,0.0,0.0,0.0,0.0,0.0,0.0,0.0,0.0,0.0,2.9472,2.9433,2.979,3.0581,3.1326,3.2099,3.2916,3.2916,3.2916,3.2916,3.2916,3.2916,0.0,0.0,0.0,0.0,3.2916,3.2916,0.0,0.0,0.0,0.0,3.2852,3.2847,0.0,0.0,0.0,0.0,0.0,0.0,0.0,0.0,3.2916,3.2898,3.2813,0.0,3.2568,3.2071,3.2074,3.2162,0.0,0.0,0.0,0.0,0.0,3.1452,3.1528,3.149,3.1641,3.2338,0.0,0.0,0.0,0.0,0.0,0.0,0.0,0.0,0.0,0.0,0.0,0.0,0.0,0.0,0.0,3.2595,3.2429,3.1585,3.2196,3.1856,3.0526,3.0684,3.1023,3.1609,3.2376,3.2907,3.3292,3.364,0.0,0.0,0.0,0.0,3.1116,3.0018,2.9714,2.9861,2.9087,2.9691,3.0882,2.996,2.9633,2.9633,0.0,0.0,0.0,0.0,0.0,0.0,0.0,0.0,0.0,0.0,2.8587,2.8587,2.8587,2.8587,2.8587,0.0,0.0,0.0,0.0,0.0,0.0,0.0,0.0,2.8852,2.8852,2.9208,2.9762,3.0511,3.1314,3.2099,3.2916,3.2916,3.2916,3.2916,3.2916,3.2916,3.2916,0.0,0.0,0.0,3.2916,0.0,0.0,0.0,0.0,0.0,3.2916,3.2916,0.0,3.2916,3.2916,3.2916,0.0,0.0,0.0,0.0,3.2916,3.2916,3.2916,3.2916,3.2852,3.2639,3.2573,3.2573,3.2573,0.0,0.0,0.0,0.0,0.0,3.1949,0.0,0.0,0.0,0.0,0.0,0.0,0.0,0.0,0.0,0.0,0.0,0.0,0.0,0.0,0.0,0.0,0.0,0.0,3.2772,3.2582,3.1985,3.2367,3.2015,3.0781,3.0781,3.1041,3.1576,3.2017,3.258,3.3292,3.364,3.4005,0.0,0.0,0.0,3.2017,3.0891,3.0477,3.0435,2.9772,3.0185,3.1031,3.0346,3.0113,3.0113,0.0,0.0,0.0,0.0,0.0,0.0,0.0,0.0,0.0,0.0,0.0,0.0,0.0,0.0,0.0,0.0,0.0,0.0,0.0,0.0,0.0,0.0,2.8182,2.8182,2.8182,2.8994,2.9762,3.0511,3.1314,3.2099,3.2916,3.2916,3.2916,3.2916,3.2916,3.2916,3.2916,3.2916,0.0,0.0,3.2916,0.0,0.0,0.0,0.0,0.0,0.0,0.0,0.0,3.2916,3.2916,3.2916,3.2916,0.0,0.0,0.0,0.0,0.0,3.2916,3.2916,3.2948,3.2916,3.2916,3.2916,0.0,0.0,0.0,0.0,0.0,0.0,0.0,0.0,0.0,0.0,0.0,0.0,0.0,0.0,0.0,0.0,0.0,0.0,0.0,0.0,0.0,0.0,0.0,0.0,0.0,3.2916,3.2737,3.2386,3.2386,3.202,3.13,3.1342,3.1544,3.1872,3.1988,3.2309,3.2878,3.3624,3.3905,0.0,0.0,0.0,3.2464,3.1752,3.1113,3.0675,3.0518,3.0593,3.0634,3.0518,3.0526,3.0526,0.0,0.0,0.0,0.0,0.0,0.0,0.0,0.0,0.0,0.0,0.0,0.0,0.0,0.0,0.0,0.0,0.0,0.0,0.0,0.0,0.0,2.8209,2.8182,2.8182,2.8182,2.8994,2.9762,3.0511,3.1314,3.2099,3.2916,3.2916,3.2916,3.2916,3.2916,3.2916,3.2916,3.2916,3.2916,3.2916,3.2916,0.0,0.0,0.0,0.0,0.0,0.0,0.0,0.0,3.2916,3.2916,3.2916,3.2916,0.0,0.0,0.0,0.0,0.0,3.2916,3.3024,3.3099,3.293,3.2916,3.2916,0.0,0.0,0.0,0.0,0.0,0.0,0.0,0.0,0.0,0.0,0.0,0.0,0.0,0.0,0.0,0.0,0.0,0.0,0.0,0.0,0.0,0.0,0.0,0.0,0.0,3.2916,3.2884,3.2802,3.2802,3.2606,3.2127,3.2444,3.2804,3.3119,3.376,3.3912,3.3657,3.4386,3.4386,0.0,0.0,3.2448,3.1735,3.0948,3.0948,3.1345,3.0716,3.0907,3.1388,3.0716,3.0526,3.0526,0.0,0.0,0.0,0.0,0.0,0.0,0.0,0.0,0.0,0.0,0.0,0.0,0.0,0.0,0.0,0.0,0.0,0.0,0.0,0.0,2.8237,2.8182,2.8182,2.8405,2.8852,2.9601,3.0368,3.1153,3.1938,3.2527,3.2898,3.2438,3.2242,3.2242,3.2242,3.2242,3.2259,3.2737,3.2916,3.2916,0.0,0.0,0.0,0.0,0.0,0.0,0.0,0.0,0.0,0.0,3.2916,3.2916,3.2916,0.0,0.0,0.0,0.0,0.0,3.3055,3.3238,3.3386,3.3298,3.3268,3.3268,0.0,0.0,0.0,0.0,0.0,0.0,0.0,0.0,0.0,0.0,0.0,0.0,0.0,0.0,0.0,0.0,0.0,0.0,0.0,0.0,0.0,0.0,0.0,0.0,0.0,0.0,3.2916,3.2916,3.2916,3.3016,3.3261,3.3459,3.3477,3.3355,3.3711,3.4216,3.4767,3.4459,3.4459,3.4734,0.0,3.2878,3.215,3.1421,3.1047,3.0948,3.0642,3.0725,3.0948,3.06,3.0526,3.0526,0.0,0.0,0.0,0.0,0.0,0.0,0.0,0.0,0.0,0.0,0.0,0.0,0.0,0.0,0.0,0.0,0.0,0.0,0.0,2.8264,2.8182,2.8182,2.8182,2.8602,2.9387,3.0118,3.0886,3.1689,3.2491,3.2916,3.2898,3.2063,3.1689,3.1689,3.1689,3.1689,3.1742,3.2545,3.2916,3.2916,0.0,0.0,0.0,0.0,0.0,0.0,0.0,0.0,0.0,0.0,0.0,0.0,0.0,0.0,0.0,3.2961,3.3099,3.328,3.328,3.3473,3.3671,3.3671,0.0,0.0,0.0,0.0,0.0,0.0,0.0,0.0,0.0,0.0,0.0,0.0,0.0,0.0,0.0,0.0,0.0,0.0,0.0,0.0,0.0,0.0,0.0,0.0,0.0,0.0,0.0,0.0,3.3169,3.3169,3.3169,3.3384,3.3812,3.4008,3.3846,3.3356,3.3543,3.4201,3.5222,3.4348,3.4437,3.5284,3.4068,3.311,3.2381,3.1669,3.1023,3.0526,3.0526,3.0526,3.0543,3.0709,3.0659,3.0501,0.0,0.0,0.0,0.0,0.0,0.0,0.0,0.0,0.0,0.0,0.0,0.0,0.0,0.0,0.0,0.0,0.0,0.0,0.0,2.8264,2.8182,2.8182,2.8182,2.8602,2.9387,3.0118,3.0886,3.1689,3.2491,3.2916,3.2898,3.2063,3.1689,3.1689,3.1689,3.1689,3.1742,3.2545,3.2916,3.2916,3.2916,0.0,0.0,0.0,0.0,0.0,0.0,0.0,0.0,0.0,0.0,0.0,0.0,0.0,3.319,3.319,3.3368,3.3559,3.3559,3.3726,3.3868,0.0,0.0,0.0,0.0,0.0,0.0,0.0,0.0,0.0,0.0,0.0,0.0,0.0,0.0,0.0,0.0,0.0,0.0,0.0,0.0,0.0,0.0,0.0,0.0,0.0,0.0,0.0,0.0,0.0,0.0,3.4008,3.4008,3.3669,3.2973,3.3723,3.3896,3.3493,3.4174,3.4387,3.4117,3.4296,3.4462,3.4523,3.3301,3.2365,3.1593,3.0907,3.0576,3.0526,3.0526,3.0526,3.0593,3.1246,3.1106,3.0626,0.0,0.0,0.0,0.0,0.0,0.0,0.0,0.0,0.0,0.0,0.0,0.0,0.0,0.0,0.0,0.0,0.0,0.0,0.0,2.8164,2.8182,2.8182,2.8182,2.8602,2.9387,3.0118,3.1135,3.2438,3.2741,3.2616,3.2135,3.1831,3.1421,3.0975,3.1474,3.1689,3.1742,3.2545,3.2916,3.2916,3.2916,3.2916,0.0,0.0,0.0,0.0,0.0,0.0,0.0,0.0,3.2916,3.2916,3.2916,3.3055,3.319,3.319,3.3484,3.3807,3.3807,3.3921,0.0,0.0,0.0,0.0,0.0,0.0,0.0,0.0,0.0,0.0,0.0,0.0,0.0,0.0,0.0,0.0,0.0,0.0,0.0,0.0,0.0,0.0,0.0,0.0,0.0,0.0,0.0,0.0,0.0,0.0,0.0,3.3553,3.3426,3.3205,3.2916,3.3187,3.3265,3.3133,3.4585,3.5206,3.5053,3.4909,3.5005,3.518,3.3977,3.2874,3.1951,3.1666,3.1116,3.0576,3.0981,3.147,3.1901,3.2183,3.21,3.1901,0.0,0.0,0.0,0.0,0.0,0.0,0.0,0.0,0.0,0.0,0.0,0.0,0.0,0.0,0.0,0.0,0.0,0.0,2.8055,2.8063,2.8081,2.82,2.8182,2.8602,2.9387,2.9886,3.0921,3.2509,3.2791,3.2474,3.1689,3.1689,3.126,3.0547,3.1332,3.1689,3.1742,3.2545,3.2916,3.2916,3.2916,3.2916,0.0,0.0,0.0,0.0,0.0,0.0,0.0,0.0,3.2916,3.2916,3.2916,3.3086,3.3327,3.3327,3.3634,3.3998,3.3998,3.4099,0.0,0.0,0.0,0.0,0.0,0.0,0.0,0.0,0.0,0.0,0.0,0.0,0.0,0.0,0.0,0.0,0.0,0.0,0.0,0.0,0.0,0.0,0.0,0.0,0.0,0.0,0.0,0.0,0.0,0.0,0.0,0.0,3.3369,3.3152,3.2916,3.2916,3.2916,3.2902,3.4695,3.5416,3.5204,3.5279,3.531,3.5279,3.4332,3.3362,3.2383,3.2239,3.1683,3.0924,3.1378,3.1918,3.2398,3.2862,3.2895,3.2713,0.0,0.0,0.0,0.0,0.0,0.0,0.0,0.0,2.7701,2.7701,2.7683,0.0,0.0,0.0,0.0,0.0,0.0,0.0,2.8371,2.7961,2.7847,2.8182,2.8182,2.8556,2.9387,2.9387,3.0154,3.1689,3.2474,3.2456,3.1689,3.1689,3.126,3.0564,3.135,3.1706,3.176,3.2545,3.2916,3.2916,3.2916,3.2916,3.2916,0.0,0.0,0.0,0.0,0.0,0.0,0.0,3.2916,3.2916,3.2916,3.3208,3.3605,3.3605,3.3895,3.4197,3.4197,3.4197,0.0,0.0,0.0,0.0,0.0,0.0,0.0,0.0,0.0,0.0,0.0,0.0,0.0,0.0,0.0,0.0,0.0,0.0,0.0,0.0,0.0,0.0,0.0,0.0,0.0,0.0,0.0,0.0,0.0,0.0,0.0,0.0,3.4193,3.3705,3.2916,3.2916,3.2916,3.2952,3.4454,3.4811,3.4118,3.5204,3.5282,3.4561,3.4146,3.3542,3.2779,3.2383,3.1968,3.162,3.162,3.1636,3.1818,3.3259,3.3326,3.2812,0.0,0.0,0.0,0.0,0.0,0.0,0.0,0.0,2.7004,2.7004,2.7195,0.0,0.0,0.0,0.0,0.0,0.0,0.0,2.7413,2.7369,2.74,2.7491,2.773,2.797,2.82,2.8987,2.9886,3.0868,3.11,3.11,3.0868,3.1439,3.1564,3.1385,3.217,3.2527,3.2545,3.2809,3.2916,3.2916,3.2916,3.2916,3.2916,0.0,0.0,0.0,0.0,0.0,0.0,0.0,0.0,0.0,3.3086,3.3357,3.3633,3.378,3.3998,3.4197,3.4197,0.0,0.0,0.0,0.0,0.0,0.0,0.0,0.0,0.0,0.0,0.0,0.0,0.0,0.0,0.0,0.0,0.0,0.0,0.0,0.0,0.0,0.0,0.0,0.0,0.0,0.0,0.0,0.0,0.0,0.0,0.0,0.0,0.0,3.3445,3.3134,3.2916,3.2916,3.3169,3.374,3.4204,3.4311,3.4133,3.4959,3.4959,3.4197,3.3526,3.2932,3.2423,3.2021,3.2102,3.2446,3.2446,3.2906,3.3604,3.404,3.423,3.427,0.0,0.0,0.0,0.0,0.0,0.0,0.0,0.0,2.6691,2.6691,2.6891,2.6923,0.0,0.0,0.0,0.0,0.0,0.0,0.0,2.7053,2.7053,2.7181,2.74,2.7491,2.7491,2.8294,2.8947,2.939,3.0131,3.0511,3.0529,3.1314,3.1689,3.1724,3.2527,3.2916,3.2916,3.2916,3.2916,3.2916,3.2916,3.2916,3.2916,0.0,0.0,0.0,0.0,0.0,0.0,0.0,0.0,0.0,3.3055,3.3327,3.3615,3.3753,3.3972,3.4197,3.4197,0.0,0.0,0.0,0.0,0.0,0.0,0.0,0.0,0.0,0.0,0.0,0.0,0.0,0.0,0.0,0.0,0.0,0.0,0.0,0.0,0.0,0.0,0.0,0.0,0.0,0.0,0.0,0.0,0.0,0.0,0.0,0.0,0.0,3.325,3.3024,3.3024,3.293,3.3294,3.4115,3.4115,3.4258,3.4561,3.5007,3.4633,3.3598,3.3098,3.2849,3.2704,3.2142,3.2273,3.2779,3.2779,3.3396,3.4261,3.4353,3.4723,3.5115,0.0,0.0,2.6691,2.6691,0.0,0.0,0.0,0.0,2.6691,2.6691,2.6691,2.6691,0.0,0.0,0.0,0.0,0.0,0.0,2.7303,2.6906,2.6791,2.7103,2.7149,2.7181,2.7213,2.7522,2.7701,2.7701,2.9438,3.0368,3.0529,3.1242,3.1671,3.1831,3.2491,3.2809,3.2809,3.2809,3.2809,3.2809,3.288,3.288,3.2809,3.2809,0.0,0.0,0.0,0.0,0.0,0.0,0.0,0.0,3.2948,3.3268,3.3605,3.3643,3.3921,3.4197,0.0,0.0,0.0,0.0,0.0,0.0,0.0,0.0,0.0,0.0,0.0,0.0,0.0,0.0,0.0,0.0,0.0,0.0,0.0,0.0,0.0,0.0,0.0,0.0,0.0,0.0,0.0,0.0,0.0,0.0,0.0,0.0,0.0,3.3895,3.3437,3.319,3.319,3.2993,3.3294,0.0,3.4026,3.4418,3.5204,3.5132,3.4294,3.2916,3.2916,3.3062,3.3283,3.2633,3.2528,3.2807,3.2807,3.3325,3.4093,3.4312,3.4965,3.547,0.0,0.0,2.6691,2.6691,0.0,0.0,0.0,0.0,0.0,2.6691,0.0,0.0,0.0,0.0,0.0,0.0,0.0,0.0,2.6691,2.6504,2.64,2.6399,2.6674,2.6923,2.7181,2.7522,2.7701,2.7701,2.839,2.9315,3.0511,3.0689,3.1421,3.263,3.2152,3.1956,3.1956,3.1956,3.1956,3.201,3.2666,3.2509,3.1956,3.1956,3.1956,0.0,0.0,0.0,0.0,0.0,0.0,0.0,3.3327,3.352,3.3671,3.3972,3.4124,3.4197,0.0,0.0,0.0,0.0,0.0,0.0,0.0,0.0,0.0,0.0,0.0,0.0,0.0,0.0,0.0,0.0,0.0,0.0,0.0,0.0,0.0,0.0,0.0,0.0,0.0,0.0,0.0,0.0,0.0,0.0,0.0,0.0,0.0,3.3895,3.3437,3.319,3.319,3.2993,3.3294,0.0,3.3455,3.3883,3.5186,3.4615,3.3812,3.2916,3.2916,3.2941,3.3019,3.2841,3.2793,3.2869,3.2869,3.3512,3.4466,3.4547,3.5215,3.5959,0.0,0.0,0.0,0.0,0.0,0.0,0.0,0.0,0.0,0.0,0.0,0.0,0.0,0.0,0.0,0.0,2.6623,2.6589,2.6485,2.6382,2.6277,2.6203,2.6364,2.6555,2.6725,2.7036,2.7227,2.7227,2.8099,2.9207,3.0511,3.0511,3.1153,3.2295,3.1885,3.1492,3.1135,3.1135,3.1135,3.1171,3.1581,3.1492,3.1135,3.1135,3.1367,3.1689,3.1689,0.0,0.0,0.0,0.0,0.0,0.0,0.0,3.3643,3.3972,3.4124,3.4197,0.0,0.0,0.0,0.0,0.0,0.0,0.0,0.0,0.0,0.0,0.0,0.0,0.0,0.0,0.0,0.0,0.0,0.0,0.0,0.0,0.0,0.0,0.0,0.0,0.0,0.0,0.0,0.0,0.0,0.0,0.0,3.4099,3.4049,3.4049,3.3716,3.3484,3.3386,3.3178,3.3405,3.4097,3.3277,3.3312,3.4097,3.4097,3.3651,3.2916,3.2916,3.2916,3.2916,3.2916,3.2916,3.2916,3.2916,3.3484,3.4323,3.4127,3.4833,3.5769,0.0,0.0,0.0,0.0,0.0,0.0,0.0,0.0,0.0,0.0,0.0,0.0,0.0,0.0,0.0,0.0,0.0,0.0,2.652,2.6382,2.6277,2.6203,2.622,2.622,2.622,2.6638,2.6894,2.6894,2.8291,2.9532,3.0617,0.0,3.1064,3.1689,3.1484,3.0986,3.0208,3.0208,3.0178,3.0166,3.032,3.0332,3.0226,3.0368,3.0843,3.151,3.1653,3.2206,3.2916,3.2916,0.0,0.0,0.0,0.0,3.3643,3.3842,3.4049,3.4197,0.0,0.0,0.0,0.0,0.0,0.0,0.0,0.0,0.0,0.0,0.0,0.0,0.0,0.0,0.0,0.0,0.0,0.0,0.0,0.0,0.0,0.0,0.0,0.0,0.0,0.0,0.0,0.0,0.0,0.0,3.4197,3.4197,3.4197,3.4197,3.3998,3.3788,3.3605,3.3339,3.3409,3.3883,3.3348,3.3009,3.2952,3.3723,3.3651,3.2916,3.2916,3.2916,3.2916,3.2916,3.2916,3.2916,3.2916,3.3384,3.4064,3.3653,3.4427,3.5375,0.0,0.0,0.0,0.0,0.0,0.0,0.0,0.0,0.0,0.0,2.6691,2.6691,0.0,0.0,2.6691,2.6691,2.6691,2.664,2.6572,0.0,0.0,2.6203,2.622,2.622,2.622,2.7142,2.7637,2.7637,2.8785,0.0,0.0,0.0,0.0,3.1671,0.0,0.0,2.911,2.911,2.8956,2.8754,2.9688,2.9691,2.918,2.9832,3.0305,3.0761,3.1457,3.2206,3.2916,3.2916,3.2916,0.0,0.0,0.0,0.0,3.3842,3.4049,0.0,0.0,0.0,0.0,0.0,0.0,0.0,0.0,0.0,0.0,0.0,0.0,0.0,0.0,0.0,0.0,0.0,0.0,0.0,0.0,0.0,0.0,0.0,0.0,0.0,0.0,0.0,0.0,0.0,0.0,0.0,3.4197,3.4197,3.4197,3.4197,3.3998,3.3788,3.3605,3.3339,3.3152,3.3094,3.3651,3.3562,3.2952,3.3723,3.3651,3.2916,3.2916,3.2916,3.2916,3.2916,3.2916,3.2916,3.2916,3.3384,3.4097,3.4031,3.4531,3.5136,0.0,0.0,0.0,0.0,0.0,0.0,0.0,0.0,0.0,0.0,0.0,2.6691,0.0,2.6691,2.6522,2.6116,2.6454,2.6674,2.6606,2.6801,2.6892,2.6872,2.7234,2.7429,2.7429,2.7898,2.8139,2.8139,0.0,0.0,0.0,3.1895,3.1773,0.0,0.0,0.0,0.0,0.0,0.0,2.7779,2.8456,2.8509,2.8328,2.9301,3.0018,3.0618,3.1403,3.2206,3.2916,3.2916,3.2916,3.2948,3.3129,0.0,0.0,0.0,0.0,0.0,0.0,0.0,0.0,0.0,0.0,0.0,0.0,0.0,0.0,0.0,0.0,0.0,0.0,0.0,0.0,0.0,0.0,0.0,0.0,0.0,0.0,0.0,0.0,0.0,0.0,0.0,0.0,0.0,0.0,3.4401,3.4903,3.4457,3.4197,3.4197,3.4124,3.3972,3.378,3.3559,3.3268,3.2916,3.3241,3.3223,3.2902,3.3259,3.3223,3.2916,3.2916,3.2916,3.2916,3.2916,3.2916,3.2916,3.2916,3.3098,3.3419,3.3419,3.3919,3.4472,0.0,0.0,0.0,0.0,0.0,0.0,0.0,0.0,0.0,0.0,0.0,0.0,0.0,0.0,0.0,0.0,2.6387,2.659,2.6337,2.6686,2.6881,2.6881,2.7707,2.8047,2.7864,2.8395,2.8616,2.8548,0.0,0.0,3.1046,3.1994,3.1561,0.0,2.9983,0.0,0.0,0.0,0.0,0.0,0.0,2.7701,2.7836,2.9077,2.9971,3.0636,3.1635,3.2384,3.2916,3.2916,3.2916,3.2948,3.3086,3.316,0.0,0.0,0.0,0.0,0.0,0.0,0.0,0.0,0.0,0.0,0.0,0.0,0.0,0.0,0.0,0.0,0.0,0.0,0.0,0.0,0.0,0.0,0.0,0.0,0.0,0.0,0.0,0.0,0.0,0.0,0.0,0.0,0.0,3.4476,3.5126,3.455,3.4197,3.4197,3.4197,3.4099,3.3895,3.3625,3.3298,3.2916,3.2916,3.2916,3.2916,3.2916,3.2916,3.2916,3.2916,3.2916,3.2916,3.2916,3.2916,3.2916,3.2916,3.2916,3.2916,3.2916,3.3401,3.4008,0.0,0.0,0.0,0.0,0.0,0.0,0.0,0.0,0.0,0.0,0.0,0.0,2.6691,2.6691,2.6674,2.664,2.6674,2.637,2.5596,2.558,2.553,2.5414,2.6731,0.0,2.6412,2.8345,2.9182,0.0,0.0,0.0,3.2213,3.151,3.0756,2.9983,2.9983,2.9385,2.8313,0.0,0.0,0.0,0.0,0.0,0.0,0.0,0.0,0.0,0.0,0.0,3.2916,3.2916,3.2916,3.2916,3.2916,3.3055,3.325,0.0,0.0,0.0,0.0,0.0,0.0,0.0,0.0,0.0,0.0,0.0,0.0,0.0,0.0,0.0,0.0,0.0,0.0,0.0,0.0,0.0,0.0,0.0,0.0,0.0,0.0,0.0,0.0,0.0,0.0,0.0,0.0,3.4216,3.4271,3.4216,3.4197,3.4197,3.4197,3.4099,3.3895,3.3455,3.3099,3.2916,3.2916,3.2916,3.2916,3.2916,3.2916,3.2916,3.2916,3.2916,3.2916,3.2916,3.2916,3.2916,3.2916,3.2916,3.2916,3.2916,3.3401,3.4097,0.0,0.0,0.0,0.0,0.0,0.0,0.0,0.0,0.0,0.0,0.0,0.0,0.0,2.5845,2.5272,2.5277,2.4867,2.4568,2.4545,2.5564,2.6168,2.6135,2.7437,2.8031,2.7727,2.8921,0.0,0.0,0.0,3.0054,3.0125,3.0092,2.9916,2.9706,2.9902,2.9141,2.7609,2.7442,0.0,0.0,0.0,0.0,0.0,0.0,0.0,0.0,0.0,0.0,0.0,3.2916,3.2916,3.2916,3.2916,3.259,3.2224,3.2092,3.2139,0.0,0.0,0.0,0.0,0.0,0.0,0.0,0.0,0.0,0.0,0.0,0.0,0.0,0.0,0.0,0.0,0.0,0.0,0.0,0.0,0.0,0.0,0.0,0.0,0.0,0.0,0.0,0.0,0.0,0.0,0.0,3.4996,3.4494,3.4197,3.4197,3.4197,3.4049,3.3698,3.303,3.2762,3.2898,3.2367,3.2384,3.2916,3.2916,3.2916,3.2916,3.2916,3.2916,3.2916,3.2916,3.2916,3.2916,3.2916,3.2916,3.2969,3.3473,3.3847,3.4169,0.0,0.0,0.0,0.0,0.0,2.627,2.6,2.6169,2.6253,2.6,0.0,0.0,0.0,0.0,2.4435,2.4327,2.3667,2.3338,2.3617,2.4963,2.5782,2.5882,2.7444,2.8293,2.8219,2.9148,0.0,0.0,0.0,0.0,0.0,2.9246,2.929,2.929,2.9365,2.8683,0.0,0.0,0.0,2.7313,0.0,0.0,2.9266,0.0,0.0,0.0,0.0,0.0,0.0,0.0,0.0,3.2916,3.2916,3.2393,3.1757,3.1329,0.0,0.0,0.0,0.0,0.0,0.0,0.0,0.0,0.0,0.0,0.0,0.0,0.0,0.0,0.0,0.0,0.0,0.0,0.0,0.0,0.0,0.0,0.0,0.0,0.0,0.0,0.0,0.0,0.0,0.0,0.0,0.0,3.5014,3.4513,3.4197,3.4197,3.4197,3.3869,3.3186,3.2657,3.2288,3.2081,3.1546,3.1706,3.2491,3.2491,3.2616,3.2916,3.2916,3.2916,3.2916,3.2916,3.2916,3.2916,3.2916,3.2916,3.2991,3.3794,3.4258,3.4597,0.0,0.0,2.5967,2.5749,2.5732,2.5447,2.4663,2.513,2.5297,2.458,0.0,0.0,0.0,0.0,0.0,2.3934,2.327,2.2855,2.2889,2.3569,2.4129,2.4509,2.6522,2.7666,2.7666,2.8984,0.0,0.0,0.0,0.0,0.0,0.0,2.8825,2.8789,2.8315,2.7997,2.781,0.0,2.7195,2.7345,0.0,2.9213,2.9637,0.0,0.0,0.0,3.2711,3.3011,0.0,0.0,0.0,0.0,0.0,0.0,0.0,0.0,0.0,0.0,0.0,0.0,0.0,0.0,0.0,0.0,0.0,0.0,0.0,0.0,0.0,0.0,0.0,0.0,0.0,0.0,0.0,0.0,0.0,0.0,0.0,0.0,0.0,0.0,0.0,0.0,0.0,0.0,0.0,3.4197,3.4197,3.4197,3.4179,3.416,3.416,3.3598,3.2392,3.2356,3.1737,3.0511,3.0511,3.0921,3.1689,3.1706,3.2152,3.2916,3.2916,3.2916,3.2916,3.2916,3.2916,3.2916,3.2916,3.2902,3.3009,3.3847,3.4615,3.5364,0.0,2.6948,2.6749,2.6649,2.6204,2.5739,2.5428,2.5091,2.4781,0.0,0.0,0.0,0.0,2.3816,2.3,2.2131,2.1871,2.1842,2.208,2.3009,2.3949,2.4813,2.5962,2.6649,2.6909,2.832,0.0,0.0,0.0,0.0,0.0,0.0,0.0,0.0,2.6316,2.6047,2.6051,2.6754,0.0,0.0,2.9491,3.0529,0.0,0.0,0.0,0.0,0.0,3.3055,0.0,0.0,3.3042,3.289,0.0,0.0,0.0,0.0,0.0,0.0,2.9984,0.0,0.0,0.0,0.0,0.0,0.0,3.4765,0.0,0.0,0.0,0.0,0.0,0.0,0.0,0.0,0.0,0.0,0.0,0.0,0.0,0.0,0.0,0.0,0.0,0.0,0.0,0.0,3.4197,3.4197,3.4197,3.4197,3.3918,3.3343,3.3324,3.2815,3.1751,3.117,3.0841,3.0707,3.0707,3.1052,3.1706,3.2295,3.2702,3.2916,3.2916,3.2916,3.2916,3.2916,3.2916,3.2916,3.2916,3.3241,3.3865,3.4633,3.54,3.6185,2.6714,2.6165,2.5682,2.563,2.5552,2.5224,2.4488,2.4773,2.4709,0.0,0.0,0.0,0.0,0.0,2.205,2.1536,2.1503,2.1708,2.2181,2.3112,2.3958,2.4734,2.5617,2.6324,2.6852,2.7866,2.7955,0.0,0.0,0.0,0.0,0.0,0.0,0.0,2.5135,0.0,0.0,0.0,0.0,0.0,2.9584,0.0,0.0,3.2786,3.3104,0.0,0.0,0.0,3.3117,3.3165,3.3104,0.0,0.0,0.0,0.0,0.0,0.0,0.0,0.0,0.0,0.0,0.0,0.0,0.0,3.3168,3.4075,3.4942,0.0,0.0,0.0,0.0,0.0,0.0,0.0,0.0,0.0,0.0,0.0,0.0,0.0,0.0,0.0,0.0,0.0,0.0,3.4221,3.4197,3.4197,3.4197,3.3881,3.3473,3.3008,3.2655,3.2006,3.1004,3.0525,3.0198,2.9979,3.0216,3.0682,3.1356,3.2089,3.2563,3.2916,3.2916,3.2916,3.2916,3.2916,3.2916,3.2916,3.2916,3.3384,3.4151,3.4597,3.5453,3.647,0.0,2.4896,2.3893,2.3864,2.436,2.4309,2.2846,2.4156,2.4603,0.0,2.2852,0.0,0.0,0.0,2.1485,2.1774,2.1831,2.2126,2.2818,2.3469,2.402,2.4434,2.5471,2.6366,2.7065,2.7545,2.7739,2.7689,0.0,0.0,0.0,0.0,0.0,0.0,2.451,2.405,0.0,0.0,0.0,2.7631,2.9344,3.0818,0.0,0.0,3.3214,0.0,3.3262,3.3244,3.3165,3.3262,3.3152,0.0,0.0,0.0,0.0,0.0,2.9927,0.0,0.0,0.0,0.0,0.0,0.0,0.0,3.2164,3.3135,3.412,0.0,0.0,0.0,0.0,0.0,0.0,0.0,0.0,0.0,0.0,0.0,0.0,0.0,0.0,0.0,0.0,3.471,3.4495,3.4221,3.4197,3.4197,3.4197,3.351,3.3083,3.299,3.221,3.1325,3.0351,3.024,2.9743,2.8815,2.9435,3.0098,3.08,3.1404,3.2135,3.2916,3.2916,3.2916,3.2916,3.2916,3.2916,3.2916,3.2916,3.3384,3.4115,3.4204,3.5116,3.6346,2.5752,2.5049,2.4503,2.4694,2.4348,2.3877,2.3526,2.3187,2.2773,2.2237,2.1982,0.0,0.0,0.0,2.1745,2.1787,2.2056,2.2492,2.3173,2.3328,2.3834,2.4759,2.5325,2.5828,2.6303,2.7276,2.752,2.6911,0.0,0.0,0.0,0.0,0.0,0.0,2.3996,2.3753,0.0,0.0,0.0,2.8184,3.0612,0.0,3.3046,3.3238,3.3322,3.3334,3.3364,3.3364,3.3334,0.0,3.3117,3.3037,0.0,0.0,0.0,0.0,0.0,0.0,0.0,0.0,0.0,0.0,0.0,0.0,3.2069,3.2939,3.3935,0.0,0.0,0.0,0.0,0.0,0.0,0.0,0.0,0.0,0.0,0.0,0.0,0.0,0.0,0.0,0.0,3.471,3.4495,3.4221,3.4197,3.4197,3.4197,3.4048,3.3658,3.3008,3.221,3.1392,3.055,2.9901,2.9304,2.8815,2.958,3.0152,3.0588,3.1362,3.2135,3.2916,3.2916,3.2916,3.2916,3.2916,3.2916,3.2916,3.2916,3.3384,3.4169,3.4775,3.5492,3.6254,2.5489,2.5011,2.466,2.478,2.4585,2.4206,2.3688,2.3493,2.3059,2.2111,2.1645,0.0,0.0,0.0,0.0,0.0,2.1436,2.1904,2.2748,2.2794,2.3049,2.3569,2.3973,2.4466,2.5005,2.5957,2.6453,2.6401,0.0,0.0,0.0,0.0,0.0,0.0,0.0,0.0,0.0,0.0,2.7857,2.8923,3.0993,0.0,3.3292,3.3322,3.3382,3.3393,3.3393,3.3393,3.3334,3.2912,3.2816,0.0,0.0,3.2606,3.2479,0.0,3.178,3.1691,0.0,0.0,0.0,3.0702,0.0,0.0,0.0,3.2627,3.3129,0.0,0.0,0.0,0.0,0.0,0.0,0.0,0.0,0.0,0.0,0.0,0.0,0.0,0.0,0.0,0.0,3.4539,3.434,3.4221,3.4197,3.4197,3.4197,3.3807,3.3417,3.3008,3.221,3.1597,3.1188,3.0411,2.9854,2.9562,2.9856,3.0051,3.0148,3.1213,3.192,3.2313,3.2706,3.2916,3.2916,3.2916,3.2916,3.2916,3.2916,3.3616,3.465,3.465,3.551,3.6675,2.5212,2.4809,2.4461,2.4571,2.4663,2.4413,2.3624,2.3913,2.3664,2.2145,2.1499,0.0,0.0,0.0,0.0,0.0,0.0,2.1409,0.0,0.0,2.2286,2.221,2.2666,2.3185,2.3897,2.4482,2.5192,2.598,0.0,0.0,0.0,0.0,0.0,0.0,0.0,0.0,0.0,0.0,0.0,2.9833,0.0,3.2499,3.3322,3.3382,3.3393,3.3393,3.3393,3.3364,3.3196,3.2636,0.0,3.2454,3.2249,3.2249,0.0,0.0,0.0,0.0,0.0,0.0,0.0,0.0,0.0,3.0882,0.0,0.0,0.0,0.0,0.0,0.0,0.0,0.0,0.0,0.0,0.0,0.0,0.0,0.0,0.0,0.0,0.0,0.0,0.0,3.4629,3.4383,3.4197,3.4364,3.4383,3.4197,3.3566,3.3231,3.3231,3.2451,3.2024,3.2024,3.1098,3.0487,3.0239,2.9923,2.9715,2.9674,3.0921,3.1546,3.1742,3.2527,3.2916,3.2916,3.2916,3.2916,3.2916,3.2916,3.3758,3.4936,3.4456,3.5421,3.692,2.4931,2.438,2.4048,2.454,2.4041,2.3549,2.351,2.3367,2.2986,0.0,0.0,0.0,0.0,0.0,0.0,0.0,0.0,0.0,2.194,0.0,2.221,2.194,2.2555,2.3185,2.3897,2.3764,2.43,2.5577,2.4627,0.0,0.0,0.0,0.0,0.0,2.3711,0.0,0.0,0.0,3.0089,0.0,3.2538,3.3273,0.0,3.3411,3.3393,3.3393,3.3393,3.3178,3.2844,0.0,3.2335,3.2039,0.0,3.202,0.0,0.0,0.0,0.0,0.0,0.0,0.0,0.0,3.1849,0.0,0.0,0.0,0.0,0.0,0.0,0.0,0.0,0.0,0.0,0.0,0.0,0.0,0.0,0.0,0.0,0.0,0.0,0.0,0.0,0.0,3.5014,3.4253,3.4903,3.5014,3.4234,3.4104,3.4048,3.4048,3.3268,3.286,3.286,3.1377,3.0401,3.0033,2.929,2.9101,2.9451,3.0261,3.1028,3.1742,3.2527,3.2916,3.2916,3.2916,3.2916,3.2916,3.2916,3.3437,3.426,3.4641,3.5294,3.6039,2.4846,2.5017,2.5139,2.5379,2.4895,2.4456,2.4312,2.3372,2.2442,0.0,0.0,0.0,0.0,0.0,0.0,0.0,0.0,2.1166,0.0,0.0,0.0,2.0974,2.1228,2.1996,2.324,2.3371,2.3988,2.516,2.4535,0.0,0.0,0.0,0.0,0.0,2.4217,0.0,2.7236,0.0,0.0,0.0,0.0,0.0,0.0,3.3393,3.3393,3.3393,3.3393,3.3286,3.3068,0.0,3.2162,0.0,0.0,0.0,0.0,0.0,0.0,0.0,0.0,0.0,0.0,0.0,0.0,0.0,3.2391,0.0,3.1806,0.0,0.0,0.0,0.0,0.0,0.0,0.0,0.0,0.0,0.0,0.0,0.0,0.0,0.0,0.0,0.0,0.0,0.0,0.0,0.0,3.5107,3.4253,3.4197,3.4197,3.4197,3.3863,3.3696,3.3696,3.2098,3.115,3.0852,2.9448,2.8826,2.8919,2.9569,3.0279,3.1046,3.1849,3.2456,3.2916,3.2916,3.2916,3.2916,3.2916,3.3568,3.4604,3.4836,3.5483,3.6369,2.3776,0.0,0.0,2.5941,2.5226,2.4514,2.4331,2.3063,2.1989,2.1665,0.0,0.0,2.0444,2.0681,0.0,0.0,0.0,2.1152,0.0,0.0,2.0361,0.0,0.0,0.0,0.0,2.2952,2.3537,2.4719,2.4222,2.4175,0.0,0.0,0.0,0.0,0.0,2.6021,2.8504,0.0,0.0,3.2578,3.3158,3.3393,3.3393,3.3393,3.3393,3.3393,3.3393,3.3334,3.3117,3.235,3.2074,0.0,3.1841,0.0,0.0,0.0,0.0,0.0,3.1565,0.0,0.0,0.0,0.0,0.0,0.0,0.0,0.0,0.0,0.0,0.0,0.0,0.0,0.0,0.0,0.0,0.0,0.0,0.0,0.0,0.0,0.0,0.0,0.0,0.0,0.0,3.4643,3.5349,3.5349,3.4253,3.4197,3.4197,3.4197,3.4197,3.4197,3.4197,3.26,3.1691,3.1489,2.9679,2.8852,2.8913,2.9474,3.0148,3.0975,3.1701,3.2349,3.2916,3.2916,3.2884,3.2838,3.3051,3.3791,3.4727,3.4817,3.5598,3.6702,2.1123,2.2677,0.0,0.0,0.0,2.2781,2.2781,2.1954,2.1584,0.0,0.0,0.0,0.0,0.0,0.0,0.0,0.0,2.2893,2.2202,0.0,2.1347,0.0,0.0,2.1261,0.0,0.0,2.2646,2.4302,2.3333,0.0,0.0,0.0,0.0,0.0,0.0,2.6817,2.9326,3.0477,3.189,3.3357,3.3393,3.3393,3.3393,0.0,3.3393,3.3393,3.3393,0.0,0.0,3.2264,3.2092,0.0,0.0,0.0,0.0,0.0,0.0,0.0,0.0,0.0,0.0,3.2197,0.0,0.0,0.0,0.0,3.2322,0.0,0.0,0.0,0.0,0.0,3.331,3.4096,3.445,0.0,0.0,0.0,0.0,0.0,0.0,0.0,0.0,0.0,0.0,3.5572,3.6203,3.5943,3.429,3.4197,3.4197,3.4197,3.4197,3.4197,3.4197,3.26,3.1691,3.1489,2.9679,2.9199,2.9965,3.0302,3.1052,3.2065,3.2616,3.2898,3.2916,3.2916,3.2787,3.2677,3.3473,3.3987,3.4338,3.4524,3.55,3.6643,2.0499,0.0,0.0,0.0,0.0,2.3062,2.2573,2.2248,2.2005,0.0,0.0,0.0,0.0,0.0,2.1792,0.0,0.0,2.2711,2.2862,2.1963,0.0,0.0,0.0,2.1699,0.0,0.0,0.0,0.0,0.0,0.0,0.0,0.0,0.0,0.0,0.0,2.7332,0.0,0.0,0.0,0.0,0.0,3.3671,3.3588,0.0,0.0,3.3339,3.2795,3.252,0.0,3.1727,3.1093,3.066,3.1064,3.0844,3.0573,3.1373,3.1338,0.0,0.0,0.0,3.1355,3.1452,0.0,0.0,0.0,0.0,0.0,0.0,0.0,0.0,0.0,0.0,3.3537,3.3935,3.4074,3.4148,0.0,0.0,0.0,0.0,0.0,0.0,0.0,0.0,0.0,3.5535,3.5219,3.4791,0.0,3.4197,3.4197,3.4197,3.4197,3.4197,3.4197,3.312,3.2558,3.2469,3.0678,3.0215,3.0987,3.0436,3.0794,3.19,3.2218,3.2478,3.2705,3.2852,3.2852,3.2859,3.3543,3.4093,3.4556,3.5021,3.57,3.6513,1.8872,0.0,0.0,0.0,0.0,0.0,0.0,0.0,0.0,0.0,2.1432,0.0,2.1368,0.0,2.2168,0.0,2.3131,2.3242,2.3304,2.2668,0.0,2.2173,2.186,0.0,0.0,0.0,0.0,0.0,0.0,2.3662,0.0,0.0,0.0,0.0,0.0,0.0,0.0,0.0,3.248,0.0,0.0,3.3947,0.0,0.0,3.2866,3.3284,0.0,3.2198,3.2087,3.1227,3.0564,3.0149,3.0565,3.0178,2.9698,3.0604,3.0535,3.012,2.9831,3.0316,0.0,3.0746,3.1113,0.0,3.1296,0.0,0.0,0.0,0.0,0.0,0.0,0.0,3.3231,3.3725,3.3788,3.3868,0.0,3.4821,0.0,0.0,0.0,0.0,0.0,0.0,3.611,3.5535,3.4977,3.4531,0.0,0.0,3.4197,3.4197,3.4197,3.4197,3.4197,3.3398,3.299,3.2971,3.1449,3.1181,3.2027,3.1206,3.1438,3.2433,3.2421,3.2527,3.2705,3.277,3.2737,3.2778,3.3723,3.4231,3.4495,3.5218,3.5844,3.6422,1.6373,1.7081,0.0,0.0,2.134,0.0,0.0,0.0,2.115,0.0,2.1306,2.1413,2.1413,2.2017,2.2606,2.3047,2.4141,0.0,2.3615,2.3553,0.0,0.0,2.2584,2.3278,2.5182,0.0,0.0,0.0,0.0,0.0,0.0,0.0,0.0,0.0,2.7178,0.0,3.0198,3.1613,3.2839,3.3842,3.4124,3.4221,3.4147,3.3371,3.3195,3.3259,3.2444,3.2136,3.1906,3.0814,3.0392,3.0309,3.0039,2.9671,2.9317,2.923,2.936,2.9393,2.8644,2.94,3.0344,3.0095,0.0,0.0,0.0,0.0,3.1301,0.0,0.0,0.0,0.0,0.0,0.0,3.3421,3.3605,3.3671,3.386,0.0,0.0,0.0,0.0,0.0,0.0,3.7726,3.7058,3.5609,3.5404,0.0,0.0,0.0,3.4234,3.4197,3.4197,3.4197,3.4197,3.3436,3.3045,3.3045,3.2046,3.2101,3.3064,3.264,3.2849,3.3577,3.3208,3.2993,3.2884,3.2705,3.2506,3.2476,3.4002,3.4443,3.4323,3.5208,3.5896,3.6473,1.5311,1.6201,1.7102,0.0,1.9507,2.0408,0.0,0.0,0.0,0.0,2.2635,2.2937,2.2937,2.2618,2.2584,2.3056,2.3192,0.0,0.0,0.0,0.0,2.3804,2.3426,2.3548,2.4167,2.3915,0.0,2.4564,0.0,0.0,2.4362,0.0,0.0,0.0,0.0,0.0,3.0201,3.1907,3.3219,3.4124,3.4386,3.4495,0.0,0.0,3.3692,3.2914,3.1946,3.1107,3.0342,2.9804,2.9083,2.8505,2.9026,2.8693,2.8284,2.9006,2.9006,2.8838,2.9092,2.9036,2.9175,3.0118,3.0109,2.9926,0.0,0.0,0.0,0.0,0.0,0.0,0.0,0.0,0.0,3.3262,3.3473,3.3633,0.0,0.0,0.0,3.4917,0.0,0.0,3.6872,3.533,3.4587,3.5423,3.4346,0.0,0.0,0.0,0.0,3.4216,3.4197,3.4197,3.4197,3.3993,3.3881,3.3881,3.3017,3.3054,3.3863,3.3173,3.3103,3.3588,3.3484,3.3268,3.2961,3.2866,3.2705,3.2647,3.4038,3.5087,3.5749,3.5998,3.655,3.7284,1.4398,0.0,0.0,1.6828,0.0,0.0,2.0345,0.0,0.0,2.2474,2.2695,0.0,2.2988,2.266,2.2638,2.3203,2.2903,0.0,0.0,0.0,0.0,2.3875,2.3978,2.4173,2.4435,2.4161,0.0,2.4302,0.0,0.0,2.3945,0.0,0.0,0.0,0.0,2.9344,0.0,3.2595,3.3733,3.4221,3.4586,0.0,0.0,3.4334,3.3513,3.2396,3.1376,3.0546,2.9828,2.9224,2.8495,2.794,2.8428,2.8039,2.7556,2.8066,2.8127,2.8006,2.7992,2.8191,2.8572,2.9383,2.9499,2.9599,3.0344,3.0359,3.0454,0.0,0.0,0.0,0.0,0.0,0.0,0.0,0.0,0.0,0.0,0.0,0.0,0.0,0.0,0.0,3.5256,3.3914,3.3696,3.5367,0.0,0.0,0.0,0.0,0.0,3.4234,3.4197,3.4197,3.4197,3.4197,3.4197,3.4179,3.3733,3.3566,3.3658,3.3566,3.342,3.323,3.3377,3.3309,3.3068,3.2866,3.2639,3.2579,3.3873,3.5174,3.6301,3.6301,3.6577,3.7129,0.0,0.0,0.0,0.0,0.0,0.0,0.0,2.0783,0.0,2.262,0.0,2.2303,2.2558,2.25,2.2688,2.3272,0.0,2.3027,2.3605,2.4061,2.4148,2.384,2.4366,2.4828,2.5164,2.461,0.0,0.0,0.0,2.2765,2.3527,0.0,0.0,0.0,0.0,0.0,0.0,3.3421,3.4221,0.0,3.4732,3.4832,3.4661,3.396,3.2978,3.1862,3.087,3.0276,2.9813,2.8905,2.8396,2.8102,2.8075,2.7636,2.7085,2.6889,2.7062,2.7145,2.6521,2.7197,2.8141,2.8362,2.8837,2.9466,3.0212,3.0444,3.0634,3.1004,3.1376,3.175,0.0,0.0,0.0,0.0,0.0,0.0,0.0,0.0,0.0,0.0,0.0,0.0,0.0,3.3184,0.0,0.0,0.0,0.0,0.0,0.0,0.0,3.4234,3.4197,0.0,3.4364,0.0,3.4253,3.4364,3.4253,3.3826,3.3175,3.3881,3.371,3.2926,3.3231,3.3309,3.322,3.2816,3.2611,3.2687,3.3713,3.499,3.6301,3.6301,3.6301,3.6525,0.0,0.0,0.0,0.0,0.0,2.1144,2.2714,2.3732,2.4199,2.3881,2.4198,2.4219,2.3612,2.2993,2.2684,2.2804,2.3164,0.0,0.0,0.0,0.0,2.5083,2.4989,2.4773,2.4487,2.4364,2.4302,0.0,2.3241,2.3222,2.422,0.0,0.0,0.0,0.0,0.0,3.3378,3.3949,0.0,3.4539,3.4792,3.4491,3.3884,3.3752,3.273,3.1277,3.0706,2.9924,2.914,2.8724,2.8396,2.8075,2.784,2.7504,2.7085,2.6691,2.6604,2.6699,2.7038,2.6849,2.6882,2.8075,2.8472,2.8738,2.945,3.0079,3.0634,3.1004,3.1162,3.1338,3.1714,0.0,0.0,0.0,0.0,0.0,0.0,0.0,0.0,0.0,0.0,0.0,0.0,0.0,0.0,0.0,0.0,0.0,0.0,0.0,0.0,0.0,3.4197,0.0,0.0,0.0,3.455,3.5256,3.4531,3.4123,3.3993,3.4141,3.4099,3.392,3.3652,3.353,3.3502,3.3024,3.3367,3.4193,3.4129,3.499,3.6301,3.6301,3.6301,3.6525,0.0,0.0,0.0,0.0,0.0,0.0,0.0,2.5346,0.0,2.4726,2.3978,2.3464,2.3239,2.3033,2.2868,2.2712,2.2839,2.3283,2.4132,2.4293,2.4608,2.533,2.5131,0.0,2.4902,2.4719,2.4547,2.4404,2.3925,2.3668,2.362,0.0,0.0,0.0,0.0,3.16,0.0,0.0,0.0,3.4623,3.4831,3.4415,3.3657,3.3202,3.2274,3.1102,3.0302,2.9651,2.9097,2.8718,2.8492,2.8344,2.821,2.7943,2.756,2.71,2.6858,2.6708,2.6726,2.6468,2.6468,2.7545,2.7848,2.813,2.9168,2.9682,3.0087,3.0657,3.0965,3.1121,3.1124,3.1288,0.0,0.0,0.0,0.0,0.0,0.0,0.0,0.0,0.0,0.0,0.0,0.0,0.0,0.0,0.0,0.0,0.0,0.0,0.0,0.0,0.0,0.0,0.0,0.0,0.0,3.481,3.4401,3.3974,3.3584,3.4011,3.3956,3.3584,3.3684,3.3698,3.3567,3.3312,3.3759,3.4614,3.4649,3.5335,3.6301,3.6301,3.6801,3.7594,0.0,1.7543,0.0,0.0,2.2762,0.0,2.4942,2.6077,2.6506,2.5484,2.3884,2.2926,2.3084,2.3154,2.306,2.2816,2.277,2.3127,2.3994,2.4149,2.4614,2.5497,2.5334,2.5307,2.5503,2.5198,2.4926,0.0,2.4623,2.4161,0.0,0.0,0.0,0.0,0.0,0.0,0.0,0.0,3.4386,3.4649,3.4661,3.415,3.3335,3.2482,3.1648,3.08,2.9925,2.9474,2.923,2.8821,2.8637,2.8587,2.8518,2.8326,2.7974,2.7452,2.7098,2.6807,2.6329,2.622,2.6352,2.6899,2.7201,2.7599,2.8704,2.9201,2.9566,3.0162,3.0623,3.0898,3.0629,3.0876,0.0,0.0,0.0,0.0,0.0,0.0,0.0,0.0,0.0,0.0,0.0,0.0,0.0,0.0,0.0,0.0,0.0,0.0,0.0,0.0,0.0,3.455,3.4717,0.0,3.429,0.0,3.429,3.3863,3.3268,3.39,3.3844,3.3287,3.3696,3.3734,3.3517,3.375,3.4145,3.4649,3.5047,3.5645,3.6301,3.6301,3.718,3.837,0.0,0.0,0.0,0.0,0.0,0.0,0.0,2.5897,2.5722,2.6384,2.56,2.4857,2.4479,2.3773,2.3289,2.3077,2.3657,2.4259,2.4833,2.5272,2.5746,2.6284,2.6052,2.5779,2.5503,2.5465,2.5433,0.0,0.0,2.4893,0.0,0.0,0.0,0.0,0.0,0.0,0.0,3.4197,3.4458,3.4813,3.4112,3.3297,3.2425,3.1629,3.0795,2.9986,2.9699,2.9474,2.9272,2.903,2.8791,2.8562,2.8255,2.8129,2.7946,2.7158,2.692,2.6807,2.6329,2.622,2.6236,2.6303,2.68,2.7334,2.7483,2.8472,2.9433,2.9499,3.0046,3.0535,3.051,2.9777,2.9347,0.0,0.0,0.0,0.0,0.0,0.0,0.0,0.0,0.0,0.0,0.0,0.0,0.0,0.0,0.0,0.0,0.0,0.0,3.5404,0.0,3.572,3.6445,3.4959,3.4587,3.5367,3.4569,3.416,3.4086,3.416,3.416,3.4086,3.3961,3.3652,3.3328,3.4418,3.4747,3.4649,3.5047,3.5645,3.6301,3.6301,3.6853,3.768,0.0,0.0,0.0,0.0,0.0,0.0,0.0,2.7486,2.7357,2.7391,2.5631,2.4341,2.4132,2.3829,2.3495,2.3126,2.347,2.3696,2.3619,2.4626,2.5282,2.5387,2.5796,2.6068,2.621,2.598,2.598,0.0,0.0,0.0,0.0,0.0,0.0,0.0,0.0,3.2411,3.4197,3.4197,3.4458,3.4832,3.4017,3.3183,3.2312,3.1516,3.0663,2.9888,2.9822,2.957,2.9293,2.9206,2.8915,2.8587,2.8448,2.837,2.8174,2.7422,2.7161,2.7002,2.6364,2.622,2.622,2.622,2.6419,2.675,2.7218,2.8058,2.8903,2.9334,2.9996,3.0377,2.993,2.9503,2.9321,0.0,0.0,0.0,0.0,0.0,0.0,0.0,0.0,0.0,0.0,0.0,0.0,0.0,0.0,0.0,0.0,0.0,0.0,3.6222,0.0,3.5126,3.5962,3.4791,3.4364,3.4717,3.4364,3.4197,3.4197,3.4197,3.4197,3.4197,3.3998,3.3734,3.3524,3.4559,3.4836,3.4701,3.5532,3.6042,3.6353,3.6835,3.7491,3.8249,2.2585,0.0,2.4441,0.0,2.7214,2.7495,2.8136,2.7962,2.7622,2.7344,2.541,2.4151,2.4389,2.4125,2.3792,2.3422,2.3473,2.3448,2.3266,2.4153,2.4867,2.5264,2.5729,0.0,2.6825,2.647,2.6436,2.6691,2.6691,0.0,0.0,0.0,0.0,0.0,3.1793,3.3049,3.4197,3.4197,3.4326,3.4472,3.3657,3.2804,3.197,3.1137,3.0454,2.9888,2.9888,2.9681,2.9375,2.9314,2.9034,2.8694,2.8612,2.8562,2.837,2.7736,2.7517,2.7303,2.6674,2.6434,2.6329,2.6329,2.6274,2.6352,2.6849,2.7694,2.8638,2.9549,3.0162,3.0361,2.9831,2.9566,2.9483,2.9698,0.0,0.0,0.0,0.0,0.0,0.0,2.8118,2.8747,2.8425,0.0,0.0,0.0,0.0,0.0,0.0,0.0,0.0,0.0,0.0,0.0,0.0,3.4624,3.4197,3.4197,3.4197,3.4197,3.4197,3.4197,3.4327,3.4587,3.4678,3.4604,3.4483,3.549,3.5563,3.5183,3.6047,3.6498,3.6715,3.7284,3.8094,3.8991,2.3928,2.5695,2.732,2.8224,2.773,2.7349,2.7835,2.6506,2.556,2.5879,2.5198,2.4992,2.5783,2.4856,2.4171,2.4097,2.3919,2.4013,2.4551,2.437,2.4954,0.0,0.0,2.6319,2.7181,2.6858,2.6691,2.6691,0.0,0.0,2.6708,0.0,3.009,3.1243,3.2311,3.3306,3.4197,3.4197,3.4008,3.3638,3.2766,3.1933,3.1118,3.0248,2.9907,2.9888,2.9888,2.9769,2.957,2.9375,2.9163,2.8957,2.8687,2.8562,2.8414,2.801,2.7858,2.7701,2.7307,2.6956,2.6691,2.6691,2.6452,2.622,2.622,2.7346,2.8787,3.0212,3.0468,3.0526,3.051,2.9897,2.9648,3.0394,0.0,0.0,0.0,0.0,0.0,0.0,2.9093,2.9238,2.7405,0.0,0.0,0.0,0.0,0.0,0.0,0.0,0.0,3.5128,3.5358,0.0,3.5497,3.4624,3.4197,3.4197,3.4197,3.4197,3.4197,3.4197,3.4661,3.5516,3.6315,3.6562,3.6454,3.7576,3.7324,3.6201,3.6554,3.7029,3.7473,3.7491,3.8422,3.9681,2.6051,2.7064,2.7814,2.7907,2.8166,2.8184,2.7695,2.7286,2.6854,2.6371,2.6003,2.571,2.5512,2.4801,2.4266,0.0,2.4077,2.3985,0.0,2.4331,2.5069,2.5906,2.6279,2.6678,2.7195,2.7085,2.6923,2.6691,0.0,0.0,0.0,2.914,3.0357,3.126,3.2616,3.3174,3.3117,3.3247,3.3041,3.2562,3.1861,3.144,3.1099,3.0229,2.9888,2.9888,2.9888,2.9769,2.9589,2.9532,2.9272,2.898,2.8887,2.8669,2.8335,2.7961,2.7771,2.7654,2.7307,2.6956,2.6691,2.6691,2.682,2.6932,2.6932,2.8058,2.935,3.0311,3.0526,3.0526,3.0526,2.9914,2.9648,3.0394,2.9317,0.0,0.0,0.0,0.0,0.0,2.7114,2.7241,0.0,2.8765,0.0,0.0,0.0,0.0,0.0,0.0,0.0,0.0,3.508,0.0,3.5479,3.4624,3.4494,3.5089,3.5089,3.5089,3.507,3.4457,3.468,3.5497,3.5757,3.6081,3.6454,3.6994,3.682,3.6291,3.7131,3.748,3.7611,3.8629,3.9301,3.9767,2.6915,2.7689,2.8123,2.773,2.7831,2.78,2.7286,2.7024,2.6709,2.615,2.6024,2.5791,2.5341,2.4898,0.0,2.4422,2.432,2.4135,2.3785,2.4212,2.4771,2.541,2.5993,2.6556,2.7128,0.0,0.0,2.7068,2.6956,2.7468,2.863,2.963,3.0709,3.1845,3.2625,3.2858,3.2693,3.253,3.2182,3.1732,3.135,3.1004,3.0663,3.0097,2.9888,2.9888,2.9888,2.9822,2.9698,2.9626,2.9395,2.9097,2.892,2.8651,2.8353,2.8091,2.7979,2.7836,2.7612,2.7338,2.7068,2.7068,2.7386,2.7818,2.8226,2.8871,2.9615,3.0361,3.0526,3.0526,3.0526,3.0145,2.998,3.0444,2.9317,2.8412,2.8412,0.0,0.0,0.0,0.0,0.0,0.0,2.7947,0.0,0.0,0.0,0.0,0.0,0.0,0.0,3.533,3.4534,0.0,3.4996,3.4791,3.4959,3.5497,3.5795,3.5943,3.5925,3.5386,3.559,3.6389,3.6389,3.6801,3.7414,3.7503,3.729,3.6988,3.776,3.8039,3.8174,3.9295,3.9888,4.0215,2.6781,2.7699,0.0,0.0,2.6907,0.0,2.6605,2.5917,2.5422,2.5422,2.5422,2.5382,2.5313,2.5135,2.5003,2.4929,0.0,0.0,0.0,2.4114,2.4333,2.5254,2.5577,2.6161,2.7049,2.7487,2.773,2.7701,2.74,2.8146,2.9913,2.9994,3.0977,3.2616,3.227,3.2336,3.2664,3.1927,3.1424,3.1101,3.1101,3.0625,2.9888,2.9888,2.9888,2.9888,2.9888,2.9888,2.9872,2.9681,2.9456,2.923,2.8842,2.8583,2.838,2.8398,2.8291,2.82,2.8253,2.8039,2.7789,2.7841,2.8157,2.8749,2.9884,2.9772,2.9696,3.0402,3.0551,3.051,3.0526,3.0526,3.0526,3.0526,2.9317,2.8412,2.8412,0.0,0.0,0.0,0.0,0.0,0.0,2.7207,2.7909,0.0,0.0,0.0,0.0,0.0,3.4979,3.3704,3.3853,3.4109,3.434,3.5163,3.5609,3.5665,3.6426,3.6779,3.6779,3.6723,3.7132,3.7894,3.7894,3.8358,3.9073,3.8892,3.8546,3.8178,3.8488,3.8742,3.906,3.9582,4.0296,4.0888,0.0,0.0,2.7699,2.6901,2.6764,2.6565,2.5887,2.5615,2.548,2.548,2.548,2.5453,2.539,2.5327,2.5265,2.5149,2.4823,2.4626,2.4626,2.4966,2.5501,2.6252,2.6818,2.7349,2.7817,2.7958,2.7897,2.7701,2.7612,2.8084,2.9105,2.9361,3.006,3.1034,3.1207,3.1081,3.0765,3.0783,3.048,2.9982,3.0141,3.0078,2.9888,2.9888,2.9888,2.9888,2.9888,2.9888,2.9888,2.9855,2.957,2.9209,2.9104,2.8731,2.83,2.8264,2.8209,2.8324,2.8959,2.8882,2.875,2.9299,2.934,2.9593,3.1001,3.0754,3.0364,3.0853,3.0965,3.0845,3.0551,3.0526,3.0526,3.0526,2.9317,2.8412,2.8412,2.7131,0.0,0.0,2.6849,2.6998,2.6286,2.7679,2.8892,0.0,0.0,0.0,0.0,3.4763,3.4957,3.422,3.4604,3.5137,3.579,3.6218,3.6705,3.7318,3.7522,3.7615,3.7596,3.6965,3.7132,3.7894,3.7894,3.8358,3.9073,3.8892,3.8857,3.9009,3.946,3.9717,3.9904,4.0607,4.0886,4.0888,2.6823,2.7142,2.7086,2.6288,2.6242,2.6178,2.5664,2.5581,2.5581,2.5581,2.5581,2.5549,2.5403,2.5425,2.539,2.5214,2.4953,2.4794,2.4794,2.5394,2.5838,2.6037,2.7111,2.7729,2.7769,2.8146,2.8246,2.8101,2.7971,2.8362,2.9269,2.9298,2.9812,3.0733,3.0523,3.0327,3.0081,3.0002,2.9826,2.9626,2.9822,2.9888,2.9888,2.9888,2.9888,2.9888,2.9888,2.9888,2.9907,2.9874,2.9626,2.9332,2.923,2.885,2.8504,2.8802,2.855,2.8388,2.9191,2.9272,2.9313,3.0026,2.9986,3.0038,3.1185,3.1235,3.105,3.1099,3.1123,3.0965,3.0593,3.0526,3.041,3.0063,2.9102,2.8412,2.8412,2.7412,0.0,2.7164,2.7545,2.7665,2.7247,2.8102,2.8988,2.971,3.1573,0.0,3.3835,3.5066,3.5484,3.4957,3.5319,3.5752,3.6278,3.6933,3.7652,3.8451,3.8451,3.8451,3.8432,3.7986,3.8042,3.8451,3.8451,3.8637,3.8931,3.8851,3.8953,3.9264,3.9802,4.0099,4.0315,4.0976,4.1088,4.0888,2.6659,2.6888,2.6804,2.6197,2.5972,2.5874,2.5874,2.5777,2.5699,2.5699,2.5699,2.5625,2.5444,2.5467,2.5464,2.5401,2.5253,2.5126,2.5132,2.5872,2.6184,2.5875,2.7259,2.7915,2.7652,2.8268,2.8587,2.8587,2.8326,2.8667,2.9608,2.9332,2.9719,3.0604,2.9916,2.9751,2.9945,2.9487,2.9435,2.9662,2.9839,2.9888,2.9888,2.9888,2.9888,2.9888,2.9888,2.9888,2.9888,2.9806,2.9664,2.9453,2.9251,2.8915,2.8724,2.9493,2.9071,2.8538,2.9351,2.9583,2.9726,3.035,3.03,3.0275,3.1014,3.1463,3.1612,3.1244,3.1184,3.1044,3.0593,3.0526,3.0311,2.9682,2.8986,2.8539,2.8539,0.0,2.7715,2.8345,2.8472,2.8489,2.839,2.8472,2.882,2.9516,3.1577,3.2948,3.3218,3.5241,3.6254,3.59,3.6046,3.6303,3.6693,3.7599,3.8414,3.9101,3.9101,3.9101,3.9101,3.9101,3.9101,3.9101,3.9101,3.9007,3.8792,3.8792,3.9013,3.9428,3.9837,4.025,4.0648,4.1056,4.1088,4.0888,2.7699,2.7929,2.7946,2.7838,2.7199,2.6712,2.6712,2.6147,2.5699,2.5699,2.5699,2.5639,2.5498,2.5498,2.5711,2.6245,2.6271,2.6236,2.6168,2.7437,2.8129,2.8026,2.8745,2.9021,2.875,2.8639,2.8587,2.8587,2.8562,2.8616,2.8793,2.8742,2.8797,2.8974,2.8822,2.9028,2.9418,2.9349,2.9494,2.9855,2.9888,2.9888,2.9888,2.9888,2.9888,2.9888,2.9888,2.9888,2.9888,2.9806,2.9626,2.9392,2.9249,2.8892,2.8655,2.9467,2.9466,2.9387,3.0136,3.0332,3.0368,3.0475,3.0451,3.0617,3.1449,3.1653,3.1676,3.1612,3.1603,3.1376,3.0634,3.0526,3.0435,3.0361,2.9731,2.9251,2.9251,0.0,2.8296,2.8412,2.8903,2.9019,2.8439,2.8903,2.9566,3.0294,3.1351,3.2824,3.4737,3.5841,3.6684,3.7274,3.6888,3.7212,3.8405,3.8748,3.8971,3.9101,3.9101,3.9101,3.9101,3.9101,3.9101,3.9101,3.9101,3.9007,3.8792,3.8792,3.9323,4.0131,4.0034,4.0588,4.1402,4.1265,4.1088,4.0888,2.7979,2.7946,2.7862,2.8154,2.7628,2.7277,2.7569,2.6887,2.6342,2.6342,2.6342,2.613,2.5568,2.596,2.6321,2.6487,2.7383,2.7901,2.7772,2.8341,2.8657,2.8508,2.9157,2.9353,2.9003,2.8887,2.8743,2.8587,2.8587,2.8587,2.8612,2.8761,2.8834,2.8815,2.8938,2.9101,2.9314,2.9415,2.957,2.9734,2.9855,2.9888,2.9888,2.9888,2.9888,2.9907,2.9857,2.9841,2.9823,2.9682,2.9831,3.0085,2.9981,2.994,3.0122,3.0912,3.0602,3.0083,3.0422,3.0225,3.0011,3.0404,3.0511,3.0725,3.151,3.2028,3.2293,3.2057,3.2152,3.2008,3.0992,3.095,3.0858,3.0063,2.9632,0.0,0.0,2.9135,2.9085,2.9483,2.9814,3.0046,3.0129,3.041,3.0907,3.1636,3.2883,3.4103,3.5134,3.637,3.7202,3.7577,3.7623,3.8031,3.8773,3.8989,3.9101,3.9101,3.9101,3.9101,3.9101,3.9101,3.9101,3.912,3.9602,3.9568,3.9218,3.969,4.0215,4.0694,4.0499,4.0925,4.156,4.13,4.1088,4.0888,2.8028,2.8037,2.8017,2.8427,2.8154,2.8037,2.8446,2.7764,2.7199,2.7199,2.7199,2.6933,2.6212,2.6768,2.7179,2.7123,2.8415,2.9215,2.9232,2.9155,2.9053,2.8893,2.9342,2.9455,2.9141,2.9048,2.8887,2.8687,2.8687,2.8687,2.8712,2.8957,2.9071,2.9093,2.923,2.9334,2.9375,2.9514,2.9626,2.9681,2.9839,2.9888,2.9888,2.9888,2.9888,2.9874,2.9825,2.979,2.9755,2.9551,3.0034,3.0686,3.0556,3.0833,3.1336,3.2101,3.1585,3.0779,3.0779,3.0225,2.9797,3.0368,3.0654,3.0993,3.1796,3.2599,3.3108,3.2897,3.3049,3.2959,3.1969,3.1847,3.1516,3.0259,0.0,0.0,0.0,2.993,3.0195,3.094,3.1023,3.1239,3.1818,3.1868,3.2166,3.2895,3.4236,3.5132,3.5428,3.6717,3.7503,3.7594,3.8052,3.8433,3.8621,3.8873,3.911,3.9295,3.9166,3.9212,3.938,3.9166,3.9073,3.9138,3.9779,3.9866,3.9571,4.0156,4.0691,4.1011,4.0742,4.1006,4.1453,4.1209,4.1041,4.0888,2.8033,2.8816,2.9357,2.9396,2.9377,2.9357,2.9396,2.8656,2.8095,2.8095,2.8095,2.8072,2.8013,2.8052,2.8357,2.8945,2.9193,2.9545,3.0171,3.0117,3.0066,2.9992,2.9732,2.9589,2.957,2.9206,2.898,2.898,2.898,2.898,2.898,2.9166,2.9272,2.9272,2.9293,2.9415,2.9589,2.9589,2.9698,2.9872,2.9888,2.9888,2.9888,2.9888,2.9857,2.9808,2.9808,2.9755,2.9683,2.955,3.0034,3.0626,3.0323,3.0674,3.131,3.1888,3.1835,3.1599,3.1599,3.1028,3.044,3.0493,3.1064,3.1813,3.2616,3.3419,3.4104,3.4446,3.4549,3.4419,3.3969,3.33,3.2625,3.2167,0.0,0.0,3.1397,3.1427,3.1719,3.2448,3.2531,3.2547,3.2597,3.2613,3.2911,3.3657,3.4253,3.5019,3.6069,3.6649,3.715,3.7594,3.788,3.8052,3.8052,3.859,3.919,3.9939,3.9388,3.951,4.0271,3.9388,3.9036,3.9101,3.9091,3.9271,3.9483,3.9367,3.991,4.0784,4.0333,4.061,4.1209,4.1012,4.0918,4.0888,2.8037,2.8193,2.8474,2.9347,2.877,2.8669,3.0092,2.957,2.9007,2.9007,2.9007,2.8792,2.8271,2.8675,2.9094,2.9315,2.9796,3.0181,3.0348,3.026,3.0128,2.9972,2.9855,2.9716,2.9608,2.9455,2.9314,2.9185,2.9185,2.9185,2.9206,2.9395,2.9494,2.9494,2.9626,2.9716,2.9787,2.9787,2.9839,2.9888,2.9888,2.9888,2.9907,2.9857,2.9806,2.979,2.9645,2.9608,2.9625,3.0048,3.0714,3.1414,3.1684,3.2279,3.2865,3.2766,3.2606,3.242,3.242,3.1492,3.0618,3.1118,3.1474,3.2028,3.3348,3.3883,3.4278,3.4888,3.5188,3.5142,3.4574,3.4397,3.4128,3.3527,0.0,3.257,3.2706,3.2457,3.2381,3.2646,3.268,3.2862,3.3326,3.3375,3.3794,3.4846,3.5307,3.5855,3.6586,3.7073,3.7411,3.7577,3.7685,3.781,3.7984,3.835,3.8799,3.9264,3.8932,3.9039,3.9517,3.9155,3.9007,3.9091,3.9963,4.024,4.0129,4.0851,4.1252,4.1253,4.0926,4.0965,4.1163,4.0965,4.0888,4.0888,2.7644,2.7722,2.8044,2.9277,2.8937,2.899,3.0557,3.029,2.992,2.9907,2.9903,2.9669,2.9085,2.9528,2.9852,2.9783,3.0277,3.0548,3.0432,3.0311,3.0123,2.9905,2.9888,2.9839,2.9698,2.9626,2.9532,2.9395,2.9395,2.9395,2.9395,2.9608,2.9698,2.9698,2.9839,2.9888,2.9888,2.9888,2.9888,2.9888,2.9888,2.9888,2.9888,2.9842,2.979,2.9737,2.9551,2.9491,2.9582,3.0339,3.1114,3.1908,3.2508,3.3146,3.3625,3.3291,3.3055,3.2916,3.2916,3.2277,3.176,3.2313,3.2456,3.2866,3.4454,3.4829,3.5043,3.5792,3.6148,3.6158,3.5701,3.5583,3.537,3.4753,3.4185,3.3813,3.3761,3.3453,3.329,3.3387,3.3375,3.3574,3.4087,3.4137,3.4522,3.5436,3.582,3.6232,3.6799,3.7261,3.7484,3.7392,3.7392,3.7503,3.7703,3.8,3.8445,3.8925,3.8632,3.8726,3.9165,3.928,3.9261,3.9227,4.0451,4.0917,4.0781,4.1497,4.1669,4.1453,4.1226,4.1134,4.1088,4.0965,4.0888,4.0888,2.6832,2.7652,2.8479,2.9351,3.0211,3.0793,3.0796,3.0794,3.0801,3.0804,3.0799,3.0799,3.0799,3.0739,3.0672,3.061,3.0602,3.0567,3.0509,3.0367,3.018,2.9905,2.9888,2.9888,2.9888,2.9698,2.9608,2.9608,2.9608,2.9608,2.9608,2.9822,2.9888,2.9888,2.9888,2.9888,2.9888,2.9888,2.9888,2.9888,2.9907,2.9888,2.9888,2.9842,2.9774,2.9683,2.955,2.9451,2.9537,3.0355,3.1154,3.1927,3.2508,3.2931,3.319,3.322,3.3055,3.2916,3.2916,3.3491,3.4115,3.4115,3.4115,3.4508,3.6042,3.6399,3.6631,3.7416,3.7577,3.7577,3.7577,3.6934,3.6274,3.5872,3.5219,3.4652,3.4516,3.4506,3.46,3.4894,3.4899,3.4899,3.4899,3.4899,3.4994,3.5291,3.5515,3.5881,3.6574,3.7048,3.722,3.7027,3.6987,3.6987,3.6987,3.7449,3.8187,3.9174,3.8561,3.8711,3.9509,3.9827,3.9795,3.9531,4.027,4.0944,4.1407,4.0719,4.0727,4.1163,4.0965,4.0888,4.0888,4.0888,4.0888,4.0888,2.7064,2.7689,2.855,2.9414,2.9741,3.0081,3.0712,3.0807,3.0793,3.0804,3.0799,3.0799,3.0799,3.0739,3.0691,3.0672,3.0622,3.054,3.0367,3.0318,3.018,2.9905,2.9888,2.9888,2.9888,2.9839,2.9822,2.9822,2.9822,2.9822,2.9822,2.9872,2.9888,2.9888,2.9888,2.9888,2.9888,2.9888,2.9888,2.9945,3.0464,3.0333,2.9863,3.0283,3.0431,3.0335,2.9656,3.0134,3.1136,3.1377,3.1968,3.2767,3.3512,3.3488,3.325,3.3444,3.3592,3.3616,3.3045,3.3865,3.4757,3.424,3.4508,3.515,3.6167,3.6399,3.6631,3.7416,3.7577,3.7577,3.7577,3.738,3.7184,3.7093,3.662,3.6225,3.6214,3.5904,3.5737,3.5786,3.5803,3.5776,3.5616,3.5616,3.5705,3.5958,3.6385,3.6673,3.6891,3.7009,3.7066,3.6987,3.6987,3.6948,3.6806,3.7354,3.7847,3.8272,3.8056,3.8325,3.9032,3.9392,3.9498,3.9452,4.0691,4.1058,4.0754,4.0911,4.0983,4.0965,4.0918,4.0888,4.0888,4.0888,4.0888,4.0888,2.8066,2.8457,2.9082,2.9936,3.0039,3.0193,3.0719,3.0801,3.0794,3.0804,3.0774,3.0764,3.0764,3.071,3.0658,3.0658,3.0618,3.054,3.0348,3.0318,3.0194,2.9984,2.9921,2.9888,2.9888,2.9888,2.9888,2.9888,2.9888,2.9888,2.9888,2.9888,2.9888,2.9888,2.9888,2.9888,2.9888,2.9874,2.9857,2.9895,3.0319,3.0189,2.9831,3.0468,3.0501,3.0238,3.032,3.0782,3.1433,3.2061,3.2804,3.3547,3.4048,3.3823,3.3441,3.3894,3.4068,3.4062,3.3865,3.4722,3.5578,3.5132,3.5346,3.5899,3.6684,3.6863,3.7006,3.7487,3.7577,3.7577,3.7577,3.7577,3.7577,3.7577,3.7374,3.7111,3.6939,3.658,3.6291,3.6105,3.6037,3.5907,3.5793,3.5793,3.5941,3.6259,3.665,3.6869,3.6869,3.6869,3.6829,3.6731,3.6713,3.665,3.6544,3.7069,3.7536,3.7988,3.795,3.8294,3.9009,3.9875,4.0077,3.9799,4.1184,4.1403,4.0832,4.1,4.0995,4.0888,4.0888,4.0888,4.0888,4.0888,4.0888,4.0888,2.9469,2.9664,2.9936,3.0667,3.0801,3.0793,3.0799,3.0796,3.0806,3.0789,3.0739,3.0703,3.0697,3.0637,3.0602,3.0602,3.0606,3.055,3.0398,3.0343,3.024,3.0109,2.9969,2.9888,2.9888,2.9888,2.9888,2.9888,2.9888,2.9888,2.9888,2.9888,2.9888,2.9888,2.9888,2.9888,2.9891,2.9806,2.9828,2.9903,2.9832,2.9777,2.987,3.054,3.0331,2.9902,3.1306,3.1433,3.1154,3.26,3.364,3.4309,3.4309,3.4086,3.3933,3.4524,3.455,3.4452,3.4954,3.5792,3.6524,3.6417,3.6453,3.6684,3.7416,3.7577,3.7577,3.7577,3.7577,3.7577,3.7577,3.7577,3.7577,3.7577,3.7577,3.7411,3.6995,3.6776,3.6492,3.6037,3.5854,3.5711,3.5711,3.5667,3.5827,3.6259,3.6544,3.6643,3.6643,3.6643,3.6596,3.6404,3.6404,3.6439,3.6508,3.6888,3.7404,3.8111,3.8111,3.8497,3.9294,4.0802,4.11,4.0446,4.1611,4.1864,4.1401,4.1041,4.0888,4.0888,4.0888,4.0888,4.0888,4.0888,4.0888,4.0888,2.9693,3.0103,3.0589,3.0762,3.0792,3.08,3.0798,3.0808,3.0785,3.072,3.0703,3.0691,3.0704,3.0642,3.0602,3.0602,3.0606,3.055,3.0398,3.0343,3.024,3.0109,2.9969,2.9888,2.9888,2.9888,2.9888,2.9888,2.9888,2.9888,2.9888,2.9888,2.9888,2.9888,2.9841,2.9806,2.9825,2.9756,3.0095,3.0659,3.0544,3.0485,3.0558,3.1294,3.1455,3.1343,3.1675,3.2488,3.3473,3.3807,3.4494,3.5219,3.5219,3.5339,3.5392,3.4918,3.5452,3.5921,3.47,3.5964,3.7431,3.6612,3.6863,3.738,3.7541,3.7577,3.7577,3.7577,3.7577,3.7577,3.7577,3.7577,3.7577,3.7577,3.7484,3.7334,3.7241,3.7048,3.6891,3.6753,3.6713,3.665,3.6478,3.6276,3.6174,3.6301,3.6343,3.6402,3.6402,3.6402,3.6636,3.7215,3.7232,3.7508,3.8094,3.8165,3.8198,3.8111,3.8111,3.8659,3.97,4.0359,4.0546,4.0367,4.127,4.1418,4.1041,4.0918,4.0888,4.0888,4.0888,4.0888,4.0888,4.0888,4.0888,4.0888,3.0255,3.0509,3.0801,3.0801,3.0808,3.0798,3.0798,3.0808,3.0781,3.0714,3.0672,3.0644,3.0642,3.0621,3.0595,3.0595,3.0955,3.1119,3.1033,3.0987,3.0913,3.0767,3.071,3.0662,3.0662,3.102,3.0766,2.9888,2.9888,2.9888,2.9888,2.9888,2.9872,2.9857,2.9825,2.9773,2.9775,3.0058,3.0206,3.03,3.0945,3.0977,3.0772,3.1916,3.2117,3.1894,3.2655,3.3491,3.4197,3.4197,3.4494,3.4866,3.4866,3.5217,3.5567,3.553,3.6121,3.6684,3.6103,3.6859,3.7685,3.7095,3.7273,3.7577,3.7577,3.7577,3.7577,3.7577,3.7577,3.7577,3.7577,3.7577,3.7577,3.7577,3.7447,3.7297,3.7297,3.7027,3.6846,3.6846,3.6731,3.6609,3.6544,3.6748,3.687,3.687,3.7198,3.7387,3.7387,3.7387,3.7577,3.7991,3.8008,3.8198,3.8594,3.8594,3.8693,3.886,3.886,3.939,4.0358,4.0744,4.0806,4.0617,4.1226,4.1283,4.0888,4.0888,4.0888,4.0888,4.0888,4.0888,4.0888,4.0888,4.0888,4.0888,3.0801,3.0801,3.0801,3.0801,3.0801,3.0811,3.08,3.0808,3.0778,3.0703,3.063,3.0602,3.0593,3.0597,3.0598,3.0598,3.1352,3.1786,3.1711,3.1854,3.1864,3.177,3.1724,3.1724,3.1724,3.2301,3.1797,3.0165,3.0132,3.0116,3.0099,3.0099,3.0048,2.998,3.0113,3.0076,2.9908,3.0596,3.0592,3.0199,3.1343,3.1489,3.1151,3.2488,3.2581,3.2191,3.3658,3.429,3.442,3.442,3.4587,3.4829,3.4829,3.5258,3.5828,3.638,3.6803,3.7166,3.7675,3.7737,3.7649,3.7613,3.7577,3.7577,3.7577,3.7577,3.7577,3.7577,3.7577,3.7577,3.7577,3.7577,3.7577,3.7577,3.7447,3.7297,3.7259,3.6926,3.6702,3.6643,3.6444,3.6353,3.649,3.7094,3.7542,3.7663,3.8232,3.8594,3.8594,3.8594,3.8646,3.8767,3.8784,3.8836,3.8974,3.8974,3.9284,3.9905,3.9905,4.0233,4.0918,4.1237,4.1209,4.0935,4.1237,4.1209,4.0888,4.0888,4.0888,4.0888,4.0888,4.0888,4.0888,4.0888,4.0888,4.0888,3.0801,3.0801,3.0801,3.0801,3.086,3.0868,3.0801,3.0804,3.0784,3.0722,3.0637,3.0593,3.0588,3.0598,3.0598,3.0598,3.1352,3.1806,3.1796,3.2439,3.2817,3.2805,3.2692,3.262,3.262,3.2607,3.2149,3.12,3.1073,3.0953,3.0845,3.0845,3.0809,3.0772,3.1424,3.1269,3.0615,3.1328,3.1991,3.2474,3.2009,3.2135,3.2692,3.2915,3.2915,3.2953,3.3863,3.468,3.5312,3.5312,3.624,3.7392,3.7392,3.7813,3.8166,3.7606,3.7766,3.7994,3.7166,3.746,3.788,3.7649,3.7577,3.7577,3.7577,3.7577,3.7577,3.7577,3.7577,3.7577,3.7577,3.7577,3.7577,3.7577,3.7447,3.722,3.7066,3.6846,3.6602,3.6402,3.6301,3.6559,3.7267,3.7422,3.7749,3.8387,3.8525,3.8594,3.8594,3.8594,3.8888,3.9526,3.9543,3.9888,4.056,4.0578,4.0629,4.0716,4.0716,4.0767,4.0888,4.0965,4.0965,4.0871,4.0965,4.0965,4.0888,4.0888,4.0888,4.0888,4.0888,4.0888,4.0888,4.0888,4.0888,4.0888,3.0801,3.0801,3.0801,3.0801,3.086,3.087,3.0817,3.0762,3.072,3.0661,3.0632,3.0597,3.0598,3.0598,3.0772,3.1236,3.2048,3.2725,3.3228,3.3583,3.3572,3.3079,3.3469,3.3477,3.2983,3.3638,3.3592,3.2806,3.2157,3.1788,3.1713,3.1657,3.1579,3.1534,3.1848,3.1728,3.1365,3.2139,3.2414,3.2377,3.2915,3.3083,3.3045,3.3491,3.3658,3.3714,3.4067,3.4754,3.5497,3.5497,3.6259,3.7225,3.7225,3.7728,3.8238,3.7868,3.807,3.831,3.7816,3.7747,3.7757,3.7613,3.7577,3.7577,3.7577,3.7577,3.7577,3.7577,3.7577,3.7577,3.7577,3.7521,3.7447,3.7447,3.7182,3.6926,3.6846,3.6626,3.6444,3.6301,3.6697,3.7094,3.7456,3.8232,3.8853,3.9181,3.9612,3.9871,3.9871,3.9871,4.0008,4.0353,4.0353,4.0526,4.0888,4.0888,4.0888,4.0888,4.0888,4.0888,4.0888,4.0888,4.0888,4.0888,4.0888,4.0888,4.0888,4.0888,4.0888,4.0888,4.0888,4.0823,4.0793,4.0793,4.0728,4.068]},{"header":{"parameterUnit":"m.s-1","parameterCategory":1,"la1":30.6,"la2":28.766,"lo1":-90.7593,"lo2":-88.6598,"dy":0.0162,"dx":0.0183,"nx":116,"ny":114,"refTime":"2024-04-02T18:00:00:Z","depth":0,"parameterNumber":3,"parameterNumberName":"V-component_of_WINDS"},"data":[0.0,0.0,0.0,0.0,0.0,0.0,0.0,0.0,0.0,0.0,0.0,0.0,0.0,0.0,0.0,0.0,0.0,0.0,0.0,0.0,0.0,0.0,0.0,0.0,0.0,0.0,0.0,0.0,0.0,0.0,0.0,0.0,0.0,0.0,0.0,0.0,0.0,0.0,0.0,0.0,0.0,0.0,0.0,0.0,0.0,0.0,0.0,0.0,0.0,0.0,0.0,0.0,0.0,0.0,0.0,0.0,0.0,0.0,0.0,0.0,0.0,0.0,0.0,0.0,0.0,0.0,0.0,0.0,0.0,0.0,0.0,0.0,0.0,0.0,0.0,0.0,0.0,0.0,0.0,0.0,0.0,0.0,0.0,0.0,0.0,0.0,0.0,0.0,0.0,0.0,0.0,0.0,0.0,0.0,0.0,0.0,0.0,0.0,0.0,0.0,0.0,0.0,0.0,0.0,0.0,0.0,0.0,0.0,0.0,0.0,0.0,0.0,0.0,0.0,0.0,0.0,0.0,0.0,0.0,0.0,0.0,0.0,0.0,0.0,0.0,0.0,0.0,0.0,0.0,0.0,0.0,0.0,0.0,0.0,0.0,0.0,0.0,0.0,0.0,0.0,0.0,0.0,0.0,0.0,0.0,0.0,0.0,0.0,0.0,0.0,0.0,0.0,0.0,0.0,0.0,0.0,0.0,0.0,0.0,0.0,0.0,0.0,0.0,0.0,0.0,0.0,0.0,0.0,0.0,0.0,0.0,0.0,0.0,0.0,0.0,0.0,0.0,0.0,0.0,0.0,0.0,0.0,0.0,0.0,0.0,0.0,0.0,0.0,0.0,0.0,0.0,0.0,0.0,0.0,0.0,0.0,0.0,0.0,0.0,0.0,0.0,0.0,0.0,0.0,0.0,0.0,0.0,0.0,0.0,0.0,0.0,0.0,0.0,0.0,0.0,0.0,0.0,0.0,0.0,0.0,0.0,0.0,0.0,0.0,0.0,0.0,0.0,0.0,0.0,0.0,0.0,0.0,0.0,0.0,0.0,0.0,0.0,0.0,0.0,0.0,0.0,0.0,0.0,0.0,0.0,0.0,0.0,0.0,0.0,0.0,0.0,0.0,0.0,0.0,0.0,0.0,0.0,0.0,0.0,0.0,0.0,0.0,0.0,0.0,0.0,0.0,0.0,0.0,0.0,0.0,0.0,0.0,0.0,0.0,0.0,0.0,0.0,0.0,0.0,0.0,0.0,0.0,0.0,0.0,0.0,0.0,0.0,0.0,0.0,0.0,0.0,0.0,0.0,0.0,0.0,0.0,0.0,0.0,0.0,0.0,0.0,0.0,0.0,0.0,0.0,0.0,0.0,0.0,0.0,0.0,0.0,0.0,0.0,0.0,0.0,0.0,0.0,0.0,0.0,0.0,0.0,0.0,0.0,0.0,0.0,0.0,0.0,0.0,0.0,0.0,0.0,0.0,0.0,0.0,0.0,0.0,0.0,0.0,0.0,0.0,0.0,0.0,0.0,0.0,0.0,0.0,0.0,0.0,0.0,0.0,0.0,0.0,0.0,0.0,0.0,0.0,0.0,0.0,0.0,0.0,0.0,0.0,0.0,0.0,0.0,0.0,0.0,0.0,0.0,0.0,0.0,0.0,0.0,0.0,0.0,0.0,0.0,0.0,0.0,0.0,0.0,0.0,0.0,0.0,0.0,0.0,0.0,0.0,0.0,0.0,0.0,0.0,0.0,0.0,0.0,0.0,0.0,0.0,0.0,0.0,0.0,0.0,0.0,0.0,0.0,0.0,0.0,0.0,0.0,0.0,0.0,0.0,0.0,0.0,0.0,0.0,0.0,0.0,0.0,0.0,0.0,0.0,0.0,0.0,0.0,0.0,0.0,0.0,0.0,0.0,0.0,0.0,0.0,0.0,0.0,0.0,0.0,0.0,0.0,0.0,0.0,0.0,0.0,0.0,0.0,0.0,0.0,0.0,0.0,0.0,0.0,0.0,0.0,0.0,0.0,0.0,0.0,0.0,0.0,0.0,0.0,0.0,0.0,0.0,0.0,0.0,0.0,0.0,0.0,0.0,0.0,0.0,0.0,0.0,0.0,0.0,0.0,0.0,0.0,0.0,0.0,0.0,0.0,0.0,0.0,0.0,0.0,0.0,0.0,0.0,0.0,0.0,0.0,0.0,0.0,0.0,0.0,0.0,0.0,0.0,0.0,0.0,0.0,0.0,0.0,0.0,0.0,0.0,0.0,0.0,0.0,0.0,0.0,0.0,0.0,0.0,0.0,0.0,0.0,0.0,0.0,0.0,0.0,0.0,0.0,0.0,0.0,0.0,0.0,0.0,0.0,0.0,0.0,0.0,0.0,0.0,0.0,0.0,0.0,0.0,0.0,0.0,0.0,0.0,0.0,0.0,0.0,0.0,0.0,0.0,0.0,0.0,0.0,0.0,0.0,0.0,0.0,0.0,0.0,0.0,0.0,0.0,0.0,0.0,0.0,0.0,0.0,0.0,0.0,0.0,0.0,0.0,0.0,0.0,0.0,0.0,0.0,0.0,0.0,0.0,0.0,0.0,0.0,0.0,0.0,0.0,0.0,0.0,0.0,0.0,0.0,0.0,0.0,0.0,0.0,0.0,0.0,0.0,0.0,0.0,0.0,0.0,0.0,0.0,0.0,0.0,0.0,0.0,0.0,0.0,0.0,0.0,0.0,0.0,0.0,0.0,0.0,0.0,0.0,0.0,0.0,0.0,0.0,0.0,0.0,0.0,0.0,0.0,0.0,0.0,0.0,0.0,0.0,0.0,0.0,0.0,0.0,0.0,0.0,0.0,0.0,0.0,0.0,0.0,0.0,0.0,0.0,0.0,0.0,0.0,0.0,0.0,0.0,0.0,0.0,0.0,0.0,0.0,0.0,0.0,0.0,0.0,0.0,0.0,0.0,0.0,0.0,0.0,0.0,0.0,0.0,0.0,0.0,0.0,0.0,0.0,0.0,0.0,0.0,0.0,0.0,0.0,0.0,0.0,0.0,0.0,0.0,0.0,0.0,0.0,0.0,0.0,0.0,0.0,0.0,0.0,0.0,0.0,0.0,0.0,0.0,0.0,0.0,0.0,0.0,0.0,0.0,0.0,0.0,0.0,0.0,0.0,0.0,0.0,0.0,0.0,0.0,0.0,0.0,0.0,0.0,0.0,0.0,0.0,0.0,0.0,0.0,0.0,0.0,0.0,0.0,0.0,0.0,0.0,0.0,0.0,0.0,0.0,0.0,0.0,0.0,0.0,0.0,0.0,0.0,0.0,0.0,0.0,0.0,0.0,0.0,0.0,0.0,0.0,0.0,0.0,0.0,0.0,0.0,0.0,0.0,0.0,0.0,0.0,0.0,0.0,0.0,0.0,0.0,0.0,0.0,0.0,0.0,0.0,0.0,0.0,0.0,0.0,0.0,0.0,0.0,0.0,0.0,0.0,0.0,0.0,0.0,0.0,0.0,0.0,0.0,0.0,0.0,0.0,0.0,0.0,0.0,0.0,0.0,0.0,0.0,0.0,0.0,0.0,0.0,0.0,0.0,0.0,0.0,0.0,0.0,0.0,0.0,0.0,0.0,0.0,0.0,0.0,0.0,0.0,0.0,0.0,0.0,0.0,0.0,0.0,0.0,0.0,0.0,0.0,0.0,0.0,0.0,0.0,0.0,0.0,0.0,0.0,0.0,0.0,0.0,0.0,0.0,0.0,0.0,0.0,0.0,0.0,0.0,0.0,0.0,0.0,0.0,0.0,0.0,0.0,0.0,0.0,0.0,0.0,0.0,0.0,0.0,0.0,0.0,0.0,0.0,0.0,0.0,0.0,0.0,0.0,0.0,0.0,0.0,0.0,0.0,0.0,0.0,0.0,0.0,0.0,0.0,0.0,0.0,0.0,0.0,0.0,0.0,0.0,0.0,0.0,0.0,0.0,0.0,0.0,0.0,0.0,0.0,0.0,0.0,0.0,0.0,0.0,0.0,0.0,0.0,0.0,0.0,0.0,0.0,0.0,0.0,0.0,0.0,0.0,0.0,0.0,0.0,0.0,0.0,0.0,0.0,0.0,0.0,0.0,0.0,0.0,0.0,0.0,0.0,0.0,0.0,0.0,0.0,0.0,0.0,0.0,0.0,0.0,0.0,0.0,0.0,0.0,0.0,0.0,0.0,0.0,0.0,0.0,0.0,0.0,0.0,0.0,0.0,0.0,0.0,0.0,0.0,0.0,0.0,0.0,0.0,0.0,0.0,0.0,0.0,0.0,0.0,0.0,0.0,0.0,0.0,0.0,0.0,0.0,0.0,0.0,0.0,0.0,0.0,0.0,0.0,0.0,0.0,0.0,0.0,0.0,0.0,0.0,0.0,0.0,0.0,0.0,0.0,0.0,0.0,0.0,0.0,0.0,0.0,0.0,0.0,0.0,0.0,0.0,0.0,0.0,0.0,0.0,0.0,0.0,0.0,0.0,0.0,0.0,0.0,0.0,0.0,0.0,0.0,0.0,0.0,0.0,0.0,0.0,0.0,0.0,0.0,0.0,0.0,0.0,0.0,0.0,0.0,0.0,0.0,0.0,0.0,0.0,0.0,0.0,0.0,0.0,0.0,0.0,0.0,0.0,0.0,0.0,0.0,0.0,0.0,0.0,0.0,0.0,0.0,0.0,0.0,0.0,0.0,0.0,0.0,0.0,0.0,0.0,0.0,0.0,0.0,0.0,0.0,0.0,0.0,0.0,0.0,0.0,0.0,0.0,0.0,0.0,0.0,0.0,0.0,0.0,0.0,0.0,0.0,0.0,0.0,0.0,0.0,0.0,0.0,0.0,0.0,0.0,0.0,0.0,0.0,0.0,0.0,0.0,0.0,0.0,0.0,0.0,0.0,0.0,0.0,0.0,0.0,0.0,0.0,0.0,0.0,0.0,0.0,0.0,0.0,0.0,0.0,0.0,0.0,0.0,0.0,0.0,0.0,0.0,0.0,0.0,0.0,0.0,0.0,0.0,0.0,0.0,0.0,0.0,0.0,0.0,0.0,0.0,0.0,0.0,0.0,0.0,0.0,0.0,0.0,0.0,0.0,0.0,0.0,0.0,0.0,0.0,0.0,0.0,0.0,0.0,0.0,0.0,0.0,0.0,0.0,0.0,0.0,0.0,0.0,0.0,0.0,0.0,0.0,0.0,0.0,0.0,0.0,0.0,0.0,0.0,0.0,0.0,0.0,0.0,0.0,0.0,0.0,0.0,0.0,0.0,0.0,0.0,0.0,0.0,0.0,0.0,0.0,0.0,0.0,0.0,0.0,0.0,0.0,0.0,0.0,0.0,0.0,0.0,0.0,0.0,0.0,0.0,0.0,0.0,0.0,0.0,0.0,0.0,0.0,0.0,0.0,0.0,0.0,0.0,0.0,0.0,0.0,0.0,0.0,0.0,0.0,0.0,0.0,0.0,0.0,0.0,0.0,0.0,0.0,0.0,0.0,0.0,0.0,0.0,0.0,0.0,0.0,0.0,0.0,0.0,0.0,0.0,0.0,0.0,0.0,0.0,0.0,0.0,0.0,0.0,0.0,0.0,0.0,0.0,0.0,0.0,0.0,0.0,0.0,0.0,0.0,0.0,0.0,0.0,0.0,0.0,0.0,0.0,0.0,0.0,0.0,0.0,0.0,0.0,0.0,0.0,0.0,0.0,0.0,0.0,0.0,0.0,0.0,0.0,0.0,0.0,0.0,0.0,0.0,0.0,0.0,0.0,0.0,0.0,0.0,0.0,0.0,0.0,0.0,0.0,0.0,0.0,0.0,0.0,0.0,0.0,0.0,0.0,0.0,0.0,0.0,0.0,0.0,0.0,0.0,0.0,0.0,0.0,0.0,0.0,0.0,0.0,0.0,0.0,0.0,0.0,0.0,0.0,0.0,0.0,0.0,0.0,0.0,0.0,0.0,0.0,0.0,0.0,0.0,0.0,0.0,0.0,0.0,0.0,0.0,0.0,0.0,0.0,0.0,0.0,0.0,0.0,0.0,0.0,0.0,0.0,0.0,0.0,0.0,0.0,0.0,0.0,0.0,0.0,0.0,0.0,0.0,0.0,0.0,0.0,-3.1359,0.0,0.0,0.0,0.0,0.0,0.0,0.0,0.0,0.0,0.0,0.0,0.0,0.0,0.0,0.0,0.0,0.0,0.0,0.0,0.0,0.0,0.0,0.0,0.0,-1.8269,-1.8405,-1.8617,-1.8741,-1.8808,-1.8942,0.0,0.0,0.0,0.0,0.0,-1.9584,-1.9584,-2.0096,-2.1037,-2.1312,-2.1952,-2.3059,-2.3278,-2.4035,-2.5222,0.0,0.0,0.0,0.0,0.0,0.0,0.0,0.0,0.0,0.0,0.0,0.0,0.0,0.0,0.0,0.0,0.0,0.0,0.0,0.0,0.0,0.0,0.0,0.0,0.0,0.0,0.0,0.0,0.0,0.0,0.0,0.0,0.0,0.0,0.0,0.0,0.0,0.0,0.0,0.0,0.0,0.0,0.0,0.0,0.0,0.0,0.0,0.0,0.0,0.0,0.0,0.0,0.0,0.0,0.0,0.0,0.0,0.0,0.0,0.0,0.0,0.0,0.0,0.0,0.0,0.0,0.0,0.0,0.0,0.0,0.0,-3.142,0.0,0.0,0.0,0.0,0.0,0.0,0.0,0.0,0.0,0.0,0.0,0.0,0.0,0.0,0.0,0.0,0.0,0.0,0.0,0.0,0.0,-1.7997,-1.8192,-1.8269,-1.8337,-1.8482,-1.8617,-1.8741,-1.8808,-1.8942,-1.9065,-1.9075,-1.9075,-1.9396,-2.0107,-2.0096,-2.073,-2.2051,-2.2175,-2.2494,-2.3078,-2.3078,-2.3566,0.0,-2.5084,0.0,0.0,0.0,0.0,0.0,0.0,0.0,0.0,0.0,0.0,0.0,0.0,0.0,0.0,0.0,0.0,0.0,0.0,0.0,0.0,0.0,0.0,0.0,0.0,0.0,0.0,0.0,0.0,0.0,0.0,0.0,0.0,0.0,0.0,0.0,0.0,0.0,0.0,0.0,0.0,0.0,0.0,0.0,0.0,0.0,0.0,0.0,0.0,0.0,0.0,0.0,0.0,0.0,0.0,0.0,0.0,0.0,0.0,0.0,0.0,0.0,0.0,0.0,-3.2124,-3.2096,-3.1994,-3.1994,-3.1831,-3.1516,-3.179,-3.1576,-3.1041,0.0,0.0,0.0,0.0,0.0,0.0,0.0,0.0,0.0,0.0,0.0,0.0,0.0,0.0,0.0,0.0,0.0,0.0,0.0,0.0,-1.7607,-1.7969,-1.8008,-1.8144,-1.8337,-1.8337,-1.8472,-1.8808,-1.8808,-1.8942,-1.9075,-1.9075,-1.9396,-2.0107,-2.0096,-2.0666,-2.1939,-2.2519,-2.2836,-2.2909,-2.3078,0.0,-2.3315,-2.3954,-2.4532,0.0,0.0,0.0,0.0,0.0,0.0,0.0,0.0,0.0,0.0,0.0,0.0,0.0,0.0,0.0,0.0,0.0,0.0,0.0,0.0,0.0,0.0,0.0,0.0,0.0,0.0,0.0,0.0,0.0,0.0,0.0,0.0,0.0,0.0,0.0,0.0,0.0,0.0,0.0,0.0,0.0,0.0,-2.9049,-2.9104,0.0,0.0,0.0,0.0,0.0,0.0,0.0,0.0,0.0,0.0,0.0,0.0,0.0,-3.0872,-3.0919,-3.1358,-3.1774,-3.2285,-3.2673,-3.3076,-3.3504,-3.3504,-3.3786,-3.4203,-3.3011,0.0,-3.1405,-3.1473,0.0,0.0,0.0,0.0,0.0,0.0,0.0,0.0,0.0,0.0,0.0,0.0,0.0,0.0,0.0,0.0,0.0,0.0,0.0,0.0,0.0,-1.7513,-1.7579,-1.8066,-1.7852,-1.7746,-1.8111,-1.8289,-1.8383,-1.8202,-1.8255,-1.8935,-2.025,-1.9819,-2.0258,-2.1741,-2.2469,-2.28,-2.28,0.0,0.0,0.0,-2.4192,-2.4835,-2.5472,0.0,0.0,0.0,0.0,0.0,0.0,0.0,0.0,0.0,0.0,0.0,0.0,0.0,0.0,0.0,0.0,0.0,0.0,0.0,0.0,0.0,0.0,0.0,0.0,0.0,0.0,0.0,0.0,0.0,0.0,0.0,0.0,0.0,0.0,0.0,0.0,0.0,0.0,0.0,0.0,-2.8642,-2.895,-2.8758,-2.8689,-2.8514,0.0,0.0,0.0,0.0,0.0,0.0,0.0,0.0,0.0,-3.0992,-3.0881,-3.0969,-3.1309,-3.1111,-3.109,-3.1292,-3.1473,-3.1858,-3.2286,-3.2286,-3.2597,-3.3093,-3.2415,-3.1958,-3.1647,-3.1558,-3.1279,-3.0924,0.0,0.0,0.0,0.0,-3.0182,-3.0182,0.0,0.0,0.0,0.0,0.0,0.0,0.0,0.0,0.0,0.0,0.0,0.0,-1.7519,-1.732,-1.7432,-1.794,-1.7579,-1.7388,-1.757,-1.7875,-1.7877,-1.7491,-1.7606,-1.8483,-2.0159,-2.0042,-2.054,-2.1753,-2.2623,-2.3033,0.0,0.0,0.0,0.0,0.0,0.0,0.0,0.0,0.0,0.0,0.0,0.0,0.0,0.0,0.0,0.0,0.0,0.0,0.0,0.0,0.0,0.0,0.0,0.0,0.0,0.0,0.0,0.0,0.0,0.0,0.0,0.0,0.0,0.0,0.0,0.0,0.0,0.0,0.0,0.0,0.0,0.0,0.0,0.0,0.0,0.0,0.0,-2.8297,-2.8424,-2.8577,-2.8568,-2.8485,0.0,0.0,0.0,0.0,0.0,0.0,-3.1013,-3.1075,-3.1426,-3.2148,-3.1776,-3.1745,-3.2144,-3.1586,-3.139,-3.1516,-3.1333,-3.1456,-3.1873,-3.1873,-3.2047,-3.2369,-3.2162,-3.2076,-3.209,-3.1921,-3.1457,-3.0878,-3.1264,-3.1297,-3.1113,-3.1007,-3.0966,-3.0908,0.0,0.0,0.0,0.0,0.0,0.0,0.0,0.0,0.0,0.0,0.0,-1.708,-1.7891,-1.793,-1.794,-1.8008,-1.794,-1.7812,-1.7645,-1.7755,-1.7759,-1.7491,-1.7606,-1.8334,-1.9584,-2.1451,-2.2354,-2.2173,0.0,0.0,0.0,0.0,0.0,0.0,0.0,0.0,0.0,0.0,0.0,0.0,0.0,0.0,0.0,0.0,0.0,0.0,0.0,0.0,0.0,0.0,0.0,0.0,0.0,0.0,0.0,0.0,0.0,0.0,0.0,0.0,0.0,0.0,0.0,0.0,0.0,0.0,0.0,0.0,0.0,0.0,0.0,0.0,0.0,0.0,0.0,0.0,0.0,0.0,0.0,-2.8731,-2.8147,0.0,0.0,0.0,0.0,-3.1144,-3.1599,-3.2066,-3.2547,-3.2591,-3.2608,-3.2641,-3.3321,-3.3669,-3.3686,-3.3607,-3.3756,-3.4209,-3.3499,-3.3461,-3.3973,-3.3973,-3.3973,-3.3921,-3.3179,-3.2852,-3.2852,-3.2848,-3.238,-3.1901,-3.3365,-3.3468,-3.272,-3.2326,-3.2222,-3.2039,0.0,0.0,0.0,0.0,0.0,0.0,0.0,-1.5508,-1.5527,-1.584,-1.6377,-1.6846,-1.7158,-1.7254,-1.7501,-1.794,-1.7579,-1.7216,-1.7056,-1.7209,-1.7079,-1.6476,-1.6505,-1.7168,-1.8523,-2.0719,-2.195,-2.2012,0.0,0.0,0.0,0.0,0.0,0.0,0.0,0.0,0.0,0.0,0.0,0.0,0.0,0.0,0.0,0.0,0.0,0.0,0.0,0.0,0.0,0.0,0.0,0.0,0.0,0.0,0.0,0.0,0.0,0.0,0.0,0.0,0.0,0.0,0.0,0.0,0.0,0.0,0.0,0.0,0.0,0.0,0.0,0.0,0.0,0.0,0.0,0.0,0.0,0.0,0.0,-2.8879,-2.89,0.0,-3.0272,-3.0179,-3.0529,-3.1681,-3.1911,-3.2164,-3.2613,-3.2658,-3.279,-3.3067,-3.2882,-3.2909,-3.3199,-3.274,-3.2684,-3.3035,-3.2758,-3.2857,-3.3247,-3.3247,-3.3247,-3.3247,-3.2948,-3.2824,-3.286,-3.3389,-3.2878,-3.1852,-3.2403,-3.2438,-3.2196,-3.2046,-3.197,-3.1918,0.0,0.0,0.0,0.0,-1.541,-1.541,-1.541,-1.541,-1.5518,-1.582,-1.6367,-1.6782,-1.7129,-1.7245,-1.7364,-1.7579,-1.7095,-1.6654,-1.6376,-1.6384,-1.6243,-1.5828,-1.6219,-1.6814,-1.7616,-2.0149,-2.1493,0.0,0.0,0.0,0.0,0.0,0.0,0.0,0.0,0.0,0.0,0.0,0.0,0.0,0.0,0.0,-2.7137,0.0,0.0,0.0,0.0,0.0,0.0,0.0,0.0,0.0,0.0,0.0,0.0,0.0,0.0,0.0,0.0,0.0,0.0,0.0,0.0,0.0,0.0,0.0,0.0,0.0,0.0,0.0,0.0,0.0,0.0,0.0,0.0,0.0,0.0,0.0,-2.8711,-2.9623,-2.9871,-3.0164,-3.0795,-3.0799,-3.1068,-3.1789,-3.2216,-3.2646,-3.3067,-3.3127,-3.328,-3.375,-3.3271,-3.321,-3.3626,-3.293,-3.2634,-3.2876,-3.2594,-3.2586,-3.2795,-3.2795,-3.2795,-3.2795,-3.2795,-3.2795,-3.2848,-3.3384,-3.3031,-3.2161,-3.2593,-3.2498,-3.2162,-3.2162,-3.2162,-3.2145,0.0,0.0,0.0,-1.541,-1.541,-1.541,-1.541,-1.541,-1.5723,-1.6592,-1.6719,-1.6986,-1.7823,-1.793,-1.7647,-1.6922,-1.6554,-1.6149,-1.5615,-1.5401,-1.5448,-1.5712,-1.6767,-1.7272,-1.7044,-1.9783,0.0,0.0,0.0,0.0,0.0,0.0,0.0,0.0,0.0,0.0,0.0,0.0,0.0,0.0,0.0,0.0,-2.7665,0.0,0.0,0.0,0.0,0.0,0.0,0.0,0.0,0.0,0.0,0.0,0.0,0.0,0.0,0.0,0.0,0.0,0.0,0.0,0.0,0.0,0.0,0.0,0.0,0.0,0.0,0.0,0.0,0.0,0.0,0.0,0.0,0.0,-2.8961,-2.8703,-2.9152,-3.0979,-3.081,-3.0495,-3.0275,-3.1245,-3.1792,-3.1663,-3.2664,-3.3505,-3.4042,-3.4042,-3.422,-3.4508,-3.4546,-3.4711,-3.501,-3.4331,-3.3957,-3.3972,-3.3187,-3.2827,-3.2827,-3.2827,-3.2827,-3.2827,-3.2827,-3.2827,-3.2827,-3.2827,-3.2827,-3.2923,-3.4076,-3.385,-3.2869,-3.2869,-3.2852,-3.2731,0.0,0.0,-1.541,-1.541,-1.541,-1.541,-1.541,-1.541,-1.5615,-1.6172,-1.6533,-1.6667,-1.6721,-1.6971,-1.6821,-1.5848,-1.6053,-1.5964,-1.5276,-1.5624,-1.5885,-1.6018,-1.6357,-1.7022,-1.7984,0.0,0.0,0.0,0.0,0.0,0.0,0.0,0.0,0.0,0.0,0.0,0.0,0.0,0.0,0.0,0.0,0.0,-2.7708,0.0,0.0,0.0,0.0,0.0,0.0,0.0,0.0,0.0,0.0,0.0,0.0,0.0,0.0,0.0,0.0,0.0,0.0,0.0,0.0,0.0,0.0,0.0,0.0,0.0,0.0,0.0,0.0,0.0,0.0,0.0,0.0,-2.8319,-2.8885,-2.9562,-3.0202,-3.0694,-3.0503,-3.0623,-3.1341,-3.1209,-3.1585,-3.2748,-3.3119,-3.3284,-3.321,-3.3231,-3.3144,-3.295,-3.2915,-3.3071,-3.3422,-3.3241,-3.3261,-3.3496,-3.3262,-3.3273,-3.3522,-3.3522,-3.3522,-3.3522,-3.3522,-3.3522,-3.3522,-3.3522,-3.3361,-3.3147,-3.2981,-3.2721,-3.2423,-3.2204,-3.1765,-3.1265,0.0,-1.541,-1.541,-1.541,-1.541,-1.541,-1.541,-1.541,-1.5516,-1.5871,-1.5951,-1.6028,-1.6017,-1.6008,-1.5724,-1.4848,-1.5089,-1.5112,-1.4658,-1.5567,-1.6125,-1.6125,-1.654,-1.7173,0.0,0.0,0.0,0.0,0.0,0.0,0.0,0.0,0.0,0.0,0.0,0.0,0.0,0.0,0.0,0.0,0.0,0.0,-2.8492,-2.8477,-2.8518,-2.856,-2.8524,-2.8634,-2.8834,-2.8425,0.0,0.0,0.0,0.0,0.0,0.0,0.0,0.0,0.0,0.0,0.0,0.0,0.0,0.0,0.0,0.0,0.0,0.0,0.0,0.0,0.0,0.0,0.0,0.0,-2.8348,-2.8452,-2.9373,-2.9906,-3.0363,-3.081,-3.0877,-3.1053,-3.1385,-3.1405,-3.1646,-3.2309,-3.2547,-3.2598,-3.2472,-3.2438,-3.2416,-3.2301,-3.2437,-3.2684,-3.3001,-3.3136,-3.3302,-3.3494,-3.3494,-3.3606,-3.3807,-3.3807,-3.3807,0.0,-3.3807,-3.3807,-3.3807,-3.3807,-3.3479,0.0,0.0,0.0,0.0,0.0,-3.0575,-3.0196,0.0,-1.541,-1.541,-1.541,-1.541,-1.541,-1.541,-1.541,-1.5456,-1.556,-1.5285,-1.5232,-1.5436,-1.5026,-1.4471,-1.3934,-1.3982,-1.4122,-1.4202,-1.5321,-1.6043,-1.6262,-1.7012,0.0,0.0,0.0,0.0,0.0,0.0,0.0,0.0,0.0,0.0,0.0,0.0,0.0,0.0,0.0,0.0,0.0,0.0,0.0,-2.9566,-2.9,-2.93,-2.9962,-2.9415,-2.9098,-2.8951,-2.8927,0.0,0.0,0.0,0.0,0.0,0.0,0.0,0.0,0.0,0.0,0.0,0.0,0.0,0.0,0.0,0.0,0.0,0.0,0.0,0.0,0.0,0.0,0.0,0.0,-2.8419,-2.8966,-3.0022,-2.9812,-2.9933,-3.0968,-3.1438,-3.1445,-3.0843,-3.1565,-3.185,-3.1213,-3.1542,-3.18,-3.18,0.0,0.0,0.0,0.0,-3.289,-3.3243,-3.3597,-3.3734,-3.3734,-3.3762,-3.3807,-3.3807,-3.3762,-3.3734,-3.3734,-3.3707,-3.3707,-3.3734,-3.3643,-3.3175,-3.2441,-3.211,-3.1601,-3.0951,-2.9918,-2.9489,-2.9386,0.0,-1.541,-1.541,-1.541,-1.541,-1.541,-1.541,-1.541,-1.535,-1.5235,-1.5111,-1.4836,-1.4138,-1.4006,-1.3505,-1.249,-1.3388,-1.4506,-1.5628,0.0,-1.587,0.0,0.0,0.0,0.0,0.0,0.0,0.0,0.0,0.0,0.0,0.0,0.0,0.0,0.0,0.0,0.0,0.0,0.0,0.0,0.0,0.0,-2.961,-2.9493,-2.9246,-2.8953,-2.8893,-2.9097,-2.9444,-2.9262,-2.9431,-2.9605,-2.8927,0.0,0.0,0.0,0.0,0.0,0.0,0.0,0.0,0.0,0.0,0.0,0.0,0.0,0.0,0.0,0.0,0.0,0.0,0.0,0.0,-2.8681,-2.8934,-2.9281,-3.0085,-2.9643,-2.9486,-3.0291,-3.0268,-3.0282,-3.0523,-3.1005,-3.1409,-3.1634,-3.1746,-3.18,-3.18,-3.18,-3.1965,-3.2283,-3.2369,-3.257,-3.289,-3.3214,-3.3408,-3.3408,0.0,0.0,-3.3788,-3.3522,-3.3408,-3.3379,-3.3124,-3.3154,-3.3354,-3.27,-3.211,-3.1598,-3.1247,-3.0767,-3.0197,-2.9974,-2.936,-2.861,0.0,-1.541,-1.541,-1.541,-1.541,-1.541,-1.541,-1.541,-1.5321,-1.5072,-1.4576,-1.4124,-1.3653,-1.3014,-1.2489,-1.2036,-1.2924,-1.3933,0.0,0.0,0.0,0.0,0.0,0.0,0.0,0.0,0.0,0.0,0.0,0.0,0.0,0.0,0.0,0.0,0.0,0.0,0.0,0.0,0.0,0.0,0.0,0.0,-2.9476,-2.9911,-2.99,-2.9624,-2.9624,-2.9624,-2.9566,-2.9475,-2.9471,-2.9354,-2.8926,-2.8551,-2.8315,0.0,0.0,0.0,0.0,0.0,0.0,0.0,0.0,0.0,0.0,0.0,0.0,0.0,0.0,-2.7955,-2.74,0.0,-2.7826,-2.8505,-2.8616,-2.8853,-2.9548,-2.9343,-2.9264,-2.9611,-2.9948,-3.0267,-3.0477,-3.1083,-3.1542,-3.18,-3.18,-3.18,-3.18,-3.18,-3.1856,-3.2055,-3.2214,-3.2369,-3.2553,-3.2876,-3.3063,-3.3063,-3.3214,-3.3302,-3.3284,-3.3124,-3.3063,-3.3032,-3.2858,-3.2675,-3.2433,-3.1624,-3.1153,-3.0885,-3.0304,-2.9933,-2.9554,-2.8893,-2.8323,-2.7851,0.0,-1.5294,-1.5352,-1.5235,-1.5294,-1.5352,-1.5235,-1.5235,-1.5056,-1.4655,-1.3996,-1.3425,-1.3176,-1.2307,-1.1844,-1.2104,-1.25,0.0,0.0,0.0,0.0,0.0,0.0,0.0,0.0,0.0,0.0,0.0,0.0,0.0,0.0,0.0,0.0,0.0,0.0,0.0,0.0,0.0,0.0,0.0,0.0,0.0,-2.9156,-2.9803,-3.0199,-3.0379,-3.0248,-2.9871,-2.9421,-2.929,-2.9,-2.8637,-2.839,-2.8042,-2.7748,-2.8015,-2.7824,0.0,0.0,0.0,0.0,0.0,0.0,0.0,0.0,0.0,-2.9075,-2.9075,-2.898,-2.8758,-2.8189,-2.8094,-2.8094,-2.8094,-2.8205,-2.8489,-2.8996,-2.9075,-2.9121,-2.9213,-2.9968,-3.0518,-3.0601,-3.1334,-3.18,-3.18,-3.18,-3.18,-3.18,-3.18,-3.18,-3.18,-3.2055,-3.2214,-3.2214,-3.2537,-3.2699,-3.2699,-3.2763,-3.2795,-3.2795,-3.2588,-3.2485,-3.2485,-3.2485,-3.2129,-3.1538,-3.0802,-3.0511,-3.0392,-2.9532,-2.9212,-2.9076,-2.7836,-2.7345,-2.7299,0.0,-1.5059,-1.5235,-1.4706,-1.5059,-1.5235,-1.4706,-1.4588,-1.4369,-1.3744,-1.3597,-1.305,-1.1969,-1.2143,-1.2405,-1.2444,-1.2236,0.0,0.0,0.0,0.0,0.0,0.0,0.0,0.0,0.0,0.0,0.0,0.0,0.0,0.0,0.0,0.0,0.0,0.0,0.0,0.0,0.0,0.0,0.0,0.0,0.0,-2.8128,-2.8201,-2.8806,-2.9653,-2.9087,-2.884,-2.8695,-2.8129,-2.8274,-2.8477,-2.736,-2.7331,-2.7661,-2.7513,0.0,-2.7963,-2.8367,-2.8415,0.0,-2.7963,-2.8207,-2.8511,0.0,0.0,-2.9075,-2.9075,-2.8632,-2.8189,-2.811,-2.8094,-2.8094,-2.8094,-2.8616,-2.8996,-2.9075,-2.9075,-2.9243,-2.9677,-3.0182,-3.0642,-3.1004,-3.1504,-3.18,-3.18,-3.18,-3.18,-3.18,-3.18,-3.18,-3.18,-3.1837,-3.1873,-3.1873,-3.2179,-3.2352,-3.2352,-3.2651,-3.2795,-3.2777,-3.1797,-3.1384,-3.1384,-3.1384,-3.128,-3.1122,-3.0663,-3.0511,-3.0392,-2.9294,-2.8886,-2.8858,-2.7982,-2.7496,-2.7299,0.0,0.0,-1.4103,-1.3425,-1.4213,-1.4765,-1.4529,-1.4172,-1.3992,-1.4052,-1.3373,-1.2704,-1.2158,-1.2035,-1.1981,-1.1981,0.0,0.0,0.0,0.0,0.0,0.0,0.0,0.0,0.0,0.0,0.0,0.0,0.0,0.0,0.0,0.0,0.0,0.0,0.0,0.0,0.0,0.0,0.0,0.0,0.0,0.0,-2.6778,-2.6638,-2.666,-2.6775,-2.7611,-2.8018,0.0,0.0,-2.7911,-2.8042,-2.7505,-2.7273,-2.7108,-2.6594,-2.6577,0.0,-2.7354,0.0,0.0,0.0,-2.8351,-2.8363,-2.9279,-2.9281,-2.9201,-2.9659,-2.9185,-2.8821,-2.9232,-2.8963,-2.8695,0.0,-2.8932,-2.9075,-2.9075,-2.9075,-2.9243,-2.975,-3.006,-3.0443,-3.1044,-3.1542,-3.18,-3.18,-3.18,-3.18,-3.18,-3.18,-3.18,-3.18,-3.18,-3.1671,-3.1389,-3.1545,-3.1603,-3.1603,-3.1752,-3.1724,-3.1566,-3.1115,-3.0907,-3.0855,-2.9968,-2.9711,-2.9816,-2.9193,-2.9057,-2.9127,-2.822,-2.8134,-2.8509,-2.8226,-2.7771,-2.7299,0.0,0.0,0.0,-1.2634,-1.3304,-1.3983,-1.3983,-1.3554,-1.3373,-1.3855,-1.3122,-1.2512,-1.2512,-1.1981,-1.1622,-1.1622,0.0,0.0,0.0,0.0,0.0,0.0,0.0,0.0,0.0,0.0,0.0,0.0,0.0,0.0,0.0,0.0,0.0,0.0,0.0,0.0,0.0,0.0,0.0,0.0,0.0,0.0,-2.5473,-2.5052,-2.4679,-2.4496,-2.605,-2.6626,0.0,0.0,-2.6741,-2.6842,-2.6721,-2.6489,-2.617,-2.5676,-2.5748,-2.6082,-2.6579,0.0,0.0,-2.8293,-2.8243,-2.8232,-2.9452,-2.9344,-2.9124,-2.9785,-2.9485,-2.9279,-2.9801,-2.9469,0.0,-2.9075,-2.9075,-2.9075,-2.9075,-2.9075,-2.9227,-2.9548,-2.9685,-3.0064,-3.0868,-3.1457,-3.1809,-3.1809,-3.1809,-3.1809,-3.1809,-3.1802,-3.1709,-3.1551,-3.1551,-3.1346,-3.0965,-3.0925,-3.0925,-3.0925,-3.0925,-3.0813,-3.0571,-3.0367,-3.0265,-3.025,-2.9141,-2.8948,-2.937,-2.8558,-2.8373,-2.8522,-2.776,-2.7694,-2.798,-2.8029,-2.7589,-2.6923,0.0,0.0,0.0,0.0,-1.2504,-1.2565,-1.2565,-1.2573,-1.2573,-1.2565,-1.2512,-1.2512,-1.2512,-1.1981,-1.1622,0.0,0.0,0.0,0.0,-1.2826,0.0,0.0,0.0,0.0,0.0,0.0,0.0,0.0,0.0,0.0,0.0,0.0,0.0,0.0,0.0,0.0,0.0,0.0,0.0,0.0,0.0,0.0,-2.4418,-2.338,-2.3198,-2.3638,-2.4464,0.0,0.0,0.0,-2.4413,-2.4771,-2.4196,-2.4442,0.0,-2.4921,-2.5624,0.0,0.0,0.0,-2.7799,-2.7503,-2.7675,-2.8012,-2.8446,-2.8527,-2.8622,-2.906,-2.9107,-2.9091,-2.9107,-2.9107,-2.9075,-2.9075,-2.9075,-2.9075,-2.9075,-2.9075,-2.9102,-2.9111,-2.9122,-2.9497,0.0,-3.1308,-3.1788,-3.1788,-3.1788,-3.1788,-3.1788,-3.182,-3.1524,-3.0941,-3.0925,-3.08,-3.0518,-3.0518,-3.0518,-3.0518,-3.0518,-3.046,-3.0285,-2.9502,-2.9213,-2.9334,-2.9301,-2.9698,-3.0385,-2.9582,-2.9244,-2.9194,-2.8539,-2.7822,-2.7226,-2.7234,-2.6773,-2.604,0.0,0.0,0.0,0.0,0.0,-1.1919,-1.1919,-1.1919,-1.2035,-1.2451,-1.2151,0.0,0.0,0.0,0.0,0.0,0.0,0.0,0.0,-1.2504,0.0,0.0,0.0,0.0,0.0,0.0,0.0,0.0,0.0,0.0,0.0,0.0,0.0,0.0,0.0,0.0,0.0,0.0,0.0,0.0,0.0,0.0,-2.3106,-2.2214,-2.1753,-2.1773,0.0,0.0,0.0,0.0,0.0,0.0,-2.3949,0.0,0.0,-2.4733,-2.4786,-2.4999,0.0,0.0,-2.6745,-2.7787,-2.7838,-2.778,-2.8656,-2.8446,-2.8296,-2.8919,-2.8852,-2.8857,-2.9356,-2.9044,-2.8779,-2.9045,-2.8779,-2.8701,-2.9044,-2.9074,-2.9118,-2.9114,-2.9112,0.0,0.0,0.0,0.0,-3.178,-3.1813,-3.1547,-3.0948,-3.0949,-3.0726,-3.0303,-3.0286,-3.021,-3.0054,-3.0054,-3.0054,-3.0038,-2.9799,-2.9674,-2.9617,-2.885,-2.8728,-2.914,-2.8639,-2.8731,-2.9127,-2.7908,-2.7551,-2.774,-2.6551,-2.623,-2.6334,-2.5915,-2.5593,-2.5406,0.0,0.0,0.0,0.0,0.0,0.0,0.0,0.0,0.0,0.0,0.0,0.0,0.0,0.0,0.0,0.0,0.0,0.0,0.0,0.0,0.0,0.0,0.0,0.0,0.0,0.0,0.0,0.0,0.0,0.0,0.0,0.0,0.0,0.0,0.0,0.0,0.0,0.0,0.0,0.0,0.0,0.0,-2.1851,-2.0935,-2.0629,0.0,0.0,0.0,0.0,0.0,0.0,0.0,0.0,-2.3578,-2.398,-2.4333,-2.4543,-2.4834,0.0,-2.6286,-2.6447,-2.7579,-2.7476,-2.7402,-2.8216,-2.8062,-2.7916,-2.849,-2.8431,-2.8442,-2.9036,-2.8755,-2.8508,-2.862,-2.8367,-2.8352,-2.9014,-2.9092,-2.8545,-2.7072,-2.7721,0.0,0.0,0.0,0.0,-3.0746,-3.0843,-3.0576,-3.0049,-2.9978,-2.9918,-2.9677,-2.9396,-2.9262,-2.9275,-2.9166,-2.9196,-2.9319,-2.8822,-2.8654,-2.8785,-2.8163,-2.8211,-2.8714,-2.8179,-2.8088,-2.816,-2.7067,-2.6659,-2.6595,-2.5456,-2.5352,-2.5723,-2.516,-2.4889,-2.4895,0.0,0.0,0.0,0.0,0.0,0.0,0.0,0.0,0.0,0.0,0.0,0.0,0.0,0.0,0.0,0.0,0.0,0.0,0.0,0.0,0.0,0.0,0.0,0.0,0.0,0.0,0.0,0.0,0.0,0.0,0.0,0.0,0.0,0.0,0.0,0.0,0.0,0.0,0.0,0.0,0.0,0.0,-2.0505,-1.9574,0.0,0.0,0.0,0.0,0.0,0.0,0.0,0.0,0.0,0.0,-2.3867,-2.3895,-2.4767,-2.5742,-2.5771,-2.6249,-2.6779,-2.6779,-2.6779,-2.6884,-2.7299,-2.735,-2.7488,-2.7765,-2.7864,-2.7932,0.0,0.0,-2.8278,-2.7992,-2.7875,-2.81,-2.8889,-2.8993,-2.7468,0.0,0.0,0.0,0.0,0.0,0.0,-2.8872,0.0,-2.9027,-2.9093,-2.9013,-2.8978,-2.8999,-2.8259,-2.8008,-2.8274,-2.8024,-2.8027,-2.8348,-2.768,-2.755,-2.7913,-2.75,-2.7615,-2.8076,-2.7963,-2.7806,-2.755,-2.7131,-2.6594,-2.5956,-2.5256,-2.5157,-2.5416,-2.5042,-2.4747,-2.4451,0.0,0.0,0.0,0.0,0.0,0.0,0.0,0.0,0.0,0.0,0.0,0.0,0.0,0.0,0.0,0.0,0.0,0.0,0.0,0.0,0.0,0.0,0.0,0.0,0.0,0.0,0.0,0.0,0.0,0.0,0.0,0.0,0.0,0.0,0.0,0.0,0.0,0.0,0.0,0.0,0.0,0.0,-1.9277,0.0,0.0,0.0,0.0,0.0,0.0,0.0,0.0,0.0,0.0,0.0,-2.3332,-2.3702,0.0,-2.4664,-2.5621,-2.5983,-2.6233,-2.6674,-2.6779,-2.6832,-2.6937,-2.6937,-2.6989,-2.7063,-2.7416,-2.759,0.0,0.0,0.0,-2.8824,-2.781,0.0,-2.7364,-2.7372,0.0,0.0,0.0,-2.441,-2.5683,-2.6396,0.0,0.0,-2.7364,-2.7896,-2.902,-2.8015,-2.7387,-2.7399,-2.718,-2.7399,-2.8008,-2.7788,-2.7728,-2.7792,-2.7769,-2.7799,-2.7898,-2.7799,-2.7875,-2.8096,-2.792,-2.7644,-2.7331,-2.6451,-2.6332,-2.6532,-2.4878,-2.4572,-2.5042,-2.4925,-2.4863,-2.4844,0.0,0.0,0.0,0.0,0.0,0.0,0.0,0.0,0.0,0.0,0.0,0.0,0.0,0.0,0.0,0.0,0.0,0.0,0.0,0.0,0.0,0.0,0.0,0.0,0.0,0.0,0.0,0.0,0.0,0.0,0.0,0.0,0.0,0.0,0.0,0.0,0.0,0.0,0.0,0.0,0.0,0.0,0.0,0.0,0.0,0.0,0.0,0.0,0.0,0.0,0.0,-2.2673,-2.307,-2.3502,-2.3854,-2.3821,0.0,-2.4585,-2.5329,-2.5481,-2.5591,-2.5934,-2.6218,-2.6394,-2.6394,-2.6621,-2.6803,-2.6828,-2.7034,0.0,0.0,0.0,0.0,0.0,0.0,0.0,-2.6783,-2.6819,-2.6257,0.0,-2.46,0.0,-2.6654,-2.678,-2.6808,0.0,-2.6784,-2.719,-2.8056,-2.7265,-2.6781,-2.6783,-2.6783,-2.7003,-2.7393,-2.7333,-2.7259,-2.7235,-2.7378,-2.7482,-2.7614,-2.7232,-2.7246,-2.7614,0.0,-2.6798,-2.6774,-2.5473,-2.504,-2.5027,-2.3926,-2.3805,-2.4282,-2.4403,-2.4373,-2.4327,0.0,0.0,0.0,0.0,0.0,0.0,0.0,0.0,0.0,0.0,-1.1652,0.0,0.0,0.0,0.0,0.0,0.0,0.0,0.0,0.0,0.0,0.0,0.0,0.0,0.0,0.0,0.0,0.0,0.0,0.0,0.0,0.0,0.0,0.0,0.0,0.0,0.0,0.0,0.0,0.0,0.0,0.0,0.0,0.0,0.0,0.0,0.0,0.0,0.0,0.0,-2.1533,-2.2169,-2.3103,-2.3866,-2.4295,-2.3658,-2.4021,-2.4654,-2.4838,-2.4908,-2.4908,-2.4951,-2.5439,-2.5881,-2.5881,-2.6358,-2.6823,-2.6821,0.0,0.0,-2.6802,0.0,-2.6674,-2.6316,0.0,-2.6814,-2.6794,-2.6828,-2.6679,-2.6332,-2.6332,-2.6325,-2.6325,-2.6315,-2.6287,-2.6287,-2.6297,-2.6437,-2.6761,-2.6811,-2.6797,-2.6789,-2.6789,-2.6789,-2.6789,-2.6789,-2.6823,-2.6797,-2.678,-2.6938,-2.7234,-2.6369,-2.639,-2.6922,0.0,0.0,-2.6001,-2.471,-2.3862,-2.338,-2.312,-2.3273,-2.36,-2.3856,-2.3772,-2.36,0.0,0.0,0.0,0.0,0.0,0.0,0.0,0.0,0.0,0.0,-1.1721,-1.1622,0.0,0.0,0.0,0.0,0.0,0.0,0.0,0.0,0.0,0.0,0.0,0.0,0.0,0.0,0.0,0.0,0.0,0.0,0.0,0.0,0.0,0.0,0.0,0.0,0.0,0.0,0.0,0.0,0.0,0.0,0.0,0.0,0.0,0.0,0.0,0.0,0.0,0.0,-2.1667,-2.159,-2.1704,-2.1912,-2.2057,-2.2008,-2.2286,-2.2822,-2.3989,-2.4234,-2.4408,-2.4908,-2.5312,-2.566,-2.566,-2.626,0.0,0.0,0.0,-2.6806,-2.6827,-2.6805,0.0,-2.3906,0.0,0.0,0.0,0.0,-2.605,0.0,0.0,0.0,0.0,0.0,0.0,0.0,0.0,-2.4653,-2.6665,-2.6805,-2.6791,-2.6778,-2.6778,-2.6778,-2.6778,-2.6778,-2.6819,-2.6791,-2.6792,-2.682,-2.6876,-2.6708,-2.6718,-2.6831,-2.6623,0.0,-2.5052,-2.5337,-2.572,-2.5952,-2.4341,-2.4098,-2.4505,-2.4232,-2.409,-2.3999,0.0,0.0,0.0,0.0,0.0,0.0,0.0,-1.1809,-1.1926,-1.2248,-1.2153,-1.1999,-1.1823,-1.1663,-1.15,0.0,0.0,0.0,0.0,0.0,0.0,0.0,0.0,0.0,0.0,0.0,0.0,0.0,0.0,0.0,0.0,0.0,0.0,0.0,0.0,0.0,0.0,0.0,0.0,0.0,0.0,0.0,0.0,0.0,0.0,0.0,0.0,0.0,0.0,0.0,-2.0547,-2.0443,-2.1441,-2.2161,-2.244,-2.1247,-2.1434,-2.1996,-2.2286,-2.2457,-2.264,-2.3179,-2.3787,-2.4274,-2.4315,0.0,0.0,0.0,0.0,-2.5246,-2.6534,0.0,0.0,0.0,0.0,0.0,0.0,0.0,0.0,0.0,0.0,0.0,0.0,0.0,0.0,0.0,0.0,-2.3632,-2.4827,-2.4896,-2.4896,-2.4896,-2.4896,-2.4896,-2.4896,-2.4896,-2.4896,-2.4896,-2.4896,-2.4896,-2.4896,-2.4896,-2.5549,-2.6706,-2.486,0.0,-2.488,-2.4484,-2.4515,-2.4779,-2.4505,-2.4139,-2.3806,-2.3603,-2.3502,-2.3455,0.0,0.0,0.0,0.0,0.0,0.0,-1.1984,-1.1971,-1.2175,-1.2577,-1.2562,-1.2423,-1.2167,-1.1853,-1.1567,0.0,0.0,0.0,0.0,0.0,0.0,0.0,0.0,0.0,0.0,0.0,0.0,0.0,0.0,0.0,0.0,0.0,0.0,0.0,0.0,0.0,0.0,0.0,0.0,0.0,0.0,0.0,0.0,0.0,0.0,0.0,0.0,0.0,0.0,0.0,-1.9561,-1.9612,-2.1047,-2.208,-2.2389,-2.0588,-2.0702,-2.1307,-2.088,-2.1008,-2.1296,-2.1643,-2.2396,-2.3055,-2.3103,-2.4633,0.0,0.0,0.0,0.0,0.0,0.0,0.0,0.0,0.0,0.0,0.0,0.0,0.0,0.0,0.0,0.0,0.0,0.0,0.0,0.0,0.0,0.0,-2.309,-2.3071,-2.3103,-2.3103,-2.3109,-2.3083,-2.3083,-2.3083,-2.3083,-2.3083,-2.3083,-2.3083,-2.3083,-2.3083,-2.4142,-2.5852,-2.3313,0.0,0.0,-2.3747,-2.3293,-2.3187,-2.4681,-2.4302,-2.3,-2.2895,-2.2887,-2.2782,0.0,0.0,0.0,0.0,0.0,0.0,-1.1984,-1.1971,-1.2255,-1.2884,-1.2701,-1.2511,-1.2482,-1.2182,-1.1942,0.0,0.0,0.0,0.0,0.0,0.0,0.0,0.0,0.0,0.0,0.0,0.0,0.0,0.0,0.0,0.0,0.0,0.0,0.0,0.0,0.0,0.0,0.0,0.0,0.0,0.0,0.0,0.0,0.0,0.0,0.0,0.0,0.0,0.0,0.0,0.0,-1.9768,-1.9741,-1.9543,-1.9381,-1.9389,0.0,0.0,-2.0526,-2.1174,-2.1696,-2.1464,-2.2293,-2.3091,-2.3109,0.0,0.0,0.0,-2.3242,-2.3141,0.0,0.0,0.0,0.0,0.0,0.0,0.0,0.0,0.0,0.0,0.0,0.0,0.0,0.0,0.0,0.0,0.0,0.0,-2.2994,-2.3133,-2.312,-2.312,-2.3103,-2.311,-2.311,-2.311,-2.311,-2.311,-2.311,-2.311,-2.311,-2.311,-2.3234,-2.3476,-2.4319,0.0,0.0,-2.4423,-2.4204,-2.3487,-2.5749,-2.5243,-2.325,-2.2993,-2.2887,-2.2644,0.0,0.0,0.0,0.0,0.0,0.0,-1.1984,-1.2204,-1.2489,-1.295,-1.3067,-1.2958,-1.2562,-1.2401,-1.2248,-1.205,0.0,0.0,0.0,0.0,0.0,0.0,0.0,0.0,0.0,0.0,0.0,0.0,0.0,0.0,0.0,0.0,0.0,0.0,0.0,0.0,0.0,0.0,0.0,0.0,0.0,0.0,0.0,0.0,0.0,0.0,0.0,0.0,0.0,0.0,0.0,0.0,-1.8449,-1.8527,0.0,0.0,-1.8875,-1.9162,-1.9243,-1.9571,-1.9954,-1.9987,-2.0388,-2.0406,-1.9335,0.0,0.0,-2.1873,-2.1885,-2.1896,-2.1896,0.0,0.0,0.0,0.0,0.0,0.0,0.0,0.0,0.0,0.0,0.0,0.0,0.0,0.0,0.0,0.0,0.0,-2.0653,-2.0715,-2.1404,-2.3081,-2.307,-2.3083,-2.3083,-2.3083,-2.3071,-2.3095,-2.3095,-2.3081,-2.3078,-2.3078,-2.3122,-2.3128,-2.3654,0.0,0.0,-2.3171,-2.2643,-2.1869,-2.239,-2.2028,-2.134,-2.2569,-2.2596,-2.1875,0.0,0.0,0.0,0.0,0.0,-1.1699,-1.2116,-1.2292,-1.2533,-1.295,-1.3126,-1.2994,-1.2438,-1.238,-1.2248,-1.1926,-1.2189,0.0,0.0,0.0,0.0,0.0,0.0,0.0,0.0,0.0,0.0,-1.2767,0.0,0.0,0.0,0.0,0.0,0.0,0.0,0.0,0.0,0.0,0.0,0.0,0.0,0.0,0.0,0.0,0.0,0.0,0.0,0.0,0.0,0.0,0.0,0.0,0.0,0.0,0.0,0.0,-1.8464,-1.859,-1.8387,-1.8464,-1.8674,-1.8547,-1.872,-1.8606,0.0,0.0,0.0,-2.0881,-2.098,-2.1123,-2.1123,-2.1123,0.0,0.0,0.0,0.0,0.0,0.0,0.0,0.0,0.0,0.0,0.0,0.0,0.0,0.0,0.0,0.0,0.0,-1.9076,-1.9944,-2.1876,-2.1893,-2.1922,-2.1922,-2.19,-2.2214,-2.2732,-2.2151,-2.2118,-2.248,-2.2566,-2.2567,-2.2519,0.0,0.0,0.0,-2.2407,-2.1844,-2.1002,-2.0523,-2.0273,-2.0476,-2.2029,-2.2333,-2.1934,0.0,0.0,0.0,0.0,0.0,0.0,-1.2416,-1.2248,-1.227,-1.2921,-1.2731,-1.2409,-1.2007,-1.2036,-1.1911,-1.1659,-1.186,0.0,0.0,0.0,0.0,0.0,0.0,0.0,0.0,0.0,-1.3001,-1.2523,-1.3388,-1.4049,0.0,0.0,0.0,0.0,0.0,0.0,0.0,0.0,0.0,0.0,0.0,0.0,0.0,0.0,0.0,0.0,0.0,0.0,0.0,0.0,0.0,0.0,0.0,0.0,0.0,0.0,-1.8466,-1.8444,-1.8086,-1.834,-1.8432,-1.7484,-1.7873,-1.8598,0.0,0.0,0.0,-2.0434,-2.0756,-2.1123,-2.1123,-2.1123,-2.1123,-2.1112,-2.0124,0.0,0.0,0.0,0.0,0.0,0.0,0.0,0.0,0.0,0.0,0.0,0.0,0.0,0.0,-1.9104,-1.911,-1.9112,-1.9148,-1.9157,-1.9157,-1.9167,-2.0063,-2.1815,-1.9986,-1.9866,-2.1128,-2.1239,-2.1243,0.0,0.0,0.0,0.0,-2.2665,-2.2471,-2.1481,-2.1481,-2.1468,-2.1481,-2.1493,-2.2163,-2.3054,0.0,0.0,0.0,0.0,0.0,0.0,-1.1831,-1.1963,-1.2109,-1.2314,-1.2445,-1.2394,-1.2072,-1.1971,-1.1911,-1.1652,-1.1853,0.0,0.0,0.0,0.0,0.0,0.0,0.0,0.0,0.0,-1.292,-1.3001,-1.3531,-1.4049,-1.4569,-1.4569,0.0,0.0,0.0,0.0,0.0,0.0,0.0,0.0,0.0,0.0,0.0,0.0,0.0,0.0,0.0,0.0,0.0,0.0,0.0,0.0,0.0,0.0,0.0,-1.7353,0.0,0.0,-1.8056,-1.7929,-1.7314,-1.6726,-1.7263,-1.7842,-1.755,0.0,0.0,0.0,-1.9393,-1.9715,-1.9715,-1.9715,-1.9608,-1.9276,-1.8977,0.0,0.0,0.0,0.0,0.0,0.0,0.0,0.0,0.0,0.0,0.0,0.0,0.0,0.0,-2.026,-2.0364,-1.9125,-1.9127,-1.9106,-1.9065,-1.9104,-1.9724,-2.085,-2.0919,-2.1063,-2.1228,-2.026,0.0,0.0,0.0,0.0,0.0,-2.0867,-2.0522,-2.032,-2.1394,-2.1156,-2.0263,-2.1348,-2.1765,-2.186,0.0,0.0,0.0,0.0,0.0,0.0,-1.1721,-1.1809,-1.1904,-1.2021,-1.2109,-1.208,-1.1875,-1.186,-1.178,-1.1637,-1.1799,0.0,0.0,0.0,0.0,0.0,0.0,0.0,-1.284,-1.2848,-1.29,-1.3018,-1.3628,-1.415,-1.4569,-1.4569,-1.4569,-1.4569,0.0,0.0,0.0,0.0,0.0,0.0,0.0,0.0,-1.5346,0.0,0.0,0.0,0.0,0.0,0.0,0.0,0.0,0.0,0.0,0.0,0.0,0.0,-1.5805,-1.5781,0.0,-1.6857,-1.6576,-1.6011,-1.6565,0.0,0.0,0.0,0.0,0.0,0.0,-1.8998,-1.8731,-1.8931,-1.8905,-1.8344,-1.8238,0.0,0.0,0.0,0.0,0.0,0.0,0.0,0.0,0.0,0.0,0.0,0.0,0.0,0.0,-1.9371,-1.9499,-1.8566,-1.8899,-1.9066,-1.9075,-1.9132,-1.9504,-2.0268,-2.0856,-2.1,-2.0729,-2.0128,0.0,0.0,0.0,0.0,0.0,-2.0529,-2.0179,-1.9978,-2.1209,-2.1045,-2.024,-2.1172,-2.1388,-2.1195,0.0,0.0,0.0,0.0,0.0,0.0,0.0,-1.175,-1.167,-1.1963,-1.1743,-1.1622,-1.1622,-1.1622,-1.1622,-1.1622,-1.1762,0.0,0.0,0.0,0.0,0.0,0.0,0.0,-1.2367,-1.2827,-1.3048,-1.2833,-1.366,-1.4291,-1.4569,-1.4569,-1.4569,-1.4569,-1.4569,-1.4569,0.0,0.0,0.0,0.0,0.0,-1.4569,0.0,0.0,0.0,0.0,0.0,0.0,0.0,0.0,0.0,0.0,0.0,0.0,0.0,0.0,0.0,0.0,0.0,-1.5396,-1.6061,-1.5418,-1.5919,-1.6504,0.0,0.0,0.0,0.0,0.0,-1.8721,-1.8037,-1.8452,-1.8741,-1.8076,-1.792,0.0,0.0,0.0,0.0,0.0,0.0,0.0,0.0,0.0,0.0,0.0,0.0,0.0,0.0,-1.6874,-1.7085,-1.7552,-1.8468,-1.8998,-1.9075,-1.9104,-1.9418,-1.9958,-2.0021,-1.995,-1.9952,-2.0731,0.0,0.0,0.0,0.0,0.0,-2.1095,-2.1058,-2.0284,-2.078,-2.0996,-2.099,-2.1008,-2.0996,-2.0996,0.0,0.0,0.0,0.0,0.0,0.0,0.0,0.0,0.0,0.0,-1.1611,-1.1622,-1.1622,-1.1622,-1.1622,0.0,0.0,0.0,0.0,0.0,0.0,0.0,0.0,0.0,-1.2891,-1.3028,-1.3186,-1.3377,-1.3866,-1.4291,-1.4569,-1.4569,-1.4569,-1.4569,-1.4569,-1.4569,0.0,0.0,0.0,0.0,-1.4569,-1.4569,0.0,0.0,0.0,0.0,-1.4713,-1.5056,0.0,0.0,0.0,0.0,0.0,0.0,0.0,0.0,-1.4569,-1.4561,-1.4609,0.0,-1.51,-1.5556,-1.5817,-1.5948,0.0,0.0,0.0,0.0,0.0,-1.7345,-1.7207,-1.7276,-1.7449,-1.7558,0.0,0.0,0.0,0.0,0.0,0.0,0.0,0.0,0.0,0.0,0.0,0.0,0.0,0.0,0.0,-1.6608,-1.6971,-1.706,-1.7572,-1.83,-1.9075,-1.9081,-1.9385,-1.9848,-2.0133,-2.0463,-2.0803,-2.1021,0.0,0.0,0.0,0.0,-1.9823,-1.9401,-1.9296,-1.9392,-1.9712,-1.9933,-2.0151,-2.0303,-2.0366,-2.0366,0.0,0.0,0.0,0.0,0.0,0.0,0.0,0.0,0.0,0.0,-1.1622,-1.1622,-1.1622,-1.1622,-1.1622,0.0,0.0,0.0,0.0,0.0,0.0,0.0,0.0,-1.2846,-1.2846,-1.3004,-1.3251,-1.3584,-1.3942,-1.4291,-1.4569,-1.4569,-1.4569,-1.4569,-1.4569,-1.4569,-1.4569,0.0,0.0,0.0,-1.4569,0.0,0.0,0.0,0.0,0.0,-1.4569,-1.4569,0.0,-1.4569,-1.4569,-1.4569,0.0,0.0,0.0,0.0,-1.4569,-1.4569,-1.4569,-1.4569,-1.4713,-1.5133,-1.5275,-1.5275,-1.5275,0.0,0.0,0.0,0.0,0.0,-1.6455,0.0,0.0,0.0,0.0,0.0,0.0,0.0,0.0,0.0,0.0,0.0,0.0,0.0,0.0,0.0,0.0,0.0,0.0,-1.5631,-1.6067,-1.6385,-1.6581,-1.7292,-1.8586,-1.8586,-1.9022,-1.9827,-2.0006,-2.0358,-2.0803,-2.1021,-2.1248,0.0,0.0,0.0,-2.0006,-1.9303,-1.9044,-1.911,-1.9242,-1.9323,-1.9484,-1.9613,-1.9649,-1.9649,0.0,0.0,0.0,0.0,0.0,0.0,0.0,0.0,0.0,0.0,0.0,0.0,0.0,0.0,0.0,0.0,0.0,0.0,0.0,0.0,0.0,0.0,-1.2621,-1.2621,-1.2621,-1.2909,-1.3251,-1.3584,-1.3942,-1.4291,-1.4569,-1.4569,-1.4569,-1.4569,-1.4569,-1.4569,-1.4569,-1.4569,0.0,0.0,-1.4569,0.0,0.0,0.0,0.0,0.0,0.0,0.0,0.0,-1.4569,-1.4569,-1.4569,-1.4569,0.0,0.0,0.0,0.0,0.0,-1.4569,-1.4569,-1.4497,-1.4569,-1.4569,-1.4569,0.0,0.0,0.0,0.0,0.0,0.0,0.0,0.0,0.0,0.0,0.0,0.0,0.0,0.0,0.0,0.0,0.0,0.0,0.0,0.0,0.0,0.0,0.0,0.0,0.0,-1.4569,-1.4919,-1.5621,-1.5621,-1.6315,-1.7619,-1.7823,-1.8488,-1.9723,-1.9795,-2.0091,-2.0545,-2.101,-2.1186,0.0,0.0,0.0,-2.0286,-1.9841,-1.9536,-1.9168,-1.9162,-1.9116,-1.9235,-1.9162,-1.9075,-1.9075,0.0,0.0,0.0,0.0,0.0,0.0,0.0,0.0,0.0,0.0,0.0,0.0,0.0,0.0,0.0,0.0,0.0,0.0,0.0,0.0,0.0,-1.256,-1.2621,-1.2621,-1.2621,-1.2909,-1.3251,-1.3584,-1.3942,-1.4291,-1.4569,-1.4569,-1.4569,-1.4569,-1.4569,-1.4569,-1.4569,-1.4569,-1.4569,-1.4569,-1.4569,0.0,0.0,0.0,0.0,0.0,0.0,0.0,0.0,-1.4569,-1.4569,-1.4569,-1.4569,0.0,0.0,0.0,0.0,0.0,-1.4569,-1.4274,-1.4049,-1.4489,-1.4569,-1.4569,0.0,0.0,0.0,0.0,0.0,0.0,0.0,0.0,0.0,0.0,0.0,0.0,0.0,0.0,0.0,0.0,0.0,0.0,0.0,0.0,0.0,0.0,0.0,0.0,0.0,-1.4569,-1.4641,-1.4776,-1.4776,-1.5204,-1.6105,-1.7069,-1.809,-1.9315,-1.9688,-2.0276,-2.1031,-2.1487,-2.1487,0.0,0.0,-2.0276,-1.9831,-1.9432,-1.9432,-1.9682,-1.9287,-1.9313,-1.9613,-1.9287,-1.9075,-1.9075,0.0,0.0,0.0,0.0,0.0,0.0,0.0,0.0,0.0,0.0,0.0,0.0,0.0,0.0,0.0,0.0,0.0,0.0,0.0,0.0,-1.2498,-1.2621,-1.2621,-1.2647,-1.2846,-1.3179,-1.3521,-1.387,-1.422,-1.4482,-1.4561,-1.4442,-1.4355,-1.4355,-1.4355,-1.4355,-1.4363,-1.449,-1.4569,-1.4569,0.0,0.0,0.0,0.0,0.0,0.0,0.0,0.0,0.0,0.0,-1.4569,-1.4569,-1.4569,0.0,0.0,0.0,0.0,0.0,-1.4201,-1.3768,-1.3404,-1.3622,-1.3695,-1.3695,0.0,0.0,0.0,0.0,0.0,0.0,0.0,0.0,0.0,0.0,0.0,0.0,0.0,0.0,0.0,0.0,0.0,0.0,0.0,0.0,0.0,0.0,0.0,0.0,0.0,0.0,-1.4569,-1.4569,-1.4569,-1.4872,-1.551,-1.5959,-1.7242,-1.9258,-1.9463,-1.9954,-2.0787,-2.122,-2.122,-2.0767,0.0,-2.0545,-2.0089,-1.9634,-1.9495,-1.9432,-1.9147,-1.9199,-1.9432,-1.9214,-1.9075,-1.9075,0.0,0.0,0.0,0.0,0.0,0.0,0.0,0.0,0.0,0.0,0.0,0.0,0.0,0.0,0.0,0.0,0.0,0.0,0.0,-1.2436,-1.2621,-1.2621,-1.2621,-1.2734,-1.3084,-1.341,-1.3751,-1.4109,-1.4466,-1.4569,-1.4561,-1.4275,-1.4109,-1.4109,-1.4109,-1.4109,-1.4132,-1.449,-1.4569,-1.4569,0.0,0.0,0.0,0.0,0.0,0.0,0.0,0.0,0.0,0.0,0.0,0.0,0.0,0.0,0.0,-1.4418,-1.4049,-1.3615,-1.3615,-1.3185,-1.2673,-1.2673,0.0,0.0,0.0,0.0,0.0,0.0,0.0,0.0,0.0,0.0,0.0,0.0,0.0,0.0,0.0,0.0,0.0,0.0,0.0,0.0,0.0,0.0,0.0,0.0,0.0,0.0,0.0,0.0,-1.4768,-1.4768,-1.4768,-1.4863,-1.5054,-1.5141,-1.6326,-1.8585,-1.8689,-1.9154,-1.9928,-2.0537,-2.0692,-2.0371,-2.0775,-2.069,-2.0234,-1.9789,-1.9385,-1.9075,-1.9075,-1.9075,-1.9085,-1.9189,-1.9158,-1.9152,0.0,0.0,0.0,0.0,0.0,0.0,0.0,0.0,0.0,0.0,0.0,0.0,0.0,0.0,0.0,0.0,0.0,0.0,0.0,-1.2436,-1.2621,-1.2621,-1.2621,-1.2734,-1.3084,-1.341,-1.3751,-1.4109,-1.4466,-1.4569,-1.4561,-1.4275,-1.4109,-1.4109,-1.4109,-1.4109,-1.4132,-1.449,-1.4569,-1.4569,-1.4569,0.0,0.0,0.0,0.0,0.0,0.0,0.0,0.0,0.0,0.0,0.0,0.0,0.0,-1.3833,-1.3833,-1.3397,-1.2966,-1.2966,-1.2526,-1.2077,0.0,0.0,0.0,0.0,0.0,0.0,0.0,0.0,0.0,0.0,0.0,0.0,0.0,0.0,0.0,0.0,0.0,0.0,0.0,0.0,0.0,0.0,0.0,0.0,0.0,0.0,0.0,0.0,0.0,0.0,-1.5141,-1.5141,-1.499,-1.4681,-1.5014,-1.5626,-1.6517,-1.6945,-1.7521,-1.8332,-1.9502,-1.9997,-1.9932,-2.0307,-2.0224,-1.9837,-1.9313,-1.9106,-1.9075,-1.9075,-1.9075,-1.9116,-1.9619,-1.9437,-1.9137,0.0,0.0,0.0,0.0,0.0,0.0,0.0,0.0,0.0,0.0,0.0,0.0,0.0,0.0,0.0,0.0,0.0,0.0,0.0,-1.2613,-1.2621,-1.2621,-1.2621,-1.2734,-1.3084,-1.341,-1.3862,-1.4442,-1.4577,-1.4522,-1.4307,-1.4172,-1.3989,-1.3791,-1.4013,-1.4109,-1.4132,-1.449,-1.4569,-1.4569,-1.4569,-1.4569,0.0,0.0,0.0,0.0,0.0,0.0,0.0,0.0,-1.4569,-1.4569,-1.4569,-1.4201,-1.3833,-1.3833,-1.3105,-1.2305,-1.2305,-1.1929,0.0,0.0,0.0,0.0,0.0,0.0,0.0,0.0,0.0,0.0,0.0,0.0,0.0,0.0,0.0,0.0,0.0,0.0,0.0,0.0,0.0,0.0,0.0,0.0,0.0,0.0,0.0,0.0,0.0,0.0,0.0,-1.4329,-1.4621,-1.4784,-1.4569,-1.4776,-1.4985,-1.5275,-1.6682,-1.7457,-1.7764,-1.8757,-1.8907,-1.8411,-1.8834,-1.9076,-1.9103,-1.8933,-1.8975,-1.9106,-1.9453,-1.9665,-1.9934,-2.011,-2.0058,-1.9934,0.0,0.0,0.0,0.0,0.0,0.0,0.0,0.0,0.0,0.0,0.0,0.0,0.0,0.0,0.0,0.0,0.0,0.0,-1.2712,-1.2789,-1.2797,-1.2629,-1.2621,-1.2734,-1.3084,-1.3306,-1.3767,-1.4474,-1.4514,-1.4458,-1.4109,-1.4109,-1.3918,-1.36,-1.395,-1.4109,-1.4132,-1.449,-1.4569,-1.4569,-1.4569,-1.4569,0.0,0.0,0.0,0.0,0.0,0.0,0.0,0.0,-1.4569,-1.4569,-1.4569,-1.4129,-1.355,-1.355,-1.2659,-1.1706,-1.1706,-1.1409,0.0,0.0,0.0,0.0,0.0,0.0,0.0,0.0,0.0,0.0,0.0,0.0,0.0,0.0,0.0,0.0,0.0,0.0,0.0,0.0,0.0,0.0,0.0,0.0,0.0,0.0,0.0,0.0,0.0,0.0,0.0,0.0,-1.4509,-1.476,-1.4569,-1.4569,-1.4569,-1.4649,-1.6178,-1.6892,-1.6792,-1.7879,-1.7991,-1.7398,-1.7968,-1.8209,-1.8322,-1.8613,-1.8943,-1.9323,-1.9702,-1.9944,-2.0245,-2.0534,-2.0555,-2.0441,0.0,0.0,0.0,0.0,0.0,0.0,0.0,0.0,-1.3511,-1.3511,-1.3502,0.0,0.0,0.0,0.0,0.0,0.0,0.0,-1.2189,-1.2964,-1.3208,-1.2621,-1.2621,-1.2789,-1.3084,-1.3084,-1.3425,-1.4109,-1.4458,-1.445,-1.4109,-1.4109,-1.3918,-1.3608,-1.3958,-1.4117,-1.414,-1.449,-1.4569,-1.4569,-1.4569,-1.4569,-1.4569,0.0,0.0,0.0,0.0,0.0,0.0,0.0,-1.4569,-1.4569,-1.4569,-1.384,-1.29,-1.29,-1.2003,-1.1111,-1.1111,-1.1111,0.0,0.0,0.0,0.0,0.0,0.0,0.0,0.0,0.0,0.0,0.0,0.0,0.0,0.0,0.0,0.0,0.0,0.0,0.0,0.0,0.0,0.0,0.0,0.0,0.0,0.0,0.0,0.0,0.0,0.0,0.0,0.0,-1.4867,-1.5006,-1.4569,-1.4569,-1.4569,-1.4585,-1.534,-1.5499,-1.5279,-1.6792,-1.7304,-1.7044,-1.7775,-1.7834,-1.7521,-1.8322,-1.9113,-1.9758,-1.9758,-1.9768,-1.9882,-2.0783,-2.0824,-2.0503,0.0,0.0,0.0,0.0,0.0,0.0,0.0,0.0,-1.4815,-1.4815,-1.446,0.0,0.0,0.0,0.0,0.0,0.0,0.0,-1.4043,-1.4172,-1.4112,-1.3932,-1.345,-1.3266,-1.3375,-1.321,-1.3306,-1.3743,-1.3846,-1.3846,-1.3743,-1.3997,-1.4053,-1.3974,-1.4323,-1.4482,-1.449,-1.4522,-1.4569,-1.4569,-1.4569,-1.4569,-1.4569,0.0,0.0,0.0,0.0,0.0,0.0,0.0,0.0,0.0,-1.4129,-1.3477,-1.2826,-1.2378,-1.1706,-1.1111,-1.1111,0.0,0.0,0.0,0.0,0.0,0.0,0.0,0.0,0.0,0.0,0.0,0.0,0.0,0.0,0.0,0.0,0.0,0.0,0.0,0.0,0.0,0.0,0.0,0.0,0.0,0.0,0.0,0.0,0.0,0.0,0.0,0.0,0.0,-1.4283,-1.4752,-1.4569,-1.4569,-1.4768,-1.5022,-1.5229,-1.5276,-1.5197,-1.5932,-1.6024,-1.5765,-1.5634,-1.5884,-1.6342,-1.7116,-1.7703,-1.8171,-1.8171,-1.8903,-1.9992,-2.0252,-2.0771,-2.1414,0.0,0.0,0.0,0.0,0.0,0.0,0.0,0.0,-1.541,-1.541,-1.5059,-1.5001,0.0,0.0,0.0,0.0,0.0,0.0,0.0,-1.4765,-1.4765,-1.4529,-1.4112,-1.3932,-1.3932,-1.3495,-1.3345,-1.3549,-1.3573,-1.3584,-1.3592,-1.3942,-1.4109,-1.4125,-1.4482,-1.4569,-1.4569,-1.4569,-1.4569,-1.4569,-1.4569,-1.4569,-1.4569,0.0,0.0,0.0,0.0,0.0,0.0,0.0,0.0,0.0,-1.4201,-1.355,-1.282,-1.2452,-1.1781,-1.1111,-1.1111,0.0,0.0,0.0,0.0,0.0,0.0,0.0,0.0,0.0,0.0,0.0,0.0,0.0,0.0,0.0,0.0,0.0,0.0,0.0,0.0,0.0,0.0,0.0,0.0,0.0,0.0,0.0,0.0,0.0,0.0,0.0,0.0,0.0,-1.3688,-1.4274,-1.4274,-1.4489,-1.4824,-1.5189,-1.5189,-1.5253,-1.5388,-1.5586,-1.5419,-1.4959,-1.4736,-1.5144,-1.6039,-1.6377,-1.689,-1.7521,-1.7521,-1.8227,-1.9286,-1.9834,-2.0556,-2.1308,0.0,0.0,-1.541,-1.541,0.0,0.0,0.0,0.0,-1.541,-1.541,-1.541,-1.541,0.0,0.0,0.0,0.0,0.0,0.0,-1.4213,-1.4991,-1.5235,-1.4715,-1.4588,-1.4529,-1.4469,-1.3872,-1.3511,-1.3511,-1.3493,-1.3521,-1.3592,-1.391,-1.4101,-1.4172,-1.4466,-1.4522,-1.4522,-1.4522,-1.4522,-1.4522,-1.4553,-1.4553,-1.4522,-1.4522,0.0,0.0,0.0,0.0,0.0,0.0,0.0,0.0,-1.4497,-1.3695,-1.29,-1.2746,-1.1929,-1.1111,0.0,0.0,0.0,0.0,0.0,0.0,0.0,0.0,0.0,0.0,0.0,0.0,0.0,0.0,0.0,0.0,0.0,0.0,0.0,0.0,0.0,0.0,0.0,0.0,0.0,0.0,0.0,0.0,0.0,0.0,0.0,0.0,0.0,-1.2003,-1.3171,-1.3833,-1.3833,-1.4346,-1.4824,0.0,-1.5149,-1.5324,-1.5674,-1.5642,-1.5268,-1.4569,-1.4569,-1.5242,-1.6233,-1.5828,-1.6307,-1.726,-1.726,-1.7533,-1.8128,-1.9314,-1.9984,-2.0478,0.0,0.0,-1.541,-1.541,0.0,0.0,0.0,0.0,0.0,-1.541,0.0,0.0,0.0,0.0,0.0,0.0,0.0,0.0,-1.5488,-1.5768,-1.5941,-1.6019,-1.5478,-1.5001,-1.4529,-1.3872,-1.3511,-1.3511,-1.3013,-1.3052,-1.3584,-1.3664,-1.3989,-1.4443,-1.4315,-1.4228,-1.4228,-1.4228,-1.4228,-1.4252,-1.4458,-1.4474,-1.4228,-1.4228,-1.4228,0.0,0.0,0.0,0.0,0.0,0.0,0.0,-1.355,-1.3119,-1.2673,-1.1781,-1.1335,-1.1111,0.0,0.0,0.0,0.0,0.0,0.0,0.0,0.0,0.0,0.0,0.0,0.0,0.0,0.0,0.0,0.0,0.0,0.0,0.0,0.0,0.0,0.0,0.0,0.0,0.0,0.0,0.0,0.0,0.0,0.0,0.0,0.0,0.0,-1.2003,-1.3171,-1.3833,-1.3833,-1.4346,-1.4824,0.0,-1.4895,-1.5086,-1.5666,-1.5411,-1.5054,-1.4569,-1.4569,-1.4753,-1.4961,-1.488,-1.5031,-1.524,-1.524,-1.6074,-1.7278,-1.7508,-1.843,-1.9524,0.0,0.0,0.0,0.0,0.0,0.0,0.0,0.0,0.0,0.0,0.0,0.0,0.0,0.0,0.0,0.0,-1.5604,-1.574,-1.5914,-1.6009,-1.6181,-1.6374,-1.6077,-1.572,-1.543,-1.4756,-1.4401,-1.4401,-1.3629,-1.3387,-1.3584,-1.3584,-1.387,-1.4379,-1.4196,-1.4021,-1.3862,-1.3862,-1.3862,-1.3878,-1.4061,-1.4021,-1.3862,-1.3862,-1.3966,-1.4109,-1.4109,0.0,0.0,0.0,0.0,0.0,0.0,0.0,-1.2746,-1.1781,-1.1335,-1.1111,0.0,0.0,0.0,0.0,0.0,0.0,0.0,0.0,0.0,0.0,0.0,0.0,0.0,0.0,0.0,0.0,0.0,0.0,0.0,0.0,0.0,0.0,0.0,0.0,0.0,0.0,0.0,0.0,0.0,0.0,0.0,-1.1409,-1.1558,-1.1558,-1.2439,-1.3105,-1.3404,-1.3912,-1.4525,-1.5181,-1.4816,-1.4832,-1.5181,-1.5181,-1.4982,-1.4569,-1.4569,-1.4569,-1.4569,-1.4569,-1.4569,-1.4569,-1.4569,-1.5259,-1.6188,-1.6553,-1.7462,-1.8422,0.0,0.0,0.0,0.0,0.0,0.0,0.0,0.0,0.0,0.0,0.0,0.0,0.0,0.0,0.0,0.0,0.0,0.0,-1.5856,-1.6009,-1.6181,-1.6374,-1.6384,-1.6384,-1.6384,-1.5848,-1.5527,-1.5527,-1.4727,-1.4165,-1.3872,0.0,-1.3831,-1.4109,-1.4183,-1.3958,-1.3687,-1.3687,-1.3753,-1.3827,-1.3818,-1.3743,-1.3695,-1.376,-1.3894,-1.4029,-1.4093,-1.4339,-1.4569,-1.4569,0.0,0.0,0.0,0.0,-1.2746,-1.215,-1.1558,-1.1111,0.0,0.0,0.0,0.0,0.0,0.0,0.0,0.0,0.0,0.0,0.0,0.0,0.0,0.0,0.0,0.0,0.0,0.0,0.0,0.0,0.0,0.0,0.0,0.0,0.0,0.0,0.0,0.0,0.0,0.0,-1.1111,-1.1111,-1.1111,-1.1111,-1.1706,-1.2298,-1.29,-1.347,-1.4267,-1.5086,-1.4847,-1.4697,-1.4585,-1.5014,-1.4982,-1.4569,-1.4569,-1.4569,-1.4569,-1.4569,-1.4569,-1.4569,-1.4569,-1.4863,-1.5255,-1.5961,-1.6606,-1.7158,0.0,0.0,0.0,0.0,0.0,0.0,0.0,0.0,0.0,0.0,-1.541,-1.541,0.0,0.0,-1.541,-1.541,-1.541,-1.5536,-1.573,0.0,0.0,-1.6374,-1.6384,-1.6384,-1.6384,-1.6148,-1.6037,-1.6037,-1.571,0.0,0.0,0.0,0.0,-1.4101,0.0,0.0,-1.3963,-1.3963,-1.4279,-1.4809,-1.456,-1.4241,-1.3996,-1.4309,-1.4131,-1.3696,-1.4005,-1.4339,-1.4569,-1.4569,-1.4569,0.0,0.0,0.0,0.0,-1.215,-1.1558,0.0,0.0,0.0,0.0,0.0,0.0,0.0,0.0,0.0,0.0,0.0,0.0,0.0,0.0,0.0,0.0,0.0,0.0,0.0,0.0,0.0,0.0,0.0,0.0,0.0,0.0,0.0,0.0,0.0,0.0,0.0,-1.1111,-1.1111,-1.1111,-1.1111,-1.1706,-1.2298,-1.29,-1.347,-1.4072,-1.4648,-1.4982,-1.4943,-1.4585,-1.5014,-1.4982,-1.4569,-1.4569,-1.4569,-1.4569,-1.4569,-1.4569,-1.4569,-1.4569,-1.4863,-1.5181,-1.533,-1.5646,-1.592,0.0,0.0,0.0,0.0,0.0,0.0,0.0,0.0,0.0,0.0,0.0,-1.541,0.0,-1.541,-1.5312,-1.5078,-1.5273,-1.5478,-1.5672,-1.6184,-1.656,-1.6629,-1.6935,-1.714,-1.714,-1.7012,-1.6991,-1.6991,0.0,0.0,0.0,-1.4788,-1.4396,0.0,0.0,0.0,0.0,0.0,0.0,-1.4693,-1.4188,-1.3905,-1.374,-1.3741,-1.368,-1.3632,-1.3982,-1.4339,-1.4569,-1.4569,-1.4569,-1.4497,-1.3977,0.0,0.0,0.0,0.0,0.0,0.0,0.0,0.0,0.0,0.0,0.0,0.0,0.0,0.0,0.0,0.0,0.0,0.0,0.0,0.0,0.0,0.0,0.0,0.0,0.0,0.0,0.0,0.0,0.0,0.0,0.0,0.0,0.0,0.0,-1.1178,-1.1341,-1.1196,-1.1111,-1.1111,-1.1335,-1.1781,-1.2378,-1.2966,-1.3695,-1.4569,-1.48,-1.4792,-1.4649,-1.4808,-1.4792,-1.4569,-1.4569,-1.4569,-1.4569,-1.4569,-1.4569,-1.4569,-1.4569,-1.4736,-1.4879,-1.4879,-1.5102,-1.5348,0.0,0.0,0.0,0.0,0.0,0.0,0.0,0.0,0.0,0.0,0.0,0.0,0.0,0.0,0.0,0.0,-1.5234,-1.5429,-1.5514,-1.6035,-1.6392,-1.6392,-1.7062,-1.7441,-1.7327,-1.7657,-1.7708,-1.7409,0.0,0.0,-1.6075,-1.5175,-1.4717,0.0,-1.4624,0.0,0.0,0.0,0.0,0.0,0.0,-1.3511,-1.3501,-1.3482,-1.3501,-1.364,-1.4085,-1.4418,-1.4569,-1.4569,-1.4569,-1.4497,-1.4129,-1.3905,0.0,0.0,0.0,0.0,0.0,0.0,0.0,0.0,0.0,0.0,0.0,0.0,0.0,0.0,0.0,0.0,0.0,0.0,0.0,0.0,0.0,0.0,0.0,0.0,0.0,0.0,0.0,0.0,0.0,0.0,0.0,0.0,0.0,-1.1202,-1.1413,-1.1226,-1.1111,-1.1111,-1.1111,-1.1409,-1.2003,-1.2739,-1.3622,-1.4569,-1.4569,-1.4569,-1.4569,-1.4569,-1.4569,-1.4569,-1.4569,-1.4569,-1.4569,-1.4569,-1.4569,-1.4569,-1.4569,-1.4569,-1.4569,-1.4569,-1.4871,-1.5141,0.0,0.0,0.0,0.0,0.0,0.0,0.0,0.0,0.0,0.0,0.0,0.0,-1.541,-1.541,-1.54,-1.5381,-1.54,-1.5302,-1.5077,-1.5068,-1.5189,-1.5346,-1.63,0.0,-1.6185,-1.7626,-1.7795,0.0,0.0,0.0,-1.5799,-1.5369,-1.5,-1.4624,-1.4624,-1.4731,-1.4896,0.0,0.0,0.0,0.0,0.0,0.0,0.0,0.0,0.0,0.0,0.0,-1.4569,-1.4569,-1.4569,-1.4569,-1.4569,-1.4201,-1.3688,0.0,0.0,0.0,0.0,0.0,0.0,0.0,0.0,0.0,0.0,0.0,0.0,0.0,0.0,0.0,0.0,0.0,0.0,0.0,0.0,0.0,0.0,0.0,0.0,0.0,0.0,0.0,0.0,0.0,0.0,0.0,0.0,-1.1117,-1.1135,-1.1117,-1.1111,-1.1111,-1.1111,-1.1409,-1.2003,-1.3178,-1.4049,-1.4569,-1.4569,-1.4569,-1.4569,-1.4569,-1.4569,-1.4569,-1.4569,-1.4569,-1.4569,-1.4569,-1.4569,-1.4569,-1.4569,-1.4569,-1.4569,-1.4569,-1.4871,-1.5181,0.0,0.0,0.0,0.0,0.0,0.0,0.0,0.0,0.0,0.0,0.0,0.0,0.0,-1.4922,-1.4665,-1.4889,-1.4429,-1.4399,-1.4894,-1.5285,-1.5491,-1.5548,-1.6567,-1.7094,-1.6991,-1.781,0.0,0.0,0.0,-1.7004,-1.6271,-1.5665,-1.5325,-1.5136,-1.4746,-1.4609,-1.468,-1.4285,0.0,0.0,0.0,0.0,0.0,0.0,0.0,0.0,0.0,0.0,0.0,-1.4569,-1.4569,-1.4569,-1.4569,-1.434,-1.3761,-1.2641,-1.146,0.0,0.0,0.0,0.0,0.0,0.0,0.0,0.0,0.0,0.0,0.0,0.0,0.0,0.0,0.0,0.0,0.0,0.0,0.0,0.0,0.0,0.0,0.0,0.0,0.0,0.0,0.0,0.0,0.0,0.0,0.0,-1.1371,-1.1208,-1.1111,-1.1111,-1.1111,-1.1558,-1.2599,-1.2762,-1.3487,-1.4561,-1.4411,-1.4418,-1.4569,-1.4569,-1.4569,-1.4569,-1.4569,-1.4569,-1.4569,-1.4569,-1.4569,-1.4569,-1.4569,-1.4569,-1.4593,-1.4903,-1.507,-1.5213,0.0,0.0,0.0,0.0,0.0,-1.5397,-1.5392,-1.5414,-1.5387,-1.5392,0.0,0.0,0.0,0.0,-1.4393,-1.4689,-1.4081,-1.4023,-1.4615,-1.5148,-1.5339,-1.517,-1.6327,-1.7,-1.7124,-1.7775,0.0,0.0,0.0,0.0,0.0,-1.5387,-1.5005,-1.5005,-1.4243,-1.4301,0.0,0.0,0.0,-1.4446,0.0,0.0,-1.3725,0.0,0.0,0.0,0.0,0.0,0.0,0.0,0.0,-1.4569,-1.4569,-1.4253,-1.3562,-1.2341,0.0,0.0,0.0,0.0,0.0,0.0,0.0,0.0,0.0,0.0,0.0,0.0,0.0,0.0,0.0,0.0,0.0,0.0,0.0,0.0,0.0,0.0,0.0,0.0,0.0,0.0,0.0,0.0,0.0,0.0,0.0,0.0,-1.1377,-1.1214,-1.1111,-1.1111,-1.1111,-1.1662,-1.2739,-1.2536,-1.3045,-1.4283,-1.4045,-1.4117,-1.4466,-1.4466,-1.4522,-1.4569,-1.4569,-1.4569,-1.4569,-1.4569,-1.4569,-1.4569,-1.4569,-1.4569,-1.4689,-1.5046,-1.5253,-1.5404,0.0,0.0,-1.5372,-1.5395,-1.5309,-1.529,-1.5337,-1.5324,-1.535,-1.5359,0.0,0.0,0.0,0.0,0.0,-1.4883,-1.447,-1.4212,-1.4233,-1.4656,-1.4714,-1.415,-1.5545,-1.6297,-1.6297,-1.7329,0.0,0.0,0.0,0.0,0.0,0.0,-1.4059,-1.4042,-1.3129,-1.3883,-1.5814,0.0,-1.446,-1.4387,0.0,-1.3467,-1.3195,0.0,0.0,0.0,-1.4308,-1.4353,0.0,0.0,0.0,0.0,0.0,0.0,0.0,0.0,0.0,0.0,0.0,0.0,0.0,0.0,0.0,0.0,0.0,0.0,0.0,0.0,0.0,0.0,0.0,0.0,0.0,0.0,0.0,0.0,0.0,0.0,0.0,0.0,0.0,0.0,0.0,0.0,0.0,0.0,0.0,-1.1111,-1.1111,-1.1111,-1.1105,-1.1099,-1.1099,-1.1487,-1.2353,-1.2339,-1.2742,-1.3584,-1.3584,-1.3767,-1.4109,-1.4117,-1.4315,-1.4569,-1.4569,-1.4569,-1.4569,-1.4569,-1.4569,-1.4569,-1.4569,-1.4649,-1.4697,-1.507,-1.5411,-1.5745,0.0,-1.4632,-1.4751,-1.4772,-1.3787,-1.3327,-1.4313,-1.4196,-1.3949,0.0,0.0,0.0,0.0,-1.375,-1.4164,-1.4441,-1.4339,-1.4595,-1.5389,-1.552,-1.5478,-1.528,-1.591,-1.6171,-1.5851,-1.6765,0.0,0.0,0.0,0.0,0.0,0.0,0.0,0.0,-1.4965,-1.4963,-1.5345,-1.3485,0.0,0.0,-1.3518,-1.3592,0.0,0.0,0.0,0.0,0.0,-1.4201,0.0,0.0,-1.4281,-1.4386,0.0,0.0,0.0,0.0,0.0,0.0,-1.0105,0.0,0.0,0.0,0.0,0.0,0.0,-0.6522,0.0,0.0,0.0,0.0,0.0,0.0,0.0,0.0,0.0,0.0,0.0,0.0,0.0,0.0,0.0,0.0,0.0,0.0,0.0,0.0,-1.1111,-1.1111,-1.1111,-1.1111,-1.1021,-1.0834,-1.0828,-1.106,-1.1557,-1.1268,-1.1762,-1.3035,-1.3035,-1.3421,-1.4117,-1.4379,-1.4474,-1.4569,-1.4569,-1.4569,-1.4569,-1.4569,-1.4569,-1.4569,-1.4569,-1.48,-1.5078,-1.5419,-1.5761,-1.6111,-1.3907,-1.3985,-1.4017,-1.3989,-1.3515,-1.3131,-1.3227,-1.3521,-1.3556,0.0,0.0,0.0,0.0,0.0,-1.4457,-1.494,-1.4987,-1.5342,-1.619,-1.6334,-1.6313,-1.6063,-1.6242,-1.629,-1.6214,-1.6496,-1.6384,0.0,0.0,0.0,0.0,0.0,0.0,0.0,-1.4512,0.0,0.0,0.0,0.0,0.0,-1.3874,0.0,0.0,-1.4086,-1.4137,0.0,0.0,0.0,-1.4057,-1.3992,-1.4137,0.0,0.0,0.0,0.0,0.0,0.0,0.0,0.0,0.0,0.0,0.0,0.0,0.0,-0.7581,-0.7088,-0.6634,0.0,0.0,0.0,0.0,0.0,0.0,0.0,0.0,0.0,0.0,0.0,0.0,0.0,0.0,0.0,0.0,0.0,0.0,-1.1037,-1.1111,-1.1111,-1.1111,-1.1009,-1.0876,-1.0725,-1.061,-1.0709,-1.0979,-1.081,-1.1141,-1.2036,-1.2439,-1.2945,-1.3553,-1.412,-1.4498,-1.4569,-1.4569,-1.4569,-1.4569,-1.4569,-1.4569,-1.4569,-1.4569,-1.4863,-1.5205,-1.5404,-1.5785,-1.6238,0.0,-1.3168,-1.3176,-1.3228,-1.3782,-1.3753,-1.2404,-1.3184,-1.3708,0.0,-1.2995,0.0,0.0,0.0,-1.5184,-1.582,-1.6007,-1.6298,-1.6807,-1.7208,-1.7213,-1.6793,-1.6541,-1.6555,-1.6912,-1.6387,-1.6096,-1.5986,0.0,0.0,0.0,0.0,0.0,0.0,-1.2895,-1.2254,0.0,0.0,0.0,-1.4003,-1.4551,-1.4371,0.0,0.0,-1.3928,0.0,-1.3863,-1.3855,-1.3992,-1.3863,-1.4072,0.0,0.0,0.0,0.0,0.0,-1.2473,0.0,0.0,0.0,0.0,0.0,0.0,0.0,-0.8318,-0.7726,-0.7253,0.0,0.0,0.0,0.0,0.0,0.0,0.0,0.0,0.0,0.0,0.0,0.0,0.0,0.0,0.0,0.0,-0.9463,-1.0218,-1.1037,-1.1111,-1.1111,-1.1111,-1.0888,-1.0749,-1.0719,-1.0466,-1.0405,-1.0599,-1.056,-1.0679,-1.0989,-1.1818,-1.2467,-1.2916,-1.3737,-1.4307,-1.4569,-1.4569,-1.4569,-1.4569,-1.4569,-1.4569,-1.4569,-1.4569,-1.4863,-1.5189,-1.5229,-1.5726,-1.6373,-1.256,-1.2353,-1.2485,-1.2923,-1.2742,-1.2629,-1.2707,-1.2919,-1.3016,-1.2968,-1.3471,0.0,0.0,0.0,-1.5726,-1.5902,-1.662,-1.7337,-1.7862,-1.7981,-1.796,-1.7824,-1.7324,-1.6853,-1.6436,-1.6228,-1.5889,-1.5537,0.0,0.0,0.0,0.0,0.0,0.0,-1.3233,-1.2696,0.0,0.0,0.0,-1.2993,-1.3549,0.0,-1.3772,-1.3768,-1.3717,-1.3637,-1.3564,-1.3564,-1.3637,0.0,-1.4057,-1.4194,0.0,0.0,0.0,0.0,0.0,0.0,0.0,0.0,0.0,0.0,0.0,0.0,-0.9044,-0.8442,-0.7991,0.0,0.0,0.0,0.0,0.0,0.0,0.0,0.0,0.0,0.0,0.0,0.0,0.0,0.0,0.0,0.0,-0.9463,-1.0218,-1.1037,-1.1111,-1.1111,-1.1111,-1.1063,-1.0936,-1.0725,-1.0466,-1.02,-1.0074,-0.986,-1.0162,-1.0989,-1.1503,-1.2336,-1.3459,-1.3881,-1.4307,-1.4569,-1.4569,-1.4569,-1.4569,-1.4569,-1.4569,-1.4569,-1.4569,-1.4863,-1.5213,-1.5483,-1.6081,-1.6809,-1.3839,-1.3368,-1.3112,-1.3385,-1.3004,-1.2803,-1.3063,-1.3292,-1.338,-1.322,-1.3789,0.0,0.0,0.0,0.0,0.0,-1.6975,-1.7423,-1.7772,-1.7808,-1.7766,-1.7761,-1.7179,-1.6815,-1.6787,-1.6141,-1.5816,-1.5864,0.0,0.0,0.0,0.0,0.0,0.0,0.0,0.0,0.0,0.0,-1.2769,-1.2877,-1.3557,0.0,-1.379,-1.3717,-1.3572,-1.3492,-1.3492,-1.3492,-1.3637,-1.4482,-1.4697,0.0,0.0,-1.5204,-1.5059,0.0,-1.3901,-1.3616,0.0,0.0,0.0,-1.1632,0.0,0.0,0.0,-0.951,-0.8645,0.0,0.0,0.0,0.0,0.0,0.0,0.0,0.0,0.0,0.0,0.0,0.0,0.0,0.0,0.0,0.0,-1.0067,-1.0663,-1.1037,-1.1111,-1.1111,-1.1111,-1.0985,-1.0858,-1.0725,-1.0466,-1.0266,-1.0134,-0.9808,-1.0061,-1.0833,-1.1386,-1.2065,-1.2953,-1.3734,-1.4212,-1.4387,-1.4561,-1.4569,-1.4569,-1.4569,-1.4569,-1.4569,-1.4569,-1.4967,-1.5427,-1.5427,-1.6183,-1.7199,-1.5526,-1.476,-1.4194,-1.4043,-1.36,-1.3324,-1.3298,-1.3737,-1.4009,-1.3838,-1.423,0.0,0.0,0.0,0.0,0.0,0.0,-1.726,0.0,0.0,-1.7412,-1.7509,-1.6849,-1.6768,-1.7283,-1.6127,-1.5818,-1.6472,0.0,0.0,0.0,0.0,0.0,0.0,0.0,0.0,0.0,0.0,0.0,-1.2894,0.0,-1.3962,-1.3717,-1.3572,-1.3492,-1.3492,-1.3492,-1.3564,-1.392,-1.5046,0.0,-1.548,-1.5903,-1.5903,0.0,0.0,0.0,0.0,0.0,0.0,0.0,0.0,0.0,-1.1317,0.0,0.0,0.0,0.0,0.0,0.0,0.0,0.0,0.0,0.0,0.0,0.0,0.0,0.0,0.0,0.0,0.0,0.0,0.0,-1.0587,-1.1172,-1.1111,-1.1166,-1.1172,-1.1111,-1.0906,-1.0797,-1.0797,-1.0544,-1.0405,-1.0405,-1.003,-1.0201,-1.0857,-1.1262,-1.1855,-1.252,-1.3525,-1.4045,-1.4132,-1.4482,-1.4569,-1.4569,-1.4569,-1.4569,-1.4569,-1.4569,-1.503,-1.5554,-1.5431,-1.6236,-1.7413,-1.619,-1.5457,-1.4809,-1.4097,-1.3671,-1.3391,-1.3301,-1.3627,-1.4224,0.0,0.0,0.0,0.0,0.0,0.0,0.0,0.0,0.0,-1.7846,0.0,-1.7509,-1.7846,-1.6997,-1.6768,-1.7283,-1.6181,-1.6084,-1.709,-1.5614,0.0,0.0,0.0,0.0,0.0,-1.1886,0.0,0.0,0.0,-1.2233,0.0,-1.3312,-1.3528,0.0,-1.3499,-1.3492,-1.3492,-1.3492,-1.3912,-1.4537,0.0,-1.5683,-1.6237,0.0,-1.6315,0.0,0.0,0.0,0.0,0.0,0.0,0.0,0.0,-1.3192,0.0,0.0,0.0,0.0,0.0,0.0,0.0,0.0,0.0,0.0,0.0,0.0,0.0,0.0,0.0,0.0,0.0,0.0,0.0,0.0,0.0,-1.1377,-1.1129,-1.1341,-1.1377,-1.1123,-1.1081,-1.1063,-1.1063,-1.081,-1.0677,-1.0677,-1.0119,-1.0394,-1.1304,-1.117,-1.1758,-1.3036,-1.3473,-1.3815,-1.4132,-1.4482,-1.4569,-1.4569,-1.4569,-1.4569,-1.4569,-1.4569,-1.4887,-1.5343,-1.597,-1.674,-1.7578,-1.7398,-1.6558,-1.5938,-1.5552,-1.4958,-1.455,-1.4753,-1.4676,-1.4644,0.0,0.0,0.0,0.0,0.0,0.0,0.0,0.0,-1.7526,0.0,0.0,0.0,-1.7756,-1.7421,-1.7496,-1.8157,-1.7373,-1.719,-1.7699,-1.6471,0.0,0.0,0.0,0.0,0.0,-1.2008,0.0,-1.2055,0.0,0.0,0.0,0.0,0.0,0.0,-1.3492,-1.3492,-1.3492,-1.3492,-1.3702,-1.4122,0.0,-1.5948,0.0,0.0,0.0,0.0,0.0,0.0,0.0,0.0,0.0,0.0,0.0,0.0,0.0,-1.2841,0.0,-1.1577,0.0,0.0,0.0,0.0,0.0,0.0,0.0,0.0,0.0,0.0,0.0,0.0,0.0,0.0,0.0,0.0,0.0,0.0,0.0,0.0,-1.1407,-1.1129,-1.1111,-1.1111,-1.1111,-1.1003,-1.0948,-1.0948,-1.0429,-1.0498,-1.1229,-1.1083,-1.15,-1.235,-1.3011,-1.3481,-1.3823,-1.418,-1.445,-1.4569,-1.4569,-1.4569,-1.4569,-1.4569,-1.5121,-1.5861,-1.6152,-1.7115,-1.8232,-1.8327,0.0,0.0,-1.6606,-1.5763,-1.517,-1.5426,-1.5121,-1.4832,-1.4613,0.0,0.0,-1.5546,-1.645,0.0,0.0,0.0,-1.7205,0.0,0.0,-1.6784,0.0,0.0,0.0,0.0,-1.8176,-1.8061,-1.8375,-1.7198,-1.6306,0.0,0.0,0.0,0.0,0.0,-1.2134,-1.2617,0.0,0.0,-1.3162,-1.3397,-1.3492,-1.3492,-1.3492,-1.3492,-1.3492,-1.3492,-1.3637,-1.4057,-1.5517,-1.6079,0.0,-1.6664,0.0,0.0,0.0,0.0,0.0,-1.7139,0.0,0.0,0.0,0.0,0.0,0.0,0.0,0.0,0.0,0.0,0.0,0.0,0.0,0.0,0.0,0.0,0.0,0.0,0.0,0.0,0.0,0.0,0.0,0.0,0.0,0.0,-1.1256,-1.1486,-1.1486,-1.1129,-1.1111,-1.1111,-1.1111,-1.1111,-1.1111,-1.1111,-1.0592,-1.0604,-1.1073,-1.1023,-1.122,-1.1755,-1.2739,-1.3344,-1.3549,-1.4032,-1.4403,-1.4569,-1.4569,-1.4641,-1.4792,-1.4889,-1.5667,-1.6657,-1.6514,-1.7458,-1.87,-1.8688,-1.7957,0.0,0.0,0.0,-1.4513,-1.4513,-1.4462,-1.4559,0.0,0.0,0.0,0.0,0.0,0.0,0.0,0.0,-1.6405,-1.7424,0.0,-1.7056,0.0,0.0,-1.784,0.0,0.0,-1.8339,-1.8987,-1.7424,0.0,0.0,0.0,0.0,0.0,0.0,-1.2505,-1.298,-1.2624,-1.2884,-1.3477,-1.3492,-1.3492,-1.3492,0.0,-1.3492,-1.3492,-1.3492,0.0,0.0,-1.5649,-1.6,0.0,0.0,0.0,0.0,0.0,0.0,0.0,0.0,0.0,0.0,-1.5965,0.0,0.0,0.0,0.0,-1.3223,0.0,0.0,0.0,0.0,0.0,-1.0423,-1.0914,-1.0368,0.0,0.0,0.0,0.0,0.0,0.0,0.0,0.0,0.0,0.0,-1.1558,-1.1763,-1.1679,-1.1141,-1.1111,-1.1111,-1.1111,-1.1111,-1.1111,-1.1111,-1.0592,-1.0604,-1.1073,-1.1023,-1.1135,-1.1428,-1.294,-1.3421,-1.3282,-1.4182,-1.4561,-1.4569,-1.4569,-1.4856,-1.5237,-1.5609,-1.6485,-1.7402,-1.7119,-1.77,-1.8772,-1.9199,0.0,0.0,0.0,0.0,-1.5264,-1.4941,-1.4866,-1.4703,0.0,0.0,0.0,0.0,0.0,-1.6125,0.0,0.0,-1.7114,-1.7943,-1.7786,0.0,0.0,0.0,-1.9538,0.0,0.0,0.0,0.0,0.0,0.0,0.0,0.0,0.0,0.0,0.0,-1.3553,0.0,0.0,0.0,0.0,0.0,-1.2673,-1.2725,0.0,0.0,-1.347,-1.325,-1.3304,0.0,-1.4963,-1.5333,-1.537,-1.5913,-1.6747,-1.7474,-1.7123,-1.755,0.0,0.0,0.0,-1.756,-1.7345,0.0,0.0,0.0,0.0,0.0,0.0,0.0,0.0,0.0,0.0,-1.1959,-1.1768,-1.1484,-1.126,0.0,0.0,0.0,0.0,0.0,0.0,0.0,0.0,0.0,-1.1546,-1.1443,-1.1304,0.0,-1.1111,-1.1111,-1.1111,-1.1111,-1.1111,-1.1111,-1.0761,-1.0657,-1.0864,-1.0788,-1.0923,-1.1202,-1.1836,-1.2676,-1.3623,-1.3676,-1.4206,-1.4991,-1.4713,-1.4713,-1.4888,-1.5552,-1.6353,-1.7229,-1.7652,-1.8386,-1.9109,-1.9543,0.0,0.0,0.0,0.0,0.0,0.0,0.0,0.0,0.0,-1.4118,0.0,-1.4143,0.0,-1.5739,0.0,-1.6576,-1.712,-1.8044,-1.8031,0.0,-1.9446,-1.9856,0.0,0.0,0.0,0.0,0.0,0.0,-1.7669,0.0,0.0,0.0,0.0,0.0,0.0,0.0,0.0,-1.3454,0.0,0.0,-1.1855,0.0,0.0,-1.2699,-1.3448,0.0,-1.3009,-1.3127,-1.4231,-1.4497,-1.4461,-1.499,-1.6131,-1.7233,-1.6617,-1.7541,-1.873,-1.864,-1.8487,0.0,-1.7841,-1.7513,0.0,-1.6816,0.0,0.0,0.0,0.0,0.0,0.0,0.0,-1.2839,-1.2358,-1.2298,-1.2077,0.0,-1.1651,0.0,0.0,0.0,0.0,0.0,0.0,-1.1733,-1.1546,-1.1365,-1.122,0.0,0.0,-1.1111,-1.1111,-1.1111,-1.1111,-1.1111,-1.0852,-1.0719,-1.0713,-1.0829,-1.0889,-1.095,-1.1512,-1.2384,-1.3517,-1.3595,-1.4143,-1.4991,-1.4848,-1.4919,-1.5111,-1.5905,-1.6696,-1.7481,-1.8041,-1.8659,-1.9366,-1.9687,-1.897,0.0,0.0,-1.7127,0.0,0.0,0.0,-1.4536,0.0,-1.4236,-1.4039,-1.4039,-1.4366,-1.4963,-1.5914,-1.5828,0.0,-1.7634,-1.7749,0.0,0.0,-1.9119,-1.9446,-1.9763,0.0,0.0,0.0,0.0,0.0,0.0,0.0,0.0,0.0,-1.3773,0.0,-1.4404,-1.35,-1.277,-1.215,-1.1335,-1.1037,-1.1013,-1.0682,-1.1755,-1.3353,-1.3026,-1.2902,-1.3053,-1.3478,-1.3611,-1.3653,-1.4328,-1.5118,-1.5835,-1.6036,-1.7037,-1.8012,-1.7812,-1.8371,-1.8777,-1.7639,0.0,0.0,0.0,0.0,-1.6556,0.0,0.0,0.0,0.0,0.0,0.0,-1.2997,-1.29,-1.2673,-1.2157,0.0,0.0,0.0,0.0,0.0,0.0,-1.2258,-1.2041,-1.157,-1.1504,0.0,0.0,0.0,-1.1123,-1.1111,-1.1111,-1.1111,-1.1111,-1.0864,-1.0737,-1.0737,-1.0956,-1.0975,-1.0743,-1.1799,-1.2527,-1.2973,-1.384,-1.4346,-1.4641,-1.4991,-1.5417,-1.584,-1.6676,-1.7455,-1.8154,-1.8231,-1.8686,-1.9393,-2.0597,-1.9829,-1.9161,0.0,-1.7183,-1.5945,0.0,0.0,0.0,0.0,-1.3938,-1.3511,-1.3511,-1.3323,-1.357,-1.4407,-1.4704,0.0,0.0,0.0,0.0,-1.9019,-1.9483,-1.9672,-1.9658,-1.9626,0.0,-1.9191,0.0,0.0,-1.6587,0.0,0.0,0.0,0.0,0.0,-1.4486,-1.429,-1.3085,-1.1335,-1.0513,-1.0218,0.0,0.0,-1.0704,-1.1494,-1.1706,-1.1941,-1.2336,-1.2959,-1.333,-1.3596,-1.4001,-1.5096,-1.6166,-1.6078,-1.6831,-1.7758,-1.809,-1.8143,-1.8142,-1.8547,-1.8451,-1.8338,0.0,0.0,0.0,0.0,0.0,0.0,0.0,0.0,0.0,-1.3608,-1.3185,-1.2826,0.0,0.0,0.0,-1.2795,0.0,0.0,-1.198,-1.1479,-1.1238,-1.151,-1.116,0.0,0.0,0.0,0.0,-1.1117,-1.1111,-1.1111,-1.1111,-1.1045,-1.1009,-1.1009,-1.0887,-1.09,-1.1003,-1.1099,-1.1722,-1.2725,-1.3105,-1.3695,-1.4418,-1.4633,-1.4991,-1.5484,-1.6602,-1.7782,-1.9008,-1.904,-1.9332,-1.9824,-2.1245,0.0,0.0,-1.9273,0.0,0.0,-1.6402,0.0,0.0,-1.4595,-1.384,0.0,-1.3072,-1.282,-1.2938,-1.3599,-1.4173,0.0,0.0,0.0,0.0,-1.8486,-1.8988,-1.9401,-1.9699,-1.9478,0.0,-1.8987,0.0,0.0,-1.6227,0.0,0.0,0.0,0.0,-1.4551,0.0,-1.3585,-1.2278,-1.1037,-0.9836,0.0,0.0,-0.928,-0.961,-1.0137,-1.0498,-1.1042,-1.1674,-1.218,-1.2687,-1.3103,-1.3256,-1.4364,-1.559,-1.5557,-1.6321,-1.7246,-1.7491,-1.7616,-1.7854,-1.8361,-1.8433,-1.8495,-1.8961,-1.8604,-1.8029,0.0,0.0,0.0,0.0,0.0,0.0,0.0,0.0,0.0,0.0,0.0,0.0,0.0,0.0,0.0,-1.2312,-1.1347,-1.0948,-1.1492,0.0,0.0,0.0,0.0,0.0,-1.1123,-1.1111,-1.1111,-1.1111,-1.1111,-1.1111,-1.1105,-1.096,-1.0906,-1.0936,-1.0906,-1.1345,-1.2177,-1.2896,-1.3542,-1.4122,-1.4633,-1.5133,-1.5627,-1.6981,-1.8213,-1.9301,-1.9301,-1.9448,-1.9742,0.0,0.0,0.0,0.0,0.0,0.0,0.0,-1.6384,0.0,-1.462,0.0,-1.3203,-1.2763,-1.2665,-1.2771,-1.3167,0.0,-1.46,-1.5183,-1.623,-1.7066,-1.756,-1.8195,-1.888,-1.966,-1.9227,0.0,0.0,0.0,-1.6846,-1.5869,0.0,0.0,0.0,0.0,0.0,0.0,-1.2164,-1.1037,0.0,-0.9306,-0.8685,-0.8642,-0.8467,-0.8605,-0.8986,-0.9585,-1.0277,-1.0999,-1.1459,-1.1981,-1.2512,-1.2573,-1.3554,-1.4706,-1.4982,-1.5782,-1.6634,-1.6492,-1.6995,-1.7585,-1.7637,-1.8019,-1.8413,-1.8878,-1.9023,-1.8865,-1.8172,-1.7482,-1.6793,0.0,0.0,0.0,0.0,0.0,0.0,0.0,0.0,0.0,0.0,0.0,0.0,0.0,-1.167,0.0,0.0,0.0,0.0,0.0,0.0,0.0,-1.1123,-1.1111,0.0,-1.1166,0.0,-1.1129,-1.1166,-1.1129,-1.0991,-1.0779,-1.1009,-1.1279,-1.1579,-1.2839,-1.3542,-1.376,-1.4697,-1.5468,-1.6119,-1.755,-1.8605,-1.9301,-1.9301,-1.9301,-1.9421,0.0,0.0,0.0,0.0,0.0,-1.7122,-1.7272,-1.6159,-1.5121,-1.4634,-1.383,-1.315,-1.2753,-1.2419,-1.2252,-1.2317,-1.3039,0.0,0.0,0.0,0.0,-1.74,-1.7907,-1.8499,-1.9131,-1.9035,-1.8987,0.0,-1.7514,-1.6717,-1.6414,0.0,0.0,0.0,0.0,0.0,-1.2729,-1.1607,0.0,-1.0067,-0.9079,-0.86,-0.8448,-0.8415,-0.8236,-0.8162,-0.9388,-1.0158,-1.0678,-1.1387,-1.1981,-1.2573,-1.313,-1.3863,-1.4706,-1.5488,-1.5906,-1.6201,-1.6732,-1.6777,-1.6798,-1.7543,-1.7792,-1.7957,-1.8402,-1.8796,-1.8865,-1.8172,-1.7901,-1.755,-1.6862,0.0,0.0,0.0,0.0,0.0,0.0,0.0,0.0,0.0,0.0,0.0,0.0,0.0,0.0,0.0,0.0,0.0,0.0,0.0,0.0,0.0,-1.1111,0.0,0.0,0.0,-1.1226,-1.1455,-1.122,-1.1087,-1.1045,-1.1093,-1.1162,-1.1267,-1.2498,-1.3039,-1.3112,-1.4274,-1.5559,-1.6862,-1.7766,-1.8605,-1.9301,-1.9301,-1.9301,-1.9421,0.0,0.0,0.0,0.0,0.0,0.0,0.0,-1.5532,0.0,-1.3847,-1.3223,-1.274,-1.2291,-1.1926,-1.1778,-1.2076,-1.266,-1.3106,-1.3308,-1.4669,-1.5753,-1.6293,-1.7434,0.0,-1.8093,-1.8375,-1.8247,-1.7649,-1.6909,-1.6115,-1.5339,0.0,0.0,0.0,0.0,-1.3332,0.0,0.0,0.0,-0.9846,-0.9008,-0.8581,-0.8392,-0.8278,-0.8047,-0.7899,-0.8832,-0.9491,-1.0161,-1.124,-1.1802,-1.2104,-1.2413,-1.2956,-1.3666,-1.4638,-1.5118,-1.5576,-1.6458,-1.6539,-1.6539,-1.7212,-1.7317,-1.7492,-1.8226,-1.8547,-1.8709,-1.8603,-1.824,-1.7697,-1.6723,-1.6287,0.0,0.0,0.0,0.0,0.0,0.0,0.0,0.0,0.0,0.0,0.0,0.0,0.0,0.0,0.0,0.0,0.0,0.0,0.0,0.0,0.0,0.0,0.0,0.0,0.0,-1.131,-1.1178,-1.1039,-1.0912,-1.1051,-1.1033,-1.0912,-1.2011,-1.2599,-1.3053,-1.4832,-1.6102,-1.707,-1.8037,-1.8788,-1.9301,-1.9301,-1.9567,-1.9989,0.0,-2.1,0.0,0.0,-1.7466,0.0,-1.5737,-1.4753,-1.3798,-1.3055,-1.27,-1.2254,-1.1698,-1.1293,-1.1309,-1.1877,-1.2299,-1.2622,-1.2825,-1.4225,-1.5157,-1.5396,-1.6927,-1.7556,-1.7202,-1.7644,-1.7454,0.0,-1.6375,-1.569,0.0,0.0,0.0,0.0,0.0,0.0,0.0,0.0,-1.0513,-0.9609,-0.8883,-0.8514,-0.8311,-0.8099,-0.7891,-0.7822,-0.8299,-0.8941,-0.9709,-1.0919,-1.1498,-1.1622,-1.174,-1.2097,-1.2749,-1.3837,-1.456,-1.5089,-1.6134,-1.6384,-1.6467,-1.6808,-1.6915,-1.7162,-1.7936,-1.8247,-1.8475,-1.8847,-1.8583,-1.7929,-1.6978,-1.6852,0.0,0.0,0.0,0.0,0.0,0.0,0.0,0.0,0.0,0.0,0.0,0.0,0.0,0.0,0.0,0.0,0.0,0.0,0.0,0.0,0.0,-1.1226,-1.128,0.0,-1.1141,0.0,-1.1141,-1.1003,-1.081,-1.1015,-1.0997,-1.0816,-1.1685,-1.2445,-1.3287,-1.5381,-1.6561,-1.7087,-1.8244,-1.8953,-1.9301,-1.9301,-1.9769,-2.0402,0.0,0.0,0.0,0.0,0.0,0.0,0.0,-1.3698,-1.2755,-1.2869,-1.2694,-1.2124,-1.1091,-1.0709,-1.0736,-1.1318,-1.1731,-1.2361,-1.3204,-1.4153,-1.5015,-1.5793,-1.6358,-1.6821,-1.7202,-1.7257,-1.7235,0.0,0.0,-1.5706,0.0,0.0,0.0,0.0,0.0,0.0,0.0,-1.1111,-1.0207,-0.8761,-0.8505,-0.8302,-0.8085,-0.7886,-0.7678,-0.7615,-0.8236,-0.8941,-0.9582,-1.0351,-1.1052,-1.1685,-1.2212,-1.2451,-1.281,-1.4364,-1.4845,-1.5089,-1.6134,-1.6384,-1.6394,-1.6436,-1.6746,-1.6997,-1.709,-1.7792,-1.8392,-1.8433,-1.8775,-1.8988,-1.888,-1.7715,-1.6943,0.0,0.0,0.0,0.0,0.0,0.0,0.0,0.0,0.0,0.0,0.0,0.0,0.0,0.0,0.0,0.0,0.0,0.0,-1.1504,0.0,-1.1606,-1.1842,-1.1359,-1.1238,-1.1492,-1.1232,-1.1099,-1.1075,-1.1099,-1.1099,-1.1075,-1.1694,-1.2666,-1.3805,-1.5324,-1.6388,-1.7087,-1.8244,-1.8953,-1.9301,-1.9301,-1.9595,-2.0035,0.0,0.0,0.0,0.0,0.0,0.0,0.0,-1.2022,-1.1122,-1.0721,-1.0748,-1.0584,-1.0181,-0.9993,-1.0277,-1.1217,-1.1132,-1.143,-1.2492,-1.3301,-1.4014,-1.4583,-1.5808,-1.6368,-1.614,-1.6472,-1.6472,0.0,0.0,0.0,0.0,0.0,0.0,0.0,0.0,-1.2685,-1.1111,-1.1111,-1.0207,-0.8685,-0.8481,-0.8274,-0.8056,-0.7858,-0.7645,-0.7521,-0.7782,-0.8619,-0.9518,-0.9843,-1.0667,-1.1622,-1.1856,-1.2042,-1.2397,-1.3897,-1.4442,-1.4737,-1.6077,-1.6384,-1.6384,-1.6384,-1.6508,-1.6715,-1.6925,-1.7533,-1.8061,-1.833,-1.8744,-1.8982,-1.8702,-1.8168,-1.7792,0.0,0.0,0.0,0.0,0.0,0.0,0.0,0.0,0.0,0.0,0.0,0.0,0.0,0.0,0.0,0.0,0.0,0.0,-1.1769,0.0,-1.1413,-1.1685,-1.1304,-1.1166,-1.128,-1.1166,-1.1111,-1.1111,-1.1111,-1.1111,-1.1111,-1.1706,-1.2445,-1.3375,-1.5296,-1.643,-1.7113,-1.8497,-1.9164,-1.9329,-1.9586,-1.9934,-2.0338,-1.9806,0.0,-1.6331,0.0,-1.3127,-1.2098,-1.1012,-1.0316,-0.9646,-0.8819,-0.8811,-0.891,-0.8998,-0.9201,-0.9673,-1.049,-1.0328,-1.0624,-1.1727,-1.2439,-1.3014,-1.3433,-1.5005,0.0,-1.5177,-1.5748,-1.5806,-1.541,-1.541,0.0,0.0,0.0,0.0,0.0,-1.3824,-1.2604,-1.1111,-1.1111,-1.0168,-0.8595,-0.8392,-0.8179,-0.7971,-0.7763,-0.7593,-0.7521,-0.7521,-0.8231,-0.9262,-0.9454,-1.0281,-1.1303,-1.156,-1.1685,-1.2042,-1.3304,-1.3795,-1.4213,-1.5478,-1.5961,-1.6134,-1.6134,-1.6259,-1.6467,-1.6777,-1.7305,-1.7895,-1.8464,-1.8847,-1.8971,-1.864,-1.8475,-1.8423,-1.8557,0.0,0.0,0.0,0.0,0.0,0.0,-1.5666,-1.5285,-1.425,0.0,0.0,0.0,0.0,0.0,0.0,0.0,0.0,0.0,0.0,0.0,0.0,-1.125,-1.1111,-1.1111,-1.1111,-1.1111,-1.1111,-1.1111,-1.1154,-1.1238,-1.1771,-1.2339,-1.3064,-1.5064,-1.6301,-1.697,-1.8565,-1.9304,-1.9522,-1.9824,-2.0255,-2.0732,-1.8031,-1.5823,-1.3621,-1.1835,-1.1345,-1.0773,-0.9449,-0.8804,-0.8305,-0.7604,-0.7285,-0.7225,-0.7515,-0.8317,-0.8798,-0.883,-0.9302,-1.0008,-1.0931,-1.1559,-1.2104,0.0,0.0,-1.4439,-1.4529,-1.5118,-1.541,-1.541,0.0,0.0,-1.542,0.0,-1.5414,-1.507,-1.4725,-1.3288,-1.1111,-1.1111,-1.0074,-0.8387,-0.817,-0.7962,-0.7758,-0.7612,-0.7526,-0.7521,-0.7521,-0.7907,-0.8619,-0.9262,-0.997,-1.0611,-1.1373,-1.1685,-1.1988,-1.2765,-1.3139,-1.3511,-1.4291,-1.4942,-1.541,-1.541,-1.5894,-1.6384,-1.6384,-1.7088,-1.7988,-1.8878,-1.9131,-1.9075,-1.9065,-1.8682,-1.8526,-1.8992,0.0,0.0,0.0,0.0,0.0,0.0,-1.6797,-1.6542,-1.4648,0.0,0.0,0.0,0.0,0.0,0.0,0.0,0.0,-1.2439,-1.1831,0.0,-1.1534,-1.125,-1.1111,-1.1111,-1.1111,-1.1111,-1.1111,-1.1111,-1.1262,-1.154,-1.1799,-1.2234,-1.2909,-1.4707,-1.5843,-1.6689,-1.8125,-1.9174,-1.9925,-1.9934,-2.0429,-2.1099,-1.5422,-1.3346,-1.145,-1.0296,-0.841,-0.7092,-0.7034,-0.6488,-0.6015,-0.5665,-0.5884,-0.5936,-0.5481,-0.7112,-0.8355,0.0,-0.8942,-0.9508,0.0,-1.0706,-1.1161,-1.2149,-1.2817,-1.3593,-1.446,-1.4706,-1.5001,-1.541,0.0,0.0,0.0,-1.5169,-1.497,-1.5078,-1.4182,-1.2984,-1.1565,-1.1124,-1.0102,-0.8801,-0.8166,-0.7839,-0.7754,-0.7607,-0.7521,-0.7521,-0.7521,-0.7907,-0.8554,-0.8748,-0.9582,-1.0548,-1.08,-1.1365,-1.2174,-1.2964,-1.3321,-1.3563,-1.4291,-1.4942,-1.541,-1.541,-1.6115,-1.6829,-1.6829,-1.7533,-1.834,-1.894,-1.9075,-1.9075,-1.9075,-1.8692,-1.8526,-1.8992,-1.8319,0.0,0.0,0.0,0.0,0.0,-1.6534,-1.6287,0.0,-1.5294,0.0,0.0,0.0,0.0,0.0,0.0,0.0,0.0,-1.1738,0.0,-1.1528,-1.125,-1.1208,-1.1401,-1.1401,-1.1401,-1.1395,-1.1196,-1.1268,-1.1534,-1.1618,-1.2072,-1.2909,-1.4479,-1.5629,-1.6635,-1.8412,-1.9407,-1.9998,-2.0539,-2.0897,-2.1145,-1.2982,-1.0977,-0.9138,-0.7951,-0.6298,-0.509,-0.518,-0.4765,-0.441,-0.4317,-0.4589,-0.478,-0.4525,-0.5977,0.0,-0.7759,-0.8196,-0.8725,-0.9429,-0.9782,-1.0324,-1.1114,-1.1914,-1.2738,-1.3525,0.0,0.0,-1.4697,-1.4942,-1.5226,-1.5545,-1.4854,-1.4647,-1.4849,-1.3765,-1.2613,-1.1417,-1.0805,-0.9839,-0.8577,-0.8035,-0.773,-0.7645,-0.7574,-0.7521,-0.7521,-0.7521,-0.7782,-0.8166,-0.8425,-0.9198,-1.0161,-1.0598,-1.1358,-1.2182,-1.2728,-1.2972,-1.3277,-1.3692,-1.4231,-1.4697,-1.4697,-1.5494,-1.6386,-1.696,-1.7779,-1.8506,-1.8971,-1.9075,-1.9075,-1.9075,-1.8837,-1.8733,-1.9023,-1.8319,-1.7668,-1.7668,0.0,0.0,0.0,0.0,0.0,0.0,-1.5731,0.0,0.0,0.0,0.0,0.0,0.0,0.0,-1.2859,-1.1891,0.0,-1.1371,-1.1304,-1.1359,-1.1534,-1.163,-1.1679,-1.1673,-1.1498,-1.1564,-1.1823,-1.1823,-1.2135,-1.2883,-1.4022,-1.5161,-1.6275,-1.8011,-1.9173,-1.9978,-2.0784,-2.1209,-2.1383,-1.0617,-0.8601,0.0,0.0,-0.4866,0.0,-0.3798,-0.3642,-0.3516,-0.3516,-0.3516,-0.3793,-0.4349,-0.4886,-0.5429,-0.61,0.0,0.0,0.0,-0.8896,-0.9585,-0.9694,-1.1121,-1.1922,-1.2043,-1.2964,-1.345,-1.3511,-1.4112,-1.4496,-1.459,-1.4467,-1.4445,-1.4522,-1.3449,-1.217,-1.0771,-1.0451,-0.9308,-0.7826,-0.7826,-0.7636,-0.7521,-0.7521,-0.7521,-0.7521,-0.7521,-0.7521,-0.7587,-0.8231,-0.8935,-0.9709,-1.064,-1.1476,-1.212,-1.2127,-1.2375,-1.2629,-1.2653,-1.3075,-1.3554,-1.3579,-1.4347,-1.5448,-1.6908,-1.78,-1.8376,-1.8905,-1.8998,-1.9065,-1.9075,-1.9075,-1.9075,-1.9075,-1.8319,-1.7668,-1.7668,0.0,0.0,0.0,0.0,0.0,0.0,-1.6267,-1.6113,0.0,0.0,0.0,0.0,0.0,-1.431,-1.3022,-1.2405,-1.1745,-1.1241,-1.1425,-1.157,-1.1588,-1.1836,-1.195,-1.195,-1.1932,-1.2065,-1.2312,-1.2312,-1.2463,-1.279,-1.3392,-1.4412,-1.5619,-1.7036,-1.8583,-2.0009,-2.0825,-2.1313,-2.1741,0.0,0.0,-0.476,-0.4321,-0.3346,-0.2675,-0.2949,-0.2919,-0.2903,-0.2903,-0.2903,-0.3125,-0.3738,-0.3898,-0.4398,-0.5403,-0.6593,-0.7295,-0.7295,-0.8172,-0.8905,-0.9361,-1.0362,-1.1398,-1.2385,-1.2594,-1.3009,-1.3511,-1.3692,-1.3926,-1.4196,-1.3613,-1.3541,-1.3898,-1.3006,-1.2009,-1.0894,-1.03,-0.9392,-0.8315,-0.7795,-0.7569,-0.7521,-0.7521,-0.7521,-0.7521,-0.7521,-0.7521,-0.7521,-0.7652,-0.8619,-0.9773,-1.0021,-1.1101,-1.2305,-1.2436,-1.256,-1.2685,-1.2893,-1.3391,-1.3945,-1.429,-1.495,-1.5818,-1.6745,-1.6872,-1.7092,-1.8083,-1.824,-1.8442,-1.8998,-1.9075,-1.9075,-1.9075,-1.8319,-1.7668,-1.7668,-1.6953,0.0,0.0,-1.6777,-1.687,-1.6425,-1.6467,-1.6597,0.0,0.0,0.0,0.0,-1.5843,-1.5019,-1.4,-1.2852,-1.2356,-1.2499,-1.2031,-1.1926,-1.2125,-1.2192,-1.2222,-1.2216,-1.2011,-1.2065,-1.2312,-1.2312,-1.2463,-1.279,-1.3392,-1.4528,-1.586,-1.7055,-1.8626,-2.0332,-2.0802,-2.1284,-2.1741,-0.5885,-0.4542,-0.3446,-0.3053,-0.2354,-0.1945,-0.2245,-0.2294,-0.2294,-0.2294,-0.2294,-0.2629,-0.3514,-0.3347,-0.3738,-0.5187,-0.6164,-0.6701,-0.6701,-0.7522,-0.8333,-0.9029,-0.9801,-1.0714,-1.1859,-1.202,-1.2282,-1.2658,-1.2895,-1.3075,-1.3108,-1.3044,-1.304,-1.3124,-1.2565,-1.1793,-1.0949,-1.0111,-0.9261,-0.8425,-0.7782,-0.7521,-0.7521,-0.7521,-0.7521,-0.7521,-0.7521,-0.7521,-0.7526,-0.7657,-0.8495,-0.946,-0.9709,-1.0787,-1.2026,-1.2374,-1.2562,-1.2639,-1.2996,-1.334,-1.3669,-1.4081,-1.4706,-1.5388,-1.5975,-1.6347,-1.6859,-1.7775,-1.7969,-1.824,-1.8931,-1.9075,-1.9003,-1.8785,-1.8185,-1.7668,-1.7668,-1.7129,0.0,-1.6974,-1.7212,-1.7203,-1.7026,-1.7053,-1.7246,-1.7676,-1.6876,0.0,-1.7054,-1.6352,-1.5521,-1.4569,-1.3558,-1.3013,-1.2936,-1.2358,-1.2234,-1.2493,-1.2493,-1.2493,-1.2487,-1.2343,-1.2361,-1.2493,-1.2493,-1.2741,-1.3215,-1.3568,-1.4661,-1.6163,-1.71,-1.8592,-2.021,-2.0766,-2.1275,-2.1741,-0.4103,-0.3301,-0.264,-0.1947,-0.1816,-0.1809,-0.1809,-0.1802,-0.1797,-0.1797,-0.1797,-0.2242,-0.335,-0.3014,-0.3352,-0.5053,-0.5656,-0.6032,-0.6092,-0.7054,-0.788,-0.8595,-0.932,-1.016,-1.0962,-1.1421,-1.1622,-1.1622,-1.2097,-1.2242,-1.1963,-1.2526,-1.2615,-1.2365,-1.2087,-1.1495,-1.0751,-0.9866,-0.9069,-0.8296,-0.7717,-0.7521,-0.7521,-0.7521,-0.7521,-0.7521,-0.7521,-0.7521,-0.7521,-0.7917,-0.8436,-0.9145,-0.9646,-1.0667,-1.1751,-1.2141,-1.249,-1.2781,-1.3068,-1.3171,-1.3235,-1.3513,-1.4049,-1.4603,-1.4959,-1.5773,-1.672,-1.7677,-1.7823,-1.8104,-1.8931,-1.9075,-1.894,-1.8547,-1.8112,-1.7833,-1.7833,0.0,-1.7234,-1.7626,-1.7792,-1.7802,-1.774,-1.7792,-1.8009,-1.8444,-1.7684,-1.7243,-1.7569,-1.6715,-1.5858,-1.5146,-1.4381,-1.3663,-1.2994,-1.2581,-1.2481,-1.2705,-1.2705,-1.2705,-1.2705,-1.2705,-1.2705,-1.2705,-1.2705,-1.3052,-1.3737,-1.3737,-1.4781,-1.6432,-1.7218,-1.8449,-1.9935,-2.0694,-2.1275,-2.1741,-0.3095,-0.2566,-0.2138,-0.2008,-0.1902,-0.1868,-0.1868,-0.1828,-0.1797,-0.1797,-0.1797,-0.2074,-0.2736,-0.2736,-0.3271,-0.4687,-0.4869,-0.5159,-0.5682,-0.6777,-0.7537,-0.7838,-0.8857,-0.9781,-1.0607,-1.1281,-1.1622,-1.1622,-1.1685,-1.1707,-1.1633,-1.1759,-1.1781,-1.1706,-1.1718,-1.0925,-0.9701,-0.9536,-0.8807,-0.7652,-0.7521,-0.7521,-0.7521,-0.7521,-0.7521,-0.7521,-0.7521,-0.7521,-0.7521,-0.7917,-0.8565,-0.9338,-0.9716,-1.073,-1.1869,-1.2205,-1.266,-1.3084,-1.3418,-1.3505,-1.3521,-1.3568,-1.3717,-1.3872,-1.4167,-1.4425,-1.5024,-1.672,-1.707,-1.7482,-1.8865,-1.9075,-1.911,-1.8971,-1.8578,-1.8278,-1.8278,0.0,-1.7595,-1.7668,-1.8061,-1.8133,-1.7771,-1.8061,-1.8475,-1.893,-1.7647,-1.727,-1.8373,-1.6999,-1.6237,-1.6401,-1.5468,-1.4565,-1.36,-1.2965,-1.2662,-1.2705,-1.2705,-1.2705,-1.2705,-1.2705,-1.2705,-1.2705,-1.2705,-1.3052,-1.3737,-1.3737,-1.4898,-1.6725,-1.7303,-1.8604,-2.0305,-2.0799,-2.1275,-2.1741,-0.2448,-0.2138,-0.1948,-0.1969,-0.1932,-0.1907,-0.1928,-0.188,-0.1842,-0.1842,-0.1842,-0.2056,-0.2631,-0.2442,-0.2941,-0.4551,-0.4521,-0.4857,-0.584,-0.6608,-0.7212,-0.7705,-0.843,-0.9396,-1.0485,-1.08,-1.1178,-1.1622,-1.1622,-1.1622,-1.156,-1.1185,-1.0996,-1.0989,-1.0604,-1.0091,-0.9454,-0.9134,-0.8619,-0.8037,-0.7652,-0.7521,-0.7521,-0.7521,-0.7521,-0.7526,-0.7722,-0.7787,-0.7852,-0.8371,-0.8907,-0.9414,-0.9741,-1.0823,-1.1941,-1.2333,-1.2832,-1.3394,-1.3545,-1.3457,-1.3362,-1.3537,-1.3584,-1.368,-1.4029,-1.426,-1.4717,-1.607,-1.6827,-1.7469,-1.8347,-1.9059,-1.9282,-1.8785,-1.8516,0.0,0.0,-1.8206,-1.8175,-1.8423,-1.863,-1.8775,-1.8827,-1.9003,-1.9313,-1.9768,-1.851,-1.7942,-1.8583,-1.725,-1.6563,-1.673,-1.5584,-1.4504,-1.373,-1.3045,-1.2705,-1.2705,-1.2705,-1.2705,-1.2705,-1.2705,-1.2705,-1.2711,-1.2868,-1.3528,-1.4566,-1.4642,-1.5841,-1.7694,-1.8137,-1.9084,-2.0382,-2.0817,-2.1275,-2.1741,-0.2083,-0.1961,-0.1959,-0.1988,-0.1969,-0.1961,-0.1989,-0.1941,-0.1902,-0.1902,-0.1902,-0.2061,-0.2466,-0.2165,-0.2617,-0.4417,-0.4247,-0.4693,-0.6014,-0.6464,-0.6908,-0.7472,-0.8137,-0.9005,-1.0034,-1.0358,-1.08,-1.1373,-1.1373,-1.1373,-1.131,-1.0611,-1.0295,-1.0231,-0.9709,-0.939,-0.9262,-0.8742,-0.8425,-0.8231,-0.7717,-0.7521,-0.7521,-0.7521,-0.7521,-0.7657,-0.7922,-0.8052,-0.8182,-0.8823,-0.9182,-0.9455,-0.9928,-1.0994,-1.2107,-1.2564,-1.3164,-1.3703,-1.3703,-1.3457,-1.3267,-1.3521,-1.3648,-1.3799,-1.4156,-1.4514,-1.5001,-1.5867,-1.6749,-1.7432,-1.7903,-1.8666,-1.9031,-1.8543,0.0,0.0,0.0,-1.8702,-1.8868,-1.9334,-1.9385,-1.952,-1.9882,-1.9913,-2.01,-2.0555,-1.9568,-1.8877,-1.8738,-1.7612,-1.6894,-1.6738,-1.5567,-1.4657,-1.4153,-1.3385,-1.2991,-1.3053,-1.282,-1.2741,-1.2795,-1.282,-1.279,-1.2717,-1.3021,-1.3922,-1.5289,-1.5616,-1.6751,-1.8474,-1.9107,-1.9779,-2.0555,-2.0997,-2.1365,-2.1741,-0.2022,-0.2015,-0.2117,-0.212,-0.2119,-0.2117,-0.212,-0.2067,-0.1965,-0.1965,-0.1965,-0.2025,-0.202,-0.2023,-0.2606,-0.4132,-0.3908,-0.435,-0.5796,-0.6264,-0.6597,-0.6924,-0.7967,-0.8554,-0.8619,-0.9843,-1.0548,-1.0548,-1.0548,-1.0548,-1.0548,-0.9901,-0.9582,-0.9582,-0.9518,-0.9134,-0.8554,-0.8554,-0.8166,-0.7587,-0.7521,-0.7521,-0.7521,-0.7521,-0.7722,-0.7987,-0.7987,-0.8182,-0.8511,-0.8894,-0.9182,-0.9583,-1.0441,-1.1316,-1.2176,-1.3046,-1.3677,-1.4069,-1.4069,-1.3815,-1.3553,-1.3576,-1.3831,-1.4164,-1.4522,-1.4879,-1.5452,-1.6522,-1.6757,-1.7067,-1.7777,-1.7706,-1.7806,-1.8385,0.0,0.0,-1.9524,-1.9734,-1.982,-2.0276,-2.0327,-2.0338,-2.0369,-2.0379,-2.0565,-2.1031,-2.0277,-1.9612,-1.9279,-1.8372,-1.7521,-1.6738,-1.5982,-1.5567,-1.5567,-1.4237,-1.3782,-1.3947,-1.3083,-1.2837,-1.3085,-1.3083,-1.2966,-1.2705,-1.2985,-1.3906,-1.5354,-1.5806,-1.7147,-1.9018,-2.0,-2.058,-2.0997,-2.1463,-2.1642,-2.1741,-0.1961,-0.1971,-0.1866,-0.1666,-0.1823,-0.1879,-0.1643,-0.1873,-0.2092,-0.2092,-0.2092,-0.2076,-0.1977,-0.2068,-0.2481,-0.3405,-0.3658,-0.4175,-0.5147,-0.5951,-0.6679,-0.7265,-0.7652,-0.8102,-0.849,-0.9005,-0.9454,-0.9907,-0.9907,-0.9907,-0.9843,-0.9198,-0.8877,-0.8877,-0.8425,-0.8102,-0.7912,-0.7912,-0.7717,-0.7521,-0.7521,-0.7521,-0.7526,-0.7722,-0.7917,-0.8052,-0.8501,-0.87,-0.8916,-0.9402,-0.9758,-1.0131,-1.0987,-1.1589,-1.2206,-1.3322,-1.4009,-1.4434,-1.4434,-1.4021,-1.3632,-1.3854,-1.4013,-1.426,-1.4847,-1.5086,-1.5351,-1.5992,-1.669,-1.7235,-1.7238,-1.7716,-1.8146,-1.8109,0.0,-1.8899,-1.9362,-1.989,-2.0234,-2.04,-2.042,-2.0534,-2.0824,-2.0855,-2.081,-2.0731,-1.9976,-1.9266,-1.8541,-1.7683,-1.7049,-1.673,-1.6484,-1.6147,-1.5733,-1.4817,-1.4122,-1.3808,-1.3691,-1.3442,-1.3127,-1.3101,-1.3052,-1.2985,-1.376,-1.4845,-1.6111,-1.713,-1.8367,-1.9898,-2.0517,-2.0873,-2.1087,-2.1553,-2.1741,-2.1741,-0.1691,-0.1696,-0.1531,-0.1086,-0.1263,-0.1392,-0.1334,-0.1587,-0.1896,-0.2091,-0.2157,-0.214,-0.2098,-0.2194,-0.2546,-0.3262,-0.3584,-0.409,-0.4752,-0.5686,-0.6609,-0.7456,-0.7521,-0.7717,-0.8166,-0.8425,-0.8748,-0.9198,-0.9198,-0.9198,-0.9198,-0.849,-0.8166,-0.8166,-0.7717,-0.7521,-0.7521,-0.7521,-0.7521,-0.7521,-0.7521,-0.7521,-0.7521,-0.7857,-0.8052,-0.8247,-0.8823,-0.9087,-0.9256,-0.9712,-1.0109,-1.0445,-1.1352,-1.2064,-1.2739,-1.3535,-1.4201,-1.4569,-1.4569,-1.4371,-1.414,-1.4387,-1.445,-1.4633,-1.534,-1.5507,-1.5602,-1.5936,-1.6665,-1.715,-1.6838,-1.7355,-1.7828,-1.7707,-1.8081,-1.8646,-1.9296,-1.9902,-2.04,-2.0762,-2.0855,-2.0979,-2.13,-2.1331,-2.1155,-2.0769,-2.006,-1.9265,-1.8247,-1.7375,-1.6984,-1.7139,-1.7139,-1.6894,-1.6394,-1.5643,-1.4951,-1.4457,-1.4348,-1.4095,-1.3677,-1.3525,-1.3519,-1.3795,-1.4723,-1.5707,-1.6892,-1.8151,-1.943,-2.0555,-2.1006,-2.1186,-2.1275,-2.1553,-2.1741,-2.1741,-0.1113,-0.1147,-0.0994,-0.0512,-0.0461,-0.0672,-0.121,-0.1277,-0.1547,-0.2154,-0.2221,-0.2221,-0.2221,-0.2487,-0.3021,-0.3758,-0.3825,-0.4092,-0.4764,-0.5491,-0.6346,-0.7456,-0.7521,-0.7521,-0.7521,-0.8166,-0.849,-0.849,-0.849,-0.849,-0.849,-0.7782,-0.7521,-0.7521,-0.7521,-0.7521,-0.7521,-0.7521,-0.7521,-0.7521,-0.7526,-0.7521,-0.7521,-0.7857,-0.8187,-0.8582,-0.8894,-0.9215,-0.9526,-0.979,-1.0048,-1.0451,-1.1352,-1.2641,-1.3833,-1.376,-1.4201,-1.4569,-1.4569,-1.4911,-1.5189,-1.5189,-1.5189,-1.5364,-1.6047,-1.6206,-1.6309,-1.6659,-1.673,-1.673,-1.673,-1.6444,-1.6436,-1.7206,-1.6987,-1.7561,-1.9628,-1.9922,-2.0381,-2.1593,-2.1807,-2.1807,-2.1807,-2.1807,-2.1655,-2.1205,-2.0712,-1.9991,-1.8736,-1.787,-1.7554,-1.7959,-1.804,-1.804,-1.804,-1.6968,-1.6308,-1.6126,-1.519,-1.486,-1.5067,-1.4496,-1.4583,-1.5175,-1.5863,-1.6543,-1.747,-1.8879,-2.0084,-2.1087,-2.1553,-2.1741,-2.1741,-2.1741,-2.1741,-2.1741,-0.0591,-0.0604,-0.0498,0.0064,-0.0519,-0.0985,-0.0804,-0.1412,-0.2018,-0.2154,-0.2221,-0.2221,-0.2221,-0.2487,-0.282,-0.3021,-0.3489,-0.4292,-0.5491,-0.5756,-0.6346,-0.7456,-0.7521,-0.7521,-0.7521,-0.7717,-0.7782,-0.7782,-0.7782,-0.7782,-0.7782,-0.7587,-0.7521,-0.7521,-0.7521,-0.7521,-0.7521,-0.7521,-0.7521,-0.7536,-0.795,-0.7986,-0.7932,-0.8684,-0.9014,-0.913,-0.9279,-0.9646,-1.0042,-1.0119,-1.0387,-1.0647,-1.1132,-1.2437,-1.3688,-1.3258,-1.4086,-1.4967,-1.4712,-1.5078,-1.5475,-1.5245,-1.5364,-1.565,-1.6103,-1.6206,-1.6309,-1.6659,-1.673,-1.673,-1.673,-1.6643,-1.6652,-1.6806,-1.7271,-1.7864,-1.8452,-1.9091,-1.9606,-2.0041,-2.0051,-2.0138,-2.0459,-2.0459,-2.0304,-1.9932,-1.9143,-1.8585,-1.8193,-1.7951,-1.7878,-1.804,-1.804,-1.8121,-1.8451,-1.7221,-1.6358,-1.5853,-1.5763,-1.5097,-1.411,-1.4826,-1.5261,-1.554,-1.6544,-1.764,-1.8896,-2.0064,-2.0882,-2.1553,-2.1642,-2.1741,-2.1741,-2.1741,-2.1741,-2.1741,-0.0061,-0.0062,0.0063,0.0588,0.0131,-0.0395,-0.0469,-0.1076,-0.1681,-0.2154,-0.2287,-0.2421,-0.2421,-0.2822,-0.3155,-0.3155,-0.3692,-0.4428,-0.5488,-0.5756,-0.628,-0.7129,-0.7391,-0.7521,-0.7521,-0.7521,-0.7521,-0.7521,-0.7521,-0.7521,-0.7521,-0.7521,-0.7521,-0.7521,-0.7521,-0.7521,-0.7521,-0.7657,-0.7722,-0.7731,-0.8266,-0.8372,-0.8273,-0.9097,-0.9325,-0.9317,-0.9706,-0.9928,-1.0137,-1.0417,-1.0659,-1.09,-1.1063,-1.2144,-1.3426,-1.3181,-1.4111,-1.5165,-1.5078,-1.5459,-1.584,-1.5642,-1.5737,-1.5983,-1.6333,-1.6412,-1.6476,-1.669,-1.673,-1.673,-1.673,-1.673,-1.673,-1.673,-1.7131,-1.7602,-1.7917,-1.8638,-1.9195,-1.9502,-1.9668,-1.9904,-2.0148,-2.0148,-1.9923,-1.9381,-1.8674,-1.8282,-1.8282,-1.8282,-1.8362,-1.8514,-1.8505,-1.8674,-1.8922,-1.7781,-1.7106,-1.6814,-1.6996,-1.6651,-1.586,-1.6009,-1.6498,-1.7305,-1.7694,-1.8651,-1.9915,-2.0891,-2.1454,-2.1741,-2.1741,-2.1741,-2.1741,-2.1741,-2.1741,-2.1741,0.045,0.0453,0.0588,0.1004,0.1076,0.0672,-0.0336,-0.0538,-0.0941,-0.2085,-0.2487,-0.2686,-0.2753,-0.3355,-0.3825,-0.3825,-0.4097,-0.4498,-0.5087,-0.5624,-0.6152,-0.6675,-0.7195,-0.7521,-0.7521,-0.7521,-0.7521,-0.7521,-0.7521,-0.7521,-0.7521,-0.7521,-0.7521,-0.7521,-0.7521,-0.7521,-0.7591,-0.7917,-0.8062,-0.8083,-0.8414,-0.8609,-0.8636,-0.9264,-0.9346,-0.9213,-1.0021,-1.0137,-1.0048,-1.0592,-1.093,-1.1148,-1.1148,-1.1987,-1.3026,-1.3339,-1.4223,-1.5249,-1.5562,-1.5936,-1.6166,-1.6214,-1.623,-1.6333,-1.6659,-1.673,-1.673,-1.673,-1.673,-1.673,-1.673,-1.673,-1.673,-1.673,-1.673,-1.7049,-1.7844,-1.8336,-1.8895,-1.9668,-2.0079,-2.0411,-2.0411,-2.0489,-2.0167,-1.9381,-1.8922,-1.8772,-1.8772,-1.8772,-1.8949,-1.9356,-1.9356,-1.9375,-1.9412,-1.8593,-1.8344,-1.8588,-1.8588,-1.8776,-1.9059,-1.7741,-1.8084,-1.9727,-1.9183,-1.9521,-2.0529,-2.1365,-2.1741,-2.1741,-2.1741,-2.1741,-2.1741,-2.1741,-2.1741,-2.1741,0.0907,0.092,0.1001,0.1074,0.0739,0.0269,-0.0403,-0.0874,-0.1479,-0.2485,-0.2686,-0.282,-0.3092,-0.3491,-0.3825,-0.3825,-0.4097,-0.4498,-0.5087,-0.5624,-0.6152,-0.6675,-0.7195,-0.7521,-0.7521,-0.7521,-0.7521,-0.7521,-0.7521,-0.7521,-0.7521,-0.7521,-0.7521,-0.7521,-0.7787,-0.7917,-0.7922,-0.8252,-0.8488,-0.8719,-0.9047,-0.9175,-0.927,-0.9867,-1.0069,-1.0033,-1.0215,-1.0556,-1.0876,-1.0985,-1.1208,-1.1443,-1.1443,-1.2428,-1.3586,-1.3404,-1.4234,-1.5248,-1.5268,-1.5544,-1.5889,-1.611,-1.6412,-1.6643,-1.6714,-1.673,-1.673,-1.673,-1.673,-1.673,-1.673,-1.673,-1.673,-1.673,-1.6984,-1.731,-1.7465,-1.787,-1.8193,-1.8425,-1.8505,-1.8674,-1.9091,-1.939,-1.9539,-1.9301,-1.9222,-1.9152,-1.9152,-1.9152,-1.9377,-1.9787,-1.9797,-1.9943,-2.0255,-2.008,-1.9463,-1.8588,-1.8588,-1.844,-1.8197,-1.882,-1.9339,-1.9798,-1.9906,-2.0538,-2.1365,-2.1642,-2.1741,-2.1741,-2.1741,-2.1741,-2.1741,-2.1741,-2.1741,-2.1741,0.1057,0.1065,0.1076,0.1076,0.0874,0.0403,-0.0403,-0.0874,-0.1546,-0.2552,-0.3021,-0.3288,-0.3491,-0.3828,-0.4028,-0.4028,-0.4282,-0.4651,-0.5193,-0.5464,-0.5869,-0.64,-0.6668,-0.6798,-0.6798,-0.7162,-0.7386,-0.7521,-0.7521,-0.7521,-0.7521,-0.7521,-0.7587,-0.7722,-0.7922,-0.8117,-0.8257,-0.8761,-0.8948,-0.8975,-0.9609,-0.9767,-0.9702,-1.0293,-1.0435,-1.0363,-1.061,-1.0882,-1.1111,-1.1111,-1.1208,-1.1329,-1.1329,-1.2126,-1.3121,-1.3108,-1.4137,-1.5195,-1.5418,-1.5836,-1.6191,-1.6419,-1.6595,-1.673,-1.673,-1.673,-1.673,-1.673,-1.673,-1.673,-1.673,-1.673,-1.673,-1.673,-1.7066,-1.7392,-1.7392,-1.7959,-1.8371,-1.8371,-1.8514,-1.8754,-1.8922,-1.9334,-1.9604,-1.9604,-1.9778,-1.9879,-1.9879,-1.9879,-1.998,-2.02,-2.0209,-2.031,-2.0521,-2.0521,-2.025,-1.98,-1.98,-1.9747,-1.9684,-1.9872,-2.0234,-2.0696,-2.0442,-2.0808,-2.1741,-2.1741,-2.1741,-2.1741,-2.1741,-2.1741,-2.1741,-2.1741,-2.1741,-2.1741,0.1076,0.1076,0.1076,0.1076,0.1076,0.074,-0.0269,-0.0874,-0.1613,-0.2686,-0.3422,-0.3825,-0.3892,-0.4164,-0.43,-0.43,-0.4406,-0.468,-0.5164,-0.5259,-0.5547,-0.596,-0.6095,-0.6095,-0.6095,-0.6792,-0.7268,-0.7381,-0.7513,-0.7579,-0.7644,-0.7644,-0.7841,-0.8173,-0.828,-0.8412,-0.8717,-0.9281,-0.9426,-0.9377,-1.0033,-1.0155,-1.0121,-1.0556,-1.0586,-1.0459,-1.0936,-1.1141,-1.1184,-1.1184,-1.1238,-1.1317,-1.1317,-1.1883,-1.2687,-1.2883,-1.3943,-1.5205,-1.5509,-1.6018,-1.6566,-1.6648,-1.673,-1.673,-1.673,-1.673,-1.673,-1.673,-1.673,-1.673,-1.673,-1.673,-1.673,-1.673,-1.7066,-1.7392,-1.7473,-1.821,-1.87,-1.8772,-1.9073,-1.9329,-1.9402,-1.9723,-1.9962,-2.0026,-2.0328,-2.0521,-2.0521,-2.0521,-2.0549,-2.0613,-2.0622,-2.0649,-2.0723,-2.0723,-2.0888,-2.1218,-2.1218,-2.1392,-2.1642,-2.0898,-2.0997,-2.1651,-2.0898,-2.0997,-2.1741,-2.1741,-2.1741,-2.1741,-2.1741,-2.1741,-2.1741,-2.1741,-2.1741,-2.1741,0.1076,0.1076,0.1076,0.1076,0.1078,0.0808,0.0067,-0.1008,-0.2153,-0.3297,-0.3694,-0.3892,-0.4231,-0.43,-0.43,-0.43,-0.4406,-0.4541,-0.461,-0.5065,-0.5418,-0.549,-0.5912,-0.6193,-0.6193,-0.6857,-0.7127,-0.6988,-0.7532,-0.7933,-0.8265,-0.8265,-0.8472,-0.8824,-0.9308,-0.9485,-0.9287,-0.9953,-1.0317,-1.0473,-1.0323,-1.0441,-1.0622,-1.0695,-1.0695,-1.0707,-1.1003,-1.1268,-1.1473,-1.1473,-1.1775,-1.2149,-1.2149,-1.2744,-1.3515,-1.3225,-1.3933,-1.4871,-1.5205,-1.5517,-1.5982,-1.6566,-1.673,-1.673,-1.673,-1.673,-1.673,-1.673,-1.673,-1.673,-1.673,-1.673,-1.673,-1.673,-1.7066,-1.7554,-1.7878,-1.8371,-1.8851,-1.9152,-1.9301,-1.9439,-1.9815,-1.9897,-2.0072,-2.0411,-2.0484,-2.0521,-2.0521,-2.0521,-2.0677,-2.1016,-2.1025,-2.1209,-2.1566,-2.1575,-2.1603,-2.1649,-2.1649,-2.1676,-2.1741,-2.1553,-2.1553,-2.1731,-2.1553,-2.1553,-2.1741,-2.1741,-2.1741,-2.1741,-2.1741,-2.1741,-2.1741,-2.1741,-2.1741,-2.1741,0.1076,0.1076,0.1076,0.1076,0.1078,0.0741,-0.0471,-0.1074,-0.1946,-0.3493,-0.3897,-0.4164,-0.43,-0.43,-0.4325,-0.439,-0.4504,-0.4599,-0.467,-0.4944,-0.5017,-0.5017,-0.5301,-0.5377,-0.5372,-0.6691,-0.7294,-0.7048,-0.7869,-0.8369,-0.8572,-0.8779,-0.9055,-0.9416,-0.9661,-0.9852,-0.9965,-1.0365,-1.0532,-1.052,-1.0695,-1.0749,-1.0737,-1.0882,-1.0936,-1.0954,-1.1069,-1.1292,-1.1534,-1.1534,-1.1781,-1.2095,-1.2095,-1.2441,-1.2887,-1.2762,-1.3668,-1.4706,-1.4896,-1.5539,-1.6319,-1.6648,-1.673,-1.673,-1.673,-1.673,-1.673,-1.673,-1.673,-1.673,-1.673,-1.6902,-1.7066,-1.7066,-1.7635,-1.821,-1.8371,-1.8763,-1.9073,-1.9301,-1.9512,-1.9723,-1.9916,-2.0328,-2.0659,-2.0833,-2.1062,-2.12,-2.12,-2.12,-2.1273,-2.1456,-2.1456,-2.1548,-2.1741,-2.1741,-2.1741,-2.1741,-2.1741,-2.1741,-2.1741,-2.1741,-2.1741,-2.1741,-2.1741,-2.1741,-2.1741,-2.1741,-2.1741,-2.1741,-2.1741,-2.182,-2.1919,-2.1919,-2.1998,-2.2087]}]]